[[{"header":{"parameterUnit":"m.s-1","parameterCategory":1,"la1":31.0,"la2":29.5877,"lo1":-88.7671,"lo2":-86.6584,"dy":0.0162,"dx":0.0185,"nx":115,"ny":88,"refTime":"2026-05-24T12:00:00:Z","depth":0,"parameterNumber":2,"parameterNumberName":"U-component_of_WINDS"},"data":[0.0,0.0,0.0,0.0,0.0,0.0,0.0,0.0,0.0,0.0,0.0,0.0,0.0,0.0,0.0,0.0,0.0,0.0,0.0,0.0,0.0,0.0,0.0,0.0,0.0,0.0,0.0,0.0,0.0,0.0,0.0,0.0,0.0,0.0,0.0,0.0,0.0,0.0,0.0,0.0,0.0,0.0,0.0,0.0,0.0,0.0,0.0,0.0,0.0,0.0,0.0,0.0,0.0,0.0,0.0,0.0,0.0,0.0,0.0,0.0,0.0,0.0,0.0,0.0,0.0,0.0,0.0,0.0,0.0,0.0,0.0,0.0,0.0,0.0,0.0,0.0,0.0,0.0,0.0,0.0,0.0,0.0,0.0,0.0,0.0,0.0,0.0,0.0,0.0,0.0,0.0,0.0,0.0,0.0,0.0,0.0,0.0,0.0,0.0,0.0,0.0,0.0,0.0,0.0,0.0,0.0,0.0,0.0,0.0,0.0,0.0,0.0,0.0,0.0,0.0,0.0,0.0,0.0,0.0,0.0,0.0,0.0,0.0,0.0,0.0,0.0,0.0,0.0,0.0,0.0,0.0,0.0,0.0,0.0,0.0,0.0,0.0,0.0,0.0,0.0,0.0,0.0,0.0,0.0,0.0,0.0,0.0,0.0,0.0,0.0,0.0,0.0,0.0,0.0,0.0,0.0,0.0,0.0,0.0,0.0,0.0,0.0,0.0,0.0,0.0,0.0,0.0,0.0,0.0,0.0,0.0,0.0,0.0,0.0,0.0,0.0,0.0,0.0,0.0,0.0,0.0,0.0,0.0,0.0,0.0,0.0,0.0,0.0,0.0,0.0,0.0,0.0,0.0,0.0,0.0,0.0,0.0,0.0,0.0,0.0,0.0,0.0,0.0,0.0,0.0,0.0,0.0,0.0,0.0,0.0,0.0,0.0,0.0,0.0,0.0,0.0,0.0,0.0,0.0,0.0,0.0,0.0,0.0,0.0,0.0,0.0,0.0,0.0,0.0,0.0,0.0,0.0,0.0,0.0,0.0,0.0,0.0,0.0,0.0,0.0,0.0,0.0,0.0,0.0,0.0,0.0,0.0,0.0,0.0,0.0,0.0,0.0,0.0,0.0,0.0,0.0,0.0,0.0,0.0,0.0,0.0,0.0,0.0,0.0,0.0,0.0,0.0,0.0,0.0,0.0,0.0,0.0,0.0,0.0,0.0,0.0,0.0,0.0,0.0,0.0,0.0,0.0,0.0,0.0,0.0,0.0,0.0,0.0,0.0,0.0,0.0,0.0,0.0,0.0,0.0,0.0,0.0,0.0,0.0,0.0,0.0,0.0,0.0,0.0,0.0,0.0,0.0,0.0,0.0,0.0,0.0,0.0,0.0,0.0,0.0,0.0,0.0,0.0,0.0,0.0,0.0,0.0,0.0,0.0,0.0,0.0,0.0,0.0,0.0,0.0,0.0,0.0,0.0,0.0,0.0,0.0,0.0,0.0,0.0,0.0,0.0,0.0,0.0,0.0,0.0,0.0,0.0,0.0,0.0,0.0,0.0,0.0,0.0,0.0,0.0,0.0,0.0,0.0,0.0,0.0,0.0,0.0,0.0,0.0,0.0,0.0,0.0,0.0,0.0,0.0,0.0,0.0,0.0,0.0,0.0,0.0,0.0,0.0,0.0,0.0,0.0,0.0,0.0,0.0,0.0,0.0,0.0,0.0,0.0,0.0,0.0,0.0,0.0,0.0,0.0,0.0,0.0,0.0,0.0,0.0,0.0,0.0,0.0,0.0,0.0,0.0,0.0,0.0,0.0,0.0,0.0,0.0,0.0,0.0,0.0,0.0,0.0,0.0,0.0,0.0,0.0,0.0,0.0,0.0,0.0,0.0,0.0,0.0,0.0,0.0,0.0,0.0,0.0,0.0,0.0,0.0,0.0,0.0,0.0,0.0,0.0,0.0,0.0,0.0,0.0,0.0,0.0,0.0,0.0,0.0,0.0,0.0,0.0,0.0,0.0,0.0,0.0,0.0,0.0,0.0,0.0,0.0,0.0,0.0,0.0,0.0,0.0,0.0,0.0,0.0,0.0,0.0,0.0,0.0,0.0,0.0,0.0,0.0,0.0,0.0,0.0,0.0,0.0,0.0,0.0,0.0,0.0,0.0,0.0,0.0,0.0,0.0,0.0,0.0,0.0,0.0,0.0,0.0,0.0,0.0,0.0,0.0,0.0,0.0,0.0,0.0,0.0,0.0,0.0,0.0,0.0,0.0,0.0,0.0,0.0,0.0,0.0,0.0,0.0,0.0,0.0,0.0,0.0,0.0,0.0,0.0,0.0,0.0,0.0,0.0,0.0,0.0,0.0,0.0,0.0,0.0,0.0,0.0,0.0,0.0,0.0,0.0,0.0,0.0,0.0,0.0,0.0,0.0,0.0,0.0,0.0,0.0,0.0,0.0,0.0,0.0,0.0,0.0,0.0,0.0,0.0,0.0,0.0,0.0,0.0,0.0,0.0,0.0,0.0,0.0,0.0,0.0,0.0,0.0,0.0,0.0,0.0,0.0,0.0,0.0,0.0,0.0,0.0,0.0,0.0,0.0,0.0,0.0,0.0,0.0,0.0,0.0,0.0,0.0,0.0,0.0,0.0,0.0,0.0,0.0,0.0,0.0,0.0,0.0,0.0,0.0,0.0,0.0,0.0,0.0,0.0,0.0,0.0,0.0,0.0,0.0,0.0,0.0,0.0,0.0,0.0,0.0,0.0,0.0,0.0,0.0,0.0,0.0,0.0,0.0,0.0,0.0,0.0,0.0,0.0,0.0,0.0,0.0,0.0,0.0,0.0,0.0,0.0,0.0,0.0,0.0,0.0,0.0,0.0,0.0,0.0,0.0,0.0,0.0,0.0,0.0,0.0,0.0,0.0,0.0,0.0,0.0,0.0,0.0,0.0,0.0,0.0,0.0,0.0,0.0,0.0,0.0,0.0,0.0,0.0,0.0,0.0,0.0,0.0,0.0,0.0,0.0,0.0,0.0,0.0,0.0,0.0,0.0,0.0,0.0,0.0,0.0,0.0,0.0,0.0,0.0,0.0,0.0,0.0,0.0,0.0,0.0,0.0,0.0,0.0,0.0,0.0,0.0,0.0,0.0,0.0,0.0,0.0,0.0,0.0,0.0,0.0,0.0,0.0,0.0,0.0,0.0,0.0,0.0,0.0,0.0,0.0,0.0,0.0,0.0,0.0,0.0,0.0,0.0,0.0,0.0,0.0,0.0,0.0,0.0,0.0,0.0,0.0,0.0,0.0,0.0,0.0,0.0,0.0,0.0,0.0,0.0,0.0,0.0,0.0,0.0,0.0,0.0,0.0,0.0,0.0,0.0,0.0,0.0,0.0,0.0,0.0,0.0,0.0,0.0,0.0,0.0,0.0,0.0,0.0,0.0,0.0,0.0,0.0,0.0,0.0,0.0,0.0,0.0,0.0,0.0,0.0,0.0,0.0,0.0,0.0,0.0,0.0,0.0,0.0,0.0,0.0,0.0,0.0,0.0,0.0,0.0,0.0,0.0,0.0,0.0,0.0,0.0,0.0,0.0,0.0,0.0,0.0,0.0,0.0,0.0,0.0,0.0,0.0,0.0,0.0,0.0,0.0,0.0,0.0,0.0,0.0,0.0,0.0,0.0,0.0,0.0,0.0,0.0,0.0,0.0,0.0,0.0,0.0,0.0,0.0,0.0,0.0,0.0,0.0,0.0,0.0,0.0,0.0,0.0,0.0,0.0,0.0,0.0,0.0,0.0,0.0,0.0,0.0,0.0,0.0,0.0,0.0,0.0,0.0,0.0,0.0,0.0,0.0,0.0,0.0,0.0,0.0,0.0,0.0,0.0,0.0,0.0,0.0,0.0,0.0,0.0,0.0,0.0,0.0,0.0,0.0,0.0,0.0,0.0,0.0,0.0,0.0,0.0,0.0,0.0,0.0,0.0,0.0,0.0,0.0,0.0,0.0,0.0,0.0,0.0,0.0,0.0,0.0,0.0,0.0,0.0,0.0,0.0,0.0,0.0,0.0,0.0,0.0,0.0,0.0,0.0,0.0,0.0,0.0,0.0,0.0,0.0,0.0,0.0,0.0,0.0,0.0,0.0,0.0,0.0,0.0,0.0,0.0,0.0,0.0,0.0,0.0,0.0,0.0,0.0,0.0,0.0,0.0,0.0,0.0,0.0,0.0,0.0,0.0,0.0,0.0,0.0,0.0,0.0,0.0,0.0,0.0,0.0,0.0,0.0,-0.4778,0.0,0.0,0.0,0.0,0.0,0.0,0.0,0.0,0.0,0.0,0.0,0.0,0.0,0.0,0.0,0.0,0.0,0.0,0.0,0.0,0.0,0.0,0.0,0.0,0.0,0.0,0.0,0.0,0.0,0.0,0.0,0.0,0.0,0.0,0.0,0.0,0.0,0.0,0.0,0.0,0.0,0.0,0.0,0.0,0.0,0.0,0.0,0.0,0.0,0.0,0.0,0.0,0.0,0.0,0.0,0.0,0.0,0.0,0.0,0.0,0.0,0.0,0.0,0.0,0.0,0.0,0.0,0.0,0.0,0.0,0.0,0.0,0.0,0.0,0.0,0.0,0.0,0.0,0.0,0.0,0.0,0.0,0.0,0.0,0.0,0.0,0.0,0.0,0.0,0.0,0.0,0.0,0.0,0.0,0.0,0.0,0.0,0.0,0.0,0.0,0.0,0.0,0.0,0.0,0.0,0.0,0.0,0.0,0.0,0.0,-0.4936,-0.528,-0.522,-0.5223,-0.5292,0.0,0.0,0.0,0.0,0.0,0.0,0.0,0.0,0.0,0.0,0.0,0.0,0.0,0.0,0.0,0.0,0.0,0.0,0.0,0.0,0.0,0.0,0.0,0.0,0.0,0.0,0.0,0.0,0.0,0.0,0.0,0.0,0.0,0.0,0.0,0.0,0.0,0.0,0.0,0.0,0.0,0.0,0.0,0.0,0.0,0.0,0.0,0.0,0.0,0.0,0.0,0.0,0.0,0.0,0.0,0.0,0.0,0.0,0.0,0.0,0.0,0.0,0.0,0.0,0.0,0.0,0.0,0.0,0.0,0.0,0.0,0.0,0.0,0.0,0.0,0.0,0.0,0.0,0.0,0.0,0.0,0.0,0.0,0.0,0.0,0.0,0.0,0.0,0.0,0.0,0.0,0.0,0.0,0.0,0.0,0.0,0.0,0.0,0.0,0.0,0.0,0.0,0.0,0.0,0.0,0.0,0.0,0.0,0.0,0.0,0.0,0.0,-0.5585,-0.5687,-0.5799,0.0,0.0,0.0,0.0,0.0,0.0,0.0,0.0,0.0,0.0,0.0,0.0,0.0,0.0,0.0,0.0,0.0,0.0,0.0,0.0,0.0,0.0,0.0,0.0,0.0,0.0,0.0,0.0,0.0,0.0,0.0,0.0,0.0,0.0,0.0,0.0,0.0,0.0,0.0,0.0,0.0,0.0,0.0,0.0,0.0,0.0,0.0,0.0,0.0,0.0,0.0,0.0,0.0,0.0,0.0,0.0,0.0,0.0,0.0,0.0,0.0,0.0,0.0,0.0,0.0,0.0,0.0,0.0,0.0,0.0,0.0,0.0,0.0,0.0,0.0,0.0,0.0,0.0,0.0,0.0,0.0,0.0,0.0,0.0,0.0,0.0,0.0,0.0,0.0,0.0,0.0,0.0,0.0,0.0,0.0,0.0,0.0,0.0,0.0,0.0,0.0,0.0,0.0,0.0,0.0,0.0,0.0,0.0,0.0,0.0,-0.4833,-0.5635,-0.5745,0.0,-0.605,0.0,0.0,0.0,0.0,0.0,0.0,0.0,0.0,0.0,0.0,0.0,0.0,0.0,0.0,0.0,0.0,0.0,0.0,0.0,0.0,0.0,0.0,0.0,0.0,0.0,0.0,0.0,0.0,0.0,0.0,0.0,0.0,0.0,0.0,0.0,0.0,0.0,0.0,0.0,0.0,0.0,0.0,0.0,0.0,0.0,0.0,0.0,0.0,0.0,0.0,0.0,0.0,0.0,0.0,0.0,0.0,0.0,0.0,0.0,0.0,0.0,0.0,0.0,0.0,0.0,0.0,0.0,0.0,0.0,0.0,0.0,0.0,0.0,0.0,0.0,0.0,0.0,0.0,0.0,0.0,0.0,0.0,0.0,0.0,0.0,0.0,0.0,0.0,0.0,0.0,0.0,0.0,0.0,0.0,0.0,0.0,0.0,0.0,0.0,0.0,0.0,0.0,0.0,0.0,0.0,0.0,0.0,0.0,0.0,0.0,-0.5104,-0.6324,-0.6377,-0.6308,0.0,0.0,0.0,0.0,0.0,0.0,0.0,0.0,0.0,0.0,0.0,0.0,0.0,0.0,0.0,0.0,0.0,0.0,0.0,0.0,0.0,0.0,0.0,0.0,0.0,0.0,0.0,0.0,0.0,0.0,0.0,0.0,0.0,0.0,0.0,0.0,0.0,0.0,0.0,0.0,0.0,0.0,0.0,0.0,0.0,0.0,0.0,0.0,0.0,0.0,0.0,0.0,0.0,0.0,0.0,0.0,0.0,0.0,0.0,0.0,0.0,0.0,0.0,0.0,0.0,0.0,0.0,0.0,0.0,0.0,0.0,0.0,0.0,0.0,0.0,0.0,0.0,0.0,0.0,0.0,0.0,0.0,0.0,0.0,0.0,0.0,0.0,0.0,0.0,0.0,0.0,0.0,0.0,0.0,0.0,0.0,0.0,0.0,0.0,0.0,0.0,0.0,0.0,0.0,0.0,0.0,0.0,0.0,0.0,0.0,-0.4605,-0.5267,-0.6543,-0.6637,-0.6502,-0.6245,0.0,0.0,0.0,0.0,0.0,0.0,0.0,0.0,0.0,0.0,0.0,0.0,0.0,0.0,0.0,0.0,0.0,0.0,0.0,0.0,0.0,0.0,0.0,0.0,0.0,0.0,0.0,0.0,0.0,0.0,0.0,0.0,0.0,0.0,0.0,0.0,0.0,0.0,0.0,0.0,0.0,0.0,0.0,0.0,0.0,0.0,0.0,0.0,0.0,0.0,0.0,0.0,0.0,0.0,0.0,0.0,0.0,0.0,0.0,0.0,0.0,0.0,0.0,0.0,0.0,0.0,0.0,0.0,0.0,0.0,0.0,0.0,0.0,0.0,0.0,0.0,0.0,0.0,0.0,0.0,0.0,0.0,0.0,0.0,0.0,0.0,0.0,0.0,0.0,0.0,0.0,0.0,0.0,0.0,0.0,0.0,0.0,0.0,0.0,0.0,0.0,0.0,0.0,0.0,0.0,0.0,0.0,0.0,-0.4027,-0.4478,-0.5193,-0.6177,-0.623,-0.6236,0.0,0.0,0.0,0.0,0.0,0.0,0.0,0.0,0.0,0.0,0.0,0.0,0.0,0.0,0.0,0.0,0.0,0.0,0.0,0.0,0.0,0.0,0.0,0.0,0.0,0.0,0.0,0.0,0.0,0.0,0.0,0.0,0.0,0.0,0.0,0.0,0.0,0.0,0.0,0.0,0.0,0.0,0.0,0.0,0.0,0.0,0.0,0.0,0.0,0.0,0.0,0.0,0.0,0.0,0.0,0.0,0.0,0.0,0.0,0.0,0.0,0.0,0.0,0.0,0.0,0.0,0.0,0.0,0.0,0.0,0.0,0.0,0.0,0.0,0.0,0.0,0.0,0.0,0.0,0.0,0.0,0.0,0.0,0.0,0.0,0.0,0.0,0.0,0.0,0.0,0.0,0.0,0.0,0.0,0.0,0.0,0.0,0.0,0.0,0.0,0.0,0.0,0.0,0.0,0.0,0.0,0.0,0.0,0.0,-0.4004,-0.5132,-0.5572,-0.5345,-0.6257,-0.6463,0.0,0.0,0.0,0.0,0.0,0.0,0.0,0.0,0.0,0.0,0.0,0.0,0.0,0.0,0.0,0.0,0.0,0.0,0.0,0.0,0.0,0.0,0.0,0.0,0.0,0.0,0.0,0.0,0.0,0.0,0.0,0.0,0.0,0.0,0.0,0.0,0.0,0.0,0.0,0.0,0.0,0.0,0.0,0.0,0.0,0.0,0.0,0.0,0.0,0.0,0.0,0.0,0.0,0.0,0.0,0.0,0.0,0.0,0.0,0.0,0.0,0.0,0.0,0.0,0.0,0.0,0.0,0.0,0.0,0.0,0.0,0.0,0.0,0.0,0.0,0.0,0.0,0.0,0.0,0.0,0.0,0.0,0.0,0.0,0.0,0.0,0.0,0.0,0.0,0.0,0.0,0.0,0.0,0.0,0.0,0.0,0.0,0.0,0.0,0.0,0.0,0.0,0.0,0.0,0.0,0.0,0.0,0.0,0.0,-0.4479,0.0,-0.58,-0.5346,-0.6289,-0.6499,0.0,0.0,0.0,0.0,0.0,0.0,0.0,0.0,0.0,0.0,0.0,0.0,0.0,0.0,0.0,0.0,0.0,0.0,0.0,0.0,0.0,0.0,0.0,0.0,0.0,0.0,0.0,0.0,0.0,0.0,0.0,0.0,0.0,0.0,0.0,0.0,0.0,0.0,0.0,0.0,0.0,0.0,0.0,0.0,0.0,0.0,0.0,0.0,0.0,0.0,0.0,0.0,0.0,0.0,0.0,0.0,0.0,0.0,0.0,0.0,0.0,0.0,0.0,0.0,0.0,0.0,0.0,0.0,0.0,0.0,0.0,0.0,0.0,0.0,0.0,0.0,0.0,0.0,0.0,0.0,0.0,0.0,0.0,0.0,0.0,0.0,0.0,0.0,0.0,0.0,0.0,0.0,0.0,0.0,0.0,0.0,0.0,0.0,0.0,0.0,0.0,0.0,0.0,0.0,0.0,0.0,0.0,0.0,-0.4503,-0.5429,-0.554,-0.5787,-0.6259,-0.6319,-0.6307,0.0,0.0,0.0,0.0,0.0,0.0,0.0,0.0,0.0,0.0,0.0,0.0,0.0,0.0,0.0,0.0,0.0,0.0,0.0,0.0,0.0,0.0,0.0,0.0,0.0,0.0,0.0,0.0,0.0,0.0,0.0,0.0,0.0,0.0,0.0,0.0,0.0,0.0,0.0,0.0,0.0,0.0,0.0,0.0,0.0,0.0,0.0,0.0,0.0,0.0,0.0,0.0,0.0,0.0,0.0,0.0,0.0,0.0,0.0,0.0,0.0,0.0,0.0,0.0,0.0,0.0,0.0,0.0,0.0,0.0,0.0,0.0,0.0,0.0,0.0,0.0,0.0,0.0,0.0,0.0,0.0,0.0,0.0,0.0,0.0,0.0,0.0,0.0,0.0,0.0,0.0,0.0,0.0,0.0,0.0,0.0,0.0,0.0,0.0,0.0,0.0,0.0,0.0,0.0,0.0,0.0,0.0,0.0,0.0,-0.5508,-0.6223,-0.6331,-0.5807,-0.6463,-0.6508,0.0,0.0,0.0,0.0,0.0,0.0,0.0,0.0,0.0,0.0,0.0,0.0,0.0,0.0,0.0,0.0,0.0,0.0,0.0,0.0,0.0,0.0,0.0,0.0,0.0,0.0,0.0,0.0,0.0,0.0,0.0,0.0,0.0,0.0,0.0,0.0,0.0,0.0,0.0,0.0,0.0,0.0,0.0,0.0,0.0,0.0,0.0,0.0,0.0,0.0,0.0,0.0,0.0,0.0,0.0,0.0,0.0,0.0,0.0,0.0,0.0,0.0,0.0,0.0,0.0,0.0,0.0,0.0,0.0,0.0,0.0,0.0,0.0,0.0,0.0,0.0,0.0,0.0,0.0,0.0,0.0,0.0,0.0,0.0,0.0,0.0,0.0,0.0,0.0,0.0,0.0,0.0,0.0,0.0,0.0,0.0,0.0,0.0,0.0,0.0,0.0,0.0,0.0,0.0,0.0,0.0,0.0,0.0,0.0,-0.724,-0.7366,-0.7114,-0.6448,-0.6864,-0.6775,-0.6139,0.0,0.0,0.0,0.0,0.0,0.0,0.0,0.0,0.0,0.0,0.0,0.0,0.0,0.0,0.0,0.0,0.0,0.0,0.0,0.0,0.0,0.0,0.0,0.0,0.0,0.0,0.0,0.0,0.0,0.0,0.0,0.0,0.0,0.0,0.0,0.0,0.0,0.0,0.0,0.0,0.0,0.0,0.0,0.0,0.0,0.0,0.0,0.0,0.0,0.0,0.0,0.0,0.0,0.0,0.0,0.0,0.0,0.0,0.0,0.0,0.0,0.0,0.0,0.0,0.0,0.0,0.0,0.0,0.0,0.0,0.0,0.0,0.0,0.0,0.0,0.0,0.0,0.0,0.0,0.0,0.0,0.0,0.0,0.0,0.0,0.0,0.0,0.0,0.0,0.0,0.0,0.0,0.0,0.0,0.0,0.0,0.0,0.0,0.0,0.0,0.0,0.0,0.0,0.0,0.0,0.0,0.0,0.0,-1.0186,-0.8905,-0.8181,-0.8093,-0.7521,-0.7177,0.0,0.0,0.0,0.0,0.0,0.0,0.0,0.0,0.0,0.0,0.0,0.0,0.0,0.0,0.0,0.0,0.0,0.0,0.0,0.0,0.0,0.0,0.0,0.0,0.0,0.0,0.0,0.0,0.0,0.0,0.0,0.0,0.0,0.0,0.0,0.0,0.0,0.0,0.0,0.0,0.0,0.0,0.0,0.0,0.0,0.0,0.0,0.0,0.0,0.0,0.0,0.0,0.0,0.0,0.0,0.0,0.0,0.0,0.0,0.0,0.0,0.0,0.0,0.0,0.0,0.0,0.0,0.0,0.0,0.0,0.0,0.0,0.0,0.0,0.0,0.0,0.0,0.0,0.0,0.0,0.0,0.0,0.0,0.0,0.0,0.0,0.0,0.0,0.0,0.0,0.0,0.0,0.0,0.0,0.0,0.0,0.0,0.0,0.0,0.0,0.0,0.0,0.0,0.0,0.0,0.0,0.0,0.0,0.0,-1.0385,-1.0715,-1.0374,-0.938,-0.8669,-0.79,0.0,0.0,0.0,0.0,0.0,0.0,0.0,0.0,0.0,0.0,0.0,0.0,0.0,0.0,0.0,0.0,0.0,0.0,0.0,0.0,0.0,0.0,0.0,0.0,0.0,0.0,0.0,0.0,0.0,0.0,0.0,0.0,0.0,0.0,0.0,0.0,0.0,0.0,0.0,0.0,0.0,0.0,0.0,0.0,0.0,0.0,0.0,0.0,0.0,0.0,0.0,0.0,0.0,0.0,0.0,0.0,0.0,0.0,0.0,0.0,0.0,0.0,0.0,0.0,0.0,0.0,0.0,0.0,0.0,0.0,0.0,0.0,0.0,0.0,0.0,0.0,0.0,0.0,0.0,0.0,0.0,0.0,0.0,0.0,0.0,0.0,0.0,0.0,0.0,0.0,0.0,0.0,0.0,0.0,0.0,0.0,0.0,0.0,0.0,0.0,0.0,0.0,0.0,0.0,0.0,0.0,0.0,0.0,-1.0349,-1.1412,-1.24,-1.2234,-1.0812,-0.9664,-0.8585,0.0,0.0,0.0,0.0,0.0,0.0,0.0,0.0,0.0,0.0,0.0,0.0,0.0,0.0,0.0,0.0,0.0,0.0,0.0,0.0,0.0,0.0,0.0,0.0,0.0,0.0,0.0,0.0,0.0,0.0,0.0,0.0,0.0,0.0,0.0,0.0,0.0,0.0,0.0,0.0,0.0,0.0,0.0,0.0,0.0,0.0,0.0,0.0,0.0,0.0,0.0,0.0,0.0,0.0,0.0,0.0,0.0,0.0,0.0,0.0,0.0,0.0,0.0,0.0,0.0,0.0,0.0,0.0,0.0,0.0,0.0,0.0,0.0,0.0,0.0,0.0,0.0,0.0,0.0,0.0,0.0,0.0,0.0,0.0,0.0,0.0,0.0,0.0,0.0,0.0,0.0,0.0,0.0,0.0,0.0,0.0,0.0,0.0,0.0,0.0,0.0,0.0,0.0,0.0,0.0,0.0,0.0,0.0,-1.1699,-1.2678,-1.3751,-1.3621,-1.2179,-1.0575,-0.9218,0.0,0.0,0.0,0.0,0.0,0.0,0.0,0.0,0.0,0.0,0.0,0.0,0.0,0.0,0.0,0.0,0.0,0.0,0.0,0.0,0.0,0.0,0.0,0.0,0.0,0.0,0.0,0.0,0.0,0.0,0.0,0.0,0.0,0.0,0.0,0.0,0.0,0.0,0.0,0.0,0.0,0.0,0.0,0.0,0.0,0.0,0.0,0.0,0.0,0.0,0.0,0.0,0.0,0.0,0.0,0.0,0.0,0.0,0.0,0.0,0.0,0.0,0.0,0.0,0.0,0.0,0.0,0.0,0.0,0.0,0.0,0.0,0.0,0.0,0.0,0.0,0.0,0.0,0.0,0.0,0.0,0.0,0.0,0.0,0.0,0.0,0.0,0.0,0.0,0.0,0.0,0.0,0.0,0.0,0.0,0.0,0.0,0.0,0.0,0.0,0.0,0.0,0.0,0.0,0.0,0.0,0.0,0.0,-1.2128,-1.2775,-1.3816,-1.3732,-1.2367,-1.1165,-0.9966,0.0,0.0,0.0,0.0,0.0,0.0,0.0,0.0,0.0,0.0,0.0,0.0,0.0,0.0,0.0,0.0,0.0,0.0,0.0,0.0,0.0,0.0,0.0,0.0,0.0,0.0,0.0,0.0,0.0,0.0,0.0,0.0,0.0,0.0,0.0,0.0,0.0,0.0,0.0,0.0,0.0,0.0,0.0,0.0,0.0,0.0,0.0,0.0,-0.375,0.0,0.0,0.0,0.0,0.0,0.0,0.0,0.0,0.0,0.0,0.0,0.0,0.0,0.0,0.0,0.0,0.0,0.0,0.0,0.0,0.0,0.0,0.0,0.0,0.0,0.0,0.0,0.0,0.0,0.0,0.0,0.0,0.0,0.0,0.0,0.0,0.0,0.0,0.0,0.0,0.0,0.0,0.0,0.0,0.0,0.0,0.0,0.0,0.0,0.0,0.0,0.0,0.0,0.0,0.0,0.0,0.0,0.0,0.0,-1.2295,-1.2899,-1.4012,-1.4085,-1.3031,-1.2122,-1.0716,0.0,0.0,0.0,0.0,0.0,0.0,0.0,0.0,0.0,0.0,0.0,0.0,0.0,0.0,0.0,0.0,0.0,0.0,0.0,0.0,0.0,0.0,0.0,0.0,0.0,0.0,0.0,0.0,0.0,0.0,0.0,0.0,0.0,0.0,0.0,0.0,0.0,0.0,0.0,0.0,0.0,0.0,0.0,0.0,0.0,0.0,0.0,0.0,0.0,0.0,0.0,0.0,0.0,0.0,0.0,0.0,0.0,0.0,0.0,0.0,0.0,0.0,0.0,0.0,0.0,0.0,0.0,0.0,0.0,0.0,0.0,0.0,0.0,0.0,0.0,0.0,0.0,0.0,0.0,0.0,0.0,0.0,0.0,0.0,0.0,0.0,0.0,0.0,0.0,0.0,0.0,0.0,0.0,0.0,0.0,0.0,0.0,0.0,0.0,0.0,0.0,0.0,0.0,0.0,0.0,0.0,0.0,-1.1181,-1.2433,-1.3009,-1.4176,-1.4396,-1.3608,-1.2966,-1.1306,-0.8596,0.0,0.0,0.0,0.0,0.0,0.0,0.0,0.0,0.0,0.0,0.0,0.0,0.0,0.0,0.0,0.0,0.0,0.0,0.0,0.0,0.0,0.0,0.0,0.0,0.0,0.0,0.0,0.0,0.0,0.0,0.0,0.0,0.0,0.0,0.0,0.0,0.0,0.0,-0.3418,-0.3094,0.0,0.0,0.0,0.0,0.0,0.0,0.0,0.0,-0.2731,0.0,0.0,0.0,0.0,0.0,0.0,0.0,0.0,0.0,0.0,0.0,0.0,0.0,0.0,0.0,0.0,0.0,0.0,0.0,0.0,0.0,0.0,0.0,0.0,0.0,0.0,0.0,0.0,0.0,0.0,0.0,0.0,0.0,0.0,0.0,0.0,0.0,0.0,0.0,0.0,0.0,0.0,0.0,0.0,0.0,0.0,0.0,0.0,0.0,0.0,0.0,0.0,0.0,0.0,0.0,0.0,-0.9298,-1.1629,-1.2882,-1.3009,-1.4176,-1.4244,-1.3095,-1.2802,-1.146,-0.899,0.0,0.0,0.0,0.0,0.0,0.0,0.0,0.0,0.0,0.0,0.0,0.0,0.0,0.0,0.0,0.0,0.0,0.0,0.0,0.0,0.0,0.0,0.0,0.0,0.0,0.0,0.0,0.0,0.0,0.0,0.0,0.0,0.0,0.0,0.0,0.0,0.0,0.0,0.0,-0.3774,-0.3739,0.0,0.0,0.0,0.0,0.0,0.0,0.0,0.0,-0.3362,0.0,0.0,0.0,0.0,0.0,0.0,0.0,0.0,0.0,0.0,0.0,0.0,0.0,0.0,0.0,0.0,0.0,0.0,0.0,0.0,0.0,0.0,0.0,0.0,0.0,0.0,0.0,0.0,0.0,0.0,0.0,0.0,0.0,0.0,0.0,0.0,0.0,0.0,0.0,0.0,0.0,0.0,0.0,0.0,0.0,0.0,0.0,0.0,0.0,0.0,0.0,0.0,0.0,0.0,0.0,-0.9846,-1.1909,-1.315,-1.3488,-1.4345,-1.4358,-1.3445,-1.2718,-1.1446,0.0,0.0,0.0,0.0,0.0,0.0,0.0,0.0,0.0,0.0,0.0,0.0,0.0,0.0,0.0,0.0,0.0,0.0,0.0,0.0,0.0,0.0,0.0,0.0,0.0,0.0,0.0,0.0,0.0,0.0,0.0,0.0,0.0,0.0,0.0,0.0,0.0,0.0,0.0,0.0,-0.4154,-0.4129,-0.4605,0.0,0.0,0.0,0.0,0.0,0.0,-0.4224,-0.4002,0.0,0.0,0.0,0.0,0.0,0.0,0.0,0.0,0.0,0.0,0.0,0.0,0.0,0.0,0.0,0.0,0.0,0.0,0.0,0.0,0.0,0.0,0.0,0.0,0.0,0.0,0.0,0.0,0.0,0.0,0.0,0.0,0.0,0.0,0.0,0.0,0.0,0.0,0.0,0.0,0.0,0.0,0.0,0.0,0.0,0.0,0.0,0.0,0.0,0.0,0.0,0.0,0.0,0.0,0.0,-1.037,-1.2127,-1.3333,-1.391,-1.45,-1.4472,-1.3741,-1.2729,-1.1458,0.0,0.0,0.0,0.0,0.0,0.0,0.0,0.0,0.0,0.0,0.0,0.0,0.0,0.0,0.0,0.0,0.0,0.0,0.0,0.0,0.0,0.0,0.0,0.0,0.0,0.0,0.0,0.0,0.0,0.0,0.0,0.0,0.0,0.0,0.0,0.0,0.0,0.0,0.0,0.0,0.0,-0.4495,-0.5374,-0.5539,0.0,0.0,0.0,0.0,-0.5973,-0.5168,0.0,0.0,0.0,0.0,0.0,0.0,0.0,0.0,0.0,0.0,0.0,0.0,0.0,0.0,0.0,0.0,0.0,0.0,0.0,0.0,0.0,0.0,0.0,0.0,0.0,0.0,0.0,0.0,0.0,0.0,0.0,0.0,0.0,0.0,0.0,0.0,0.0,0.0,0.0,0.0,0.0,0.0,0.0,0.0,0.0,0.0,0.0,0.0,0.0,0.0,0.0,0.0,0.0,0.0,0.0,0.0,-1.0496,-1.2238,-1.3458,-1.3997,-1.4576,-1.4335,-1.315,-1.2967,-1.1733,0.0,0.0,0.0,0.0,0.0,0.0,0.0,0.0,0.0,0.0,0.0,0.0,0.0,0.0,0.0,0.0,0.0,0.0,0.0,0.0,0.0,0.0,0.0,0.0,0.0,0.0,0.0,0.0,0.0,0.0,0.0,0.0,0.0,0.0,0.0,0.0,0.0,0.0,0.0,0.0,0.0,-0.5049,-0.5744,-0.5791,-0.5539,0.0,0.0,-0.6072,-0.6147,-0.5422,0.0,0.0,0.0,0.0,0.0,0.0,0.0,0.0,0.0,0.0,0.0,0.0,0.0,0.0,0.0,0.0,0.0,0.0,0.0,0.0,0.0,0.0,0.0,0.0,0.0,0.0,0.0,0.0,0.0,0.0,0.0,0.0,0.0,0.0,0.0,0.0,0.0,0.0,0.0,0.0,0.0,0.0,0.0,0.0,0.0,0.0,0.0,0.0,0.0,0.0,0.0,0.0,0.0,0.0,0.0,-1.0337,-1.1251,-1.3063,-1.4253,-1.4775,-1.4988,-1.4427,-1.3145,-1.2669,-1.1448,0.0,0.0,0.0,0.0,0.0,0.0,0.0,0.0,0.0,0.0,0.0,0.0,0.0,0.0,0.0,0.0,0.0,0.0,0.0,0.0,0.0,0.0,0.0,0.0,0.0,0.0,0.0,0.0,0.0,0.0,0.0,0.0,0.0,0.0,0.0,0.0,0.0,0.0,0.0,0.0,0.0,0.0,-0.5968,-0.5927,0.0,0.0,0.0,-0.6831,-0.6328,0.0,0.0,0.0,0.0,0.0,0.0,0.0,0.0,0.0,0.0,0.0,0.0,0.0,0.0,0.0,0.0,0.0,0.0,0.0,0.0,0.0,0.0,0.0,0.0,0.0,0.0,0.0,0.0,0.0,0.0,0.0,0.0,0.0,0.0,0.0,0.0,0.0,0.0,0.0,0.0,0.0,0.0,0.0,0.0,0.0,0.0,0.0,0.0,0.0,0.0,0.0,0.0,0.0,0.0,0.0,0.0,0.0,-1.1854,-1.3691,-1.49,-1.5433,-1.5314,-1.4602,-1.3265,-1.2621,0.0,0.0,0.0,0.0,0.0,0.0,0.0,0.0,0.0,0.0,0.0,0.0,0.0,0.0,0.0,0.0,0.0,0.0,0.0,0.0,0.0,0.0,0.0,0.0,0.0,0.0,0.0,-0.2066,0.0,0.0,0.0,0.0,0.0,0.0,0.0,0.0,0.0,0.0,0.0,0.0,0.0,0.0,-0.6791,-0.6481,-0.6461,-0.6537,0.0,0.0,-0.7882,-0.6847,-0.6451,-0.6174,0.0,0.0,0.0,0.0,0.0,0.0,0.0,0.0,0.0,0.0,0.0,0.0,0.0,0.0,0.0,0.0,0.0,0.0,0.0,0.0,0.0,0.0,0.0,0.0,0.0,0.0,0.0,0.0,0.0,0.0,0.0,0.0,0.0,0.0,0.0,0.0,0.0,0.0,0.0,0.0,0.0,0.0,0.0,0.0,0.0,0.0,0.0,0.0,0.0,0.0,0.0,0.0,0.0,0.0,-1.1293,-1.1936,-1.3805,-1.5056,-1.5551,-1.5448,-1.4717,-1.336,-1.3128,-1.1846,0.0,0.0,0.0,0.0,0.0,0.0,0.0,0.0,0.0,0.0,0.0,0.0,0.0,0.0,0.0,0.0,0.0,0.0,0.0,0.0,0.0,0.0,0.0,0.0,0.0,0.0,0.0,0.0,0.0,0.0,0.0,0.0,0.0,0.0,0.0,0.0,0.0,0.0,0.0,0.0,0.0,-0.7093,-0.7624,-0.7737,-0.8118,0.0,-0.9316,-0.9018,-0.796,-0.6931,-0.6254,-0.6113,0.0,0.0,0.0,0.0,0.0,0.0,0.0,0.0,0.0,0.0,0.0,0.0,0.0,0.0,0.0,0.0,0.0,0.0,0.0,0.0,0.0,0.0,0.0,0.0,0.0,0.0,0.0,0.0,0.0,0.0,0.0,0.0,0.0,0.0,0.0,0.0,0.0,0.0,0.0,0.0,0.0,0.0,0.0,0.0,0.0,0.0,0.0,0.0,0.0,0.0,0.0,0.0,0.0,-1.204,-1.2702,-1.4653,-1.5754,-1.5897,-1.5769,-1.5223,-1.4182,-1.3559,-1.2207,0.0,0.0,0.0,0.0,0.0,0.0,0.0,0.0,0.0,0.0,0.0,0.0,0.0,0.0,0.0,0.0,0.0,0.0,0.0,0.0,0.0,0.0,0.0,0.0,0.0,0.0,0.0,0.0,-0.2575,-0.2234,-0.2047,0.0,0.0,0.0,0.0,0.0,0.0,0.0,0.0,0.0,0.0,-0.7565,-0.7821,-0.8454,0.0,0.0,-0.9497,-0.9126,-0.8069,-0.7551,-0.7031,-0.6343,-0.6263,0.0,0.0,0.0,0.0,0.0,0.0,0.0,0.0,0.0,0.0,0.0,0.0,0.0,0.0,0.0,0.0,0.0,0.0,0.0,0.0,0.0,0.0,0.0,0.0,0.0,0.0,0.0,0.0,0.0,0.0,0.0,0.0,0.0,0.0,0.0,0.0,0.0,0.0,0.0,0.0,0.0,0.0,0.0,0.0,0.0,0.0,0.0,0.0,0.0,0.0,0.0,0.0,-1.2534,-1.3186,-1.5178,-1.618,-1.6137,-1.5983,-1.5554,-1.4769,-1.3849,-1.253,0.0,0.0,0.0,0.0,0.0,0.0,0.0,0.0,0.0,0.0,0.0,0.0,0.0,0.0,0.0,0.0,0.0,0.0,0.0,0.0,0.0,0.0,0.0,0.0,0.0,0.0,0.0,0.0,-0.2247,-0.2172,-0.2534,0.0,0.0,0.0,0.0,0.0,0.0,0.0,0.0,0.0,0.0,-0.8192,-0.7948,-0.8802,-0.9726,-1.0351,-0.9879,-0.9063,-0.8056,-0.7911,-0.7539,-0.6472,0.0,0.0,0.0,0.0,0.0,0.0,0.0,0.0,0.0,0.0,0.0,0.0,0.0,0.0,0.0,0.0,0.0,0.0,0.0,0.0,0.0,0.0,0.0,0.0,0.0,0.0,0.0,-0.9173,0.0,0.0,-0.8566,0.0,0.0,0.0,0.0,0.0,0.0,0.0,0.0,0.0,0.0,0.0,0.0,0.0,0.0,0.0,0.0,0.0,0.0,0.0,0.0,0.0,0.0,-1.2549,-1.3205,-1.5193,-1.6208,-1.6194,-1.6067,-1.5649,-1.4945,-1.4009,-1.2873,-1.1474,0.0,0.0,0.0,0.0,0.0,0.0,0.0,0.0,0.0,0.0,0.0,0.0,0.0,0.0,0.0,0.0,0.0,0.0,0.0,0.0,0.0,0.0,0.0,0.0,0.0,0.0,-0.313,-0.2887,-0.2838,0.0,0.0,0.0,0.0,0.0,0.0,0.0,0.0,0.0,-0.7226,-0.8418,-0.9016,-0.8081,-0.8838,-1.0195,-1.2215,-1.0707,-0.8986,-0.8045,-0.7911,-0.755,0.0,0.0,0.0,0.0,0.0,0.0,0.0,0.0,0.0,0.0,0.0,0.0,0.0,0.0,0.0,0.0,0.0,0.0,0.0,0.0,0.0,0.0,0.0,0.0,0.0,0.0,0.0,-1.1215,-1.1206,0.0,0.0,0.0,0.0,0.0,0.0,0.0,0.0,0.0,0.0,0.0,-1.5522,-1.5378,0.0,0.0,0.0,0.0,0.0,0.0,0.0,0.0,0.0,0.0,0.0,0.0,-1.2739,-1.3871,-1.5393,-1.6208,-1.6208,-1.6151,-1.6002,-1.5718,-1.4877,-1.3305,-1.0914,0.0,0.0,0.0,0.0,0.0,0.0,0.0,0.0,0.0,0.0,0.0,0.0,0.0,0.0,0.0,0.0,0.0,0.0,0.0,0.0,0.0,0.0,0.0,0.0,0.0,-0.2689,0.0,0.0,0.0,0.0,0.0,0.0,0.0,0.0,0.0,0.0,-0.8009,-0.7959,-0.9255,-0.9107,-0.9129,-0.9857,-0.9689,-0.9817,0.0,0.0,0.0,0.0,0.0,0.0,0.0,0.0,0.0,0.0,0.0,0.0,0.0,0.0,-0.8275,-0.8083,-0.7946,-0.7759,-0.741,0.0,0.0,0.0,0.0,0.0,0.0,0.0,0.0,0.0,0.0,0.0,0.0,0.0,0.0,-1.3348,-1.3257,-1.2482,0.0,0.0,0.0,0.0,0.0,0.0,0.0,0.0,-1.7159,-1.7748,-1.7839,-1.7447,-1.7311,-1.7415,-1.7178,-1.6615,0.0,0.0,0.0,0.0,0.0,0.0,0.0,0.0,-1.3205,-1.4529,-1.5639,-1.6208,-1.6208,-1.6208,-1.618,-1.6108,-1.5103,-1.3403,-1.0956,-0.9391,-0.8318,0.0,0.0,0.0,0.0,0.0,0.0,0.0,0.0,0.0,0.0,0.0,0.0,0.0,0.0,0.0,0.0,0.0,0.0,0.0,0.0,0.0,0.0,0.0,-0.3641,0.0,0.0,0.0,0.0,0.0,0.0,0.0,0.0,0.0,-0.939,-0.8806,-0.867,-0.9915,-0.9788,-0.9858,-1.0531,0.0,0.0,0.0,0.0,0.0,0.0,0.0,-0.7581,-0.696,-0.7696,-0.8281,-0.8098,-0.7572,-0.7766,-0.9466,0.0,0.0,-1.0607,-0.9977,-0.9204,-0.8694,-0.9371,-0.974,-0.8911,-0.9212,-0.9746,0.0,0.0,0.0,0.0,-1.5516,0.0,0.0,0.0,-1.5737,-1.5513,0.0,-1.4128,0.0,0.0,0.0,0.0,-1.3834,-1.5471,0.0,0.0,-1.9156,-1.9976,-2.0014,-2.0076,-2.0213,-2.025,-1.9539,-1.8807,-1.796,-1.5724,0.0,0.0,0.0,0.0,0.0,0.0,-1.3883,-1.5162,-1.5841,-1.6208,-1.6208,-1.6208,-1.6208,-1.6163,-1.4719,-1.3229,-1.1744,-1.0845,-0.9801,-0.852,-0.7695,0.0,0.0,0.0,0.0,0.0,0.0,0.0,0.0,0.0,0.0,0.0,0.0,0.0,0.0,0.0,0.0,0.0,0.0,0.0,0.0,-0.6914,0.0,0.0,0.0,0.0,0.0,0.0,0.0,0.0,0.0,-0.8644,-0.8748,-0.9358,-0.9705,-0.9263,0.0,0.0,0.0,0.0,-1.0312,-1.0287,-0.9969,-0.9619,-0.9329,-0.8378,-0.771,-0.7767,0.0,0.0,-0.8553,-0.8551,-0.8921,-1.0092,-1.0287,-1.1003,-1.3131,-1.1442,-1.0101,-1.0893,-1.0497,-1.0086,-1.0362,-1.0418,-1.0852,-1.9839,0.0,0.0,0.0,0.0,-1.8547,-1.887,-1.9116,-1.8996,-1.895,-1.8857,-1.7538,0.0,0.0,0.0,0.0,0.0,0.0,-1.8877,-1.9774,-2.0491,-2.0895,-2.0999,-2.0504,-2.0291,-2.0364,-2.0164,-1.9893,-1.9508,-1.778,-1.5856,-1.38,0.0,0.0,0.0,0.0,-1.4347,-1.5191,-1.587,-1.6208,-1.6208,-1.6208,-1.6208,-1.6208,-1.4796,-1.3785,-1.3244,-1.1548,-1.033,-0.9691,-0.8205,0.0,0.0,0.0,0.0,0.0,0.0,0.0,0.0,0.0,0.0,0.0,0.0,0.0,0.0,0.0,0.0,0.0,0.0,0.0,-0.6558,-0.6719,-0.6461,0.0,0.0,0.0,0.0,0.0,0.0,0.0,0.0,0.0,-0.9752,-0.9678,-0.9849,0.0,0.0,-1.0534,-1.0212,-1.0249,-1.0312,-1.0312,-1.0199,0.0,-0.9511,-0.9091,-0.8917,-0.9231,-0.9206,-0.9291,-0.9716,-0.9781,-0.991,-1.0248,-1.0312,-1.0547,-1.116,-1.2101,-1.2283,-1.1931,-1.1659,-1.133,-1.0744,-1.0657,-1.0902,-2.3348,-2.1871,-2.0431,-1.9916,-2.0102,-2.0381,-2.0718,-2.1088,-2.1124,-2.1142,-2.1098,-2.0017,-1.9554,-1.9492,-1.8424,0.0,0.0,0.0,-2.0973,-2.1711,-2.2375,-2.2723,-2.2784,-2.2043,-2.1704,-2.1721,-2.1135,-2.0781,-2.0665,-1.9386,-1.798,-1.637,0.0,-1.3823,-1.4327,-1.4557,-1.5005,-1.5631,-1.6022,-1.6208,-1.6208,-1.6208,-1.6208,-1.6163,-1.486,-1.4081,-1.3912,-1.213,-1.0877,-1.0324,-0.8945,-0.7845,0.0,0.0,0.0,0.0,0.0,0.0,0.0,0.0,0.0,0.0,0.0,-0.3685,-0.4435,0.0,0.0,0.0,-0.6091,-0.6693,-0.6698,-0.7069,0.0,0.0,0.0,0.0,0.0,0.0,0.0,-1.2233,-1.1381,-1.0716,-1.0858,-1.0612,-1.0599,-1.1135,-1.069,-1.0482,-1.0912,0.0,-1.0312,-1.0312,-1.0312,-1.0186,-0.9879,-0.9697,-0.9736,-1.002,-0.9904,-0.9859,-1.0221,-1.0312,-1.0312,-1.0312,-1.0312,-1.0312,-1.0312,-1.1487,-1.235,-1.1878,-1.1622,-1.1312,-1.0814,-1.0822,-1.0865,-2.6419,-2.6032,-2.3709,-2.2319,-2.1726,-2.2293,-2.2551,-2.2532,-2.2532,-2.2501,-2.2394,-2.1766,-2.1427,-2.1353,-2.0751,0.0,-2.1049,-2.2102,-2.283,-2.3313,-2.44,-2.4932,-2.4956,-2.4232,-2.3853,-2.3753,-2.2349,-2.161,-2.1464,-2.0611,-2.0128,-1.9916,-1.6938,-1.559,-1.5959,-1.5656,-1.5773,-1.6297,-1.6219,-1.6208,-1.6208,-1.6208,-1.6208,-1.6193,-1.4901,-1.4142,-1.3998,-1.2599,-1.1436,-1.0625,-0.9818,-0.8767,-0.7431,0.0,0.0,0.0,0.0,0.0,0.0,0.0,0.0,0.0,0.0,0.0,0.0,0.0,0.0,-0.6698,-0.7659,0.0,-0.699,-0.7812,0.0,0.0,0.0,-0.6463,-0.5561,-0.9119,-1.129,-1.0392,0.0,0.0,-1.1951,-1.1874,-1.173,-1.1368,-1.0808,-1.0821,-1.1849,-1.1225,-1.0521,-1.0365,-1.0391,-1.0404,-1.0275,-1.0161,-1.0187,-1.0392,-1.0352,-1.0286,-1.0287,-1.0312,-1.0312,-1.0312,-1.0312,-1.0312,-1.0312,-1.0404,-1.0534,-1.1266,-1.0834,-1.0457,-1.0765,-1.0866,-1.0684,-2.7633,-2.7336,-2.6655,-2.569,-2.4667,-2.472,-2.4683,-2.4594,-2.4594,-2.4302,-2.3779,-2.3137,-2.2605,-2.2205,-2.2092,-2.2265,-2.2669,-2.3225,-2.367,-2.399,-2.4607,-2.4903,-2.4901,-2.4787,-2.4388,-2.3802,-2.3426,-2.2921,-2.2304,-2.1486,-2.105,-2.0904,-1.9529,-1.8431,-1.77,-1.6831,-1.6423,-1.6461,-1.6289,-1.6208,-1.6208,-1.6208,-1.6208,-1.6208,-1.4901,-1.4194,-1.4126,-1.2738,-1.1762,-1.1336,-1.0614,-0.9711,-0.8638,-0.7955,0.0,0.0,0.0,0.0,0.0,0.0,0.0,0.0,0.0,-0.3772,-0.4649,0.0,-0.5759,0.0,-0.6952,-0.7532,-0.8574,-0.85,0.0,0.0,-0.8068,-0.7899,-0.7682,-0.9246,-1.0247,-1.0033,-1.0874,-1.1839,-1.2738,-1.2596,-1.2385,-1.2265,-1.1868,-1.1707,-1.1967,-1.2609,-1.2311,-1.0808,-1.1082,-1.1277,-1.0521,-1.0275,-1.047,-1.1109,-1.0704,-1.0325,-1.0312,-1.0312,-1.0312,-1.0312,-1.0312,-1.0312,-1.0312,-1.0312,-1.0365,-1.0547,-1.0417,-1.0288,-1.0328,-1.0315,-1.0225,-2.9184,-2.8981,-2.8832,-2.8275,-2.7471,-2.6533,-2.5982,-2.5795,-2.578,-2.558,-2.521,-2.4862,-2.4575,-2.4367,-2.4531,-2.4814,-2.5215,-2.5293,-2.5477,-2.5765,-2.5771,-2.5808,-2.5805,-2.5543,-2.5178,-2.4743,-2.4104,-2.354,-2.3127,-2.2344,-2.1957,-2.1888,-2.1101,-2.0353,-1.9645,-1.8473,-1.761,-1.7146,-1.6536,-1.6234,-1.6208,-1.6208,-1.6208,-1.6163,-1.4901,-1.4194,-1.419,-1.2783,-1.1902,-1.1688,-1.0963,-1.024,-0.9553,-0.8608,-0.7613,0.0,0.0,0.0,0.0,0.0,0.0,0.0,0.0,0.0,0.0,0.0,-0.7426,-0.8062,-0.8125,-0.8504,-0.9475,-0.9476,-0.9451,-0.9564,-0.9552,-0.9425,-0.9109,-0.9566,-1.0269,-1.1259,-1.1797,-1.2364,-1.3102,-1.3002,-1.29,-1.2949,-1.2701,-1.2605,-1.2813,-1.3396,-1.3304,-1.2128,-1.2387,-1.24,-1.1251,-1.1069,-1.1108,-1.124,-1.0782,-1.0312,-1.0312,-1.0312,-1.0312,-1.0312,-1.0312,-1.0312,-1.0312,-1.0312,-1.0312,-1.03,-1.0262,-1.0186,-1.0122,-1.0097,-1.0072,-3.0692,-3.0572,-3.038,-3.0135,-2.9778,-2.8062,-2.7083,-2.6615,-2.6631,-2.6569,-2.6492,-2.6507,-2.661,-2.6782,-2.7063,-2.7405,-2.7745,-2.7512,-2.7498,-2.7667,-2.7233,-2.7027,-2.6957,-2.6359,-2.6031,-2.592,-2.453,-2.3835,-2.377,-2.3064,-2.2712,-2.2681,-2.2061,-2.1683,-2.1503,-2.033,-1.9102,-1.7909,-1.6939,-1.638,-1.6208,-1.6208,-1.6208,-1.6147,-1.4886,-1.4194,-1.4163,-1.2783,-1.1959,-1.1811,-1.1142,-1.06,-1.0254,-0.9212,-0.8479,0.0,-0.7237,0.0,0.0,0.0,0.0,0.0,0.0,0.0,0.0,-0.8961,-0.978,-0.9793,-0.9881,-0.9982,-1.0058,-1.0563,-1.094,-1.1105,-1.1102,-1.0823,-1.0194,-1.0232,-1.1102,-1.3108,-1.3301,-1.3284,-1.3306,-1.3284,-1.3318,-1.3404,-1.3293,-1.3272,-1.3598,-1.3728,-1.3739,-1.3791,-1.3791,-1.3291,-1.2464,-1.2229,-1.2033,-1.1501,-1.0991,-1.0482,-1.0313,-1.0312,-1.0312,-1.0312,-1.0312,-1.0312,-1.0312,-1.0312,-1.0287,-1.0287,-1.0186,-1.011,-1.0097,-1.0097,-1.0046,-3.1092,-3.1035,-3.0915,-3.0658,-3.0318,-2.985,-2.8936,-2.7794,-2.7771,-2.7479,-2.6981,-2.6981,-2.7073,-2.7274,-2.7472,-2.7757,-2.8112,-2.8341,-2.8163,-2.7718,-2.7759,-2.747,-2.6943,-2.6822,-2.6495,-2.5895,-2.5082,-2.4353,-2.3701,-2.3034,-2.2712,-2.2712,-2.2561,-2.247,-2.236,0.0,0.0,0.0,-1.7492,-1.6971,-1.6253,-1.6208,-1.6208,-1.6177,-1.4898,0.0,-1.4072,-1.2794,-1.2023,-1.188,-1.1685,0.0,0.0,0.0,0.0,0.0,0.0,0.0,0.0,0.0,0.0,0.0,-0.8911,-0.8273,-0.8584,-0.8873,-0.91,-0.9322,-0.9829,-1.0354,-1.0817,-1.1457,-1.1851,-1.189,-1.164,-1.1427,-1.1314,-1.204,-1.3004,-1.3946,-1.3858,-1.3708,-1.3765,-1.3711,-1.3704,-1.3721,-1.3607,-1.3476,-1.3335,-1.3624,-1.3791,-1.3791,-1.3791,-1.3726,-1.3487,-1.3409,-1.3082,-1.2494,-1.1996,-1.1329,-1.0547,-1.0352,-1.0325,-1.0312,-1.0312,-1.0312,-1.0312,-1.0312,-1.0287,-1.0224,-1.0148,-1.0097,-1.0097,-1.0059,-0.9995,-3.119,-3.119,-3.1072,-3.0878,0.0,-3.0555,-3.0028,-2.927,-2.9036,-2.8772,-2.842,-2.8458,-2.8549,-2.8799,-2.8997,-2.9242,-2.9536,-2.9439,-2.9016,-2.8346,-2.8028,-2.7487,-2.6775,-2.6842,-2.6688,-2.6345,-2.5268,-2.4594,-2.4236,-2.3182,-2.2672,-2.2712,-2.2712,-2.2672,-2.2646,-2.2515,-2.1351,-1.9095,-1.8193,-1.7448,-1.6856,-1.6461,-1.6234,-1.6177,-1.5224,0.0,0.0,0.0,0.0,0.0,0.0,0.0,0.0,0.0,0.0,-1.0029,-0.9672,-0.9638,-0.9903,-0.9902,-1.0235,-1.1012,-1.0839,-1.054,-1.0249,-1.0208,-1.0399,-1.0864,-1.1065,-1.141,-1.2074,-1.2508,-1.2861,-1.314,-1.2883,-1.2755,-1.2936,-1.3396,-1.4013,-1.4606,-1.4495,-1.4287,-1.4259,-1.4141,-1.4056,-1.404,-1.399,-1.3828,-1.3573,-1.3657,-1.3791,-1.3791,-1.3791,-1.3791,-1.3791,-1.3791,-1.3552,-1.2873,-1.2393,-1.1868,-1.1251,-1.1133,-1.099,-1.0482,-1.0312,-1.0338,-1.0399,-1.0449,-1.0461,-1.0374,-1.0337,-1.0273,-1.0249,-1.011,-0.9983,-3.1512,-3.1376,-3.1277,-3.1113,-3.0952,-3.0831,-3.0733,-3.0609,-3.0135,0.0,0.0,-2.9941,-3.0049,-3.0295,-3.0472,-3.0716,-3.0882,-3.0487,-2.9837,-2.8993,-2.8315,-2.7554,-2.6708,-2.6708,-2.6775,-2.6791,-2.5314,-2.4677,-2.4758,-2.3316,-2.2649,-2.2672,-2.2716,-2.2712,-2.2699,-2.2552,-2.193,-2.0724,-1.9177,-1.8095,-1.7539,-1.6877,-1.6411,-1.6208,-1.5547,-1.5154,-1.5073,-1.4394,-1.397,-1.3873,-1.3259,-1.2873,-1.2781,-1.177,-1.1377,-1.1793,-1.0908,-1.0538,-1.1008,-1.145,-1.1707,-1.1707,-1.2383,-1.2583,-1.202,-1.1807,-1.1946,-1.2564,-1.2462,-1.26,-1.3233,-1.3532,-1.3838,-1.4326,-1.4154,-1.4075,-1.4335,-1.4461,-1.4699,-1.5177,-1.5025,-1.4825,-1.4641,-1.4495,-1.4383,-1.4383,-1.4367,-1.4284,-1.3957,-1.3838,-1.3775,-1.3738,-1.3741,-1.3804,-1.3788,-1.3788,-1.3579,-1.3144,-1.278,-1.2496,-1.2382,-1.2382,-1.1873,-1.0673,-1.0425,-1.0449,-1.0571,-1.0767,-1.0753,-1.0583,-1.0584,-1.0572,-1.0448,-1.0274,-1.0097,-3.2713,-3.2141,-3.2121,-3.1745,-3.1168,-3.1131,-3.1114,-3.1072,-3.0593,-3.0405,-3.0422,-3.0405,-3.0506,-3.0651,-3.079,-3.0912,-3.1012,-3.103,-3.0294,-2.901,-2.8874,-2.8079,-2.6725,-2.6708,-2.6708,-2.6623,-2.5282,-2.4601,-2.4477,-2.326,-2.2623,-2.2619,-2.2655,-2.2712,-2.2699,-2.2569,-2.2351,-2.202,-2.0829,-1.9384,-1.7721,-1.7513,-1.7032,-1.6222,-1.5562,-1.5141,-1.5006,-1.4384,-1.3945,-1.3822,-1.3707,-1.3635,-1.362,-1.3414,-1.3362,-1.3386,-1.3223,-1.3151,-1.3151,-1.3241,-1.3273,-1.3291,-1.35,-1.3594,-1.3464,-1.2581,-1.2134,-1.2359,-1.295,-1.3385,-1.3643,-1.4208,-1.4606,-1.4718,-1.4669,-1.4683,-1.4746,-1.4963,-1.5147,-1.5253,-1.5268,-1.5116,-1.4825,-1.4761,-1.4746,-1.473,-1.473,-1.4606,-1.4287,-1.3987,-1.3741,-1.3607,-1.3691,-1.3725,-1.3711,-1.3741,-1.3693,-1.3557,-1.3598,-1.3643,-1.3597,-1.3724,-1.3232,-1.1428,-1.1099,-1.0955,-1.1079,-1.1213,-1.1172,-1.0928,-1.0892,-1.0849,-1.0706,-1.062,-1.046,-3.2966,-3.231,-3.2293,-3.1887,-3.119,-3.119,-3.119,-3.119,-3.0992,-3.0875,-3.0892,-3.0875,-3.0915,-3.0955,-3.1032,-3.1092,-3.1112,-3.1171,-3.0415,-2.9044,-2.8993,-2.8197,-2.6793,-2.6708,-2.6708,-2.659,-2.5234,-2.4571,-2.4465,-2.3178,-2.2528,-2.2609,-2.2672,-2.2496,-2.2095,-2.239,-2.2296,-2.1708,-2.1055,-2.001,-1.8563,-1.798,-1.7279,-1.6332,-1.5951,-1.5703,-1.5554,-1.5238,-1.5032,-1.4886,-1.4528,-1.4348,-1.4333,-1.4004,-1.3772,-1.3706,-1.3706,-1.3668,-1.3616,-1.3875,-1.4187,-1.4483,-1.4471,-1.4503,-1.4608,-1.38,-1.3352,-1.3491,-1.3932,-1.4266,-1.4403,-1.4823,-1.5071,-1.5071,-1.5071,-1.5071,-1.5086,-1.5192,-1.5237,-1.5086,-1.5178,-1.5222,-1.504,-1.504,-1.5071,-1.5071,-1.5071,-1.4965,-1.4702,-1.4335,-1.3987,-1.3725,-1.3738,-1.3808,-1.3815,-1.3808,-1.3795,-1.3802,-1.4046,-1.4176,-1.4192,-1.4417,-1.4319,-1.3819,-1.3365,-1.2974,-1.2537,-1.1843,-1.1574,-1.1561,-1.1212,-1.1047,-1.0932,-1.092,-1.0729,-3.3355,-3.2564,-3.2564,-3.2039,-3.1207,-3.119,-3.119,-3.1173,-3.1021,-3.0954,-3.097,-3.1123,-3.119,-3.119,-3.119,-3.119,-3.119,-3.119,-3.0412,-2.9094,-2.8993,-2.8197,-2.681,-2.6708,-2.6708,-2.6556,-2.5371,-2.4692,-2.4435,-2.326,-2.2613,-2.2626,-2.2632,-2.234,-2.1769,-2.2291,-2.2194,-2.1515,-2.1256,-2.0527,-1.9328,-1.855,-1.7613,-1.6526,-1.6367,-1.6217,-1.601,-1.5982,-1.5941,-1.5783,-1.5319,-1.502,-1.5005,-1.4543,-1.4191,-1.4111,-1.4112,-1.4058,-1.4022,-1.4351,-1.4805,-1.5255,-1.5149,-1.5133,-1.5238,-1.4825,-1.4529,-1.461,-1.4707,-1.4875,-1.4998,-1.5178,-1.5283,-1.5283,-1.5283,-1.5268,-1.5298,-1.5223,-1.5117,-1.4903,-1.5086,-1.5208,-1.5223,-1.5253,-1.5356,-1.5471,-1.5385,-1.5238,-1.5058,-1.4733,-1.4445,-1.4203,-1.4036,-1.3974,-1.4062,-1.4075,-1.4075,-1.4114,-1.4321,-1.4415,-1.4449,-1.4719,-1.5195,-1.5402,-1.536,-1.4761,-1.3905,-1.3147,-1.2578,-1.2473,-1.2078,-1.167,-1.1476,-1.1303,-1.1052,-3.459,-3.3389,-3.3305,-3.2493,-3.1275,-3.1207,-3.1207,-3.1106,-3.0514,-3.0209,-3.0311,-3.0903,-3.1157,-3.119,-3.1173,-3.119,-3.119,-3.119,-3.0415,-2.9094,-2.8993,-2.8197,-2.6809,-2.6708,-2.6708,-2.659,-2.5845,-2.5118,-2.4557,-2.3752,-2.3105,-2.2651,-2.2555,-2.2504,-2.2493,-2.2422,-2.2354,-2.2289,-2.2139,-2.1234,-1.9664,-1.9364,-1.8392,-1.6644,-1.653,-1.6326,-1.601,-1.5982,-1.5941,-1.5827,-1.5739,-1.5709,-1.5679,-1.5619,-1.5518,-1.5315,-1.5315,-1.5286,-1.5139,-1.5197,-1.5226,-1.5283,-1.5268,-1.5268,-1.5283,-1.5223,-1.5101,-1.4934,-1.4935,-1.5057,-1.5178,-1.5253,-1.5283,-1.5283,-1.5283,-1.5283,-1.5253,-1.5025,-1.4872,-1.4982,-1.5028,-1.5103,-1.5253,-1.5341,-1.556,-1.5966,-1.5747,-1.5515,-1.5469,-1.5538,-1.5272,-1.5065,-1.4683,-1.4316,-1.4332,-1.4527,-1.4545,-1.4422,-1.4576,-1.4653,-1.4655,-1.4918,-1.5388,-1.5654,-1.5522,-1.5183,-1.5124,-1.4921,-1.4427,-1.3415,-1.3056,-1.2923,-1.239,-1.1826,-1.1393,-3.4991,-3.4066,-3.4032,-3.3203,-3.1955,-3.1853,-3.1616,-3.1173,-3.0886,-3.0514,-3.0159,-3.0429,-3.0548,-3.0565,-3.0987,-3.119,-3.119,-3.119,-3.0415,-2.9077,-2.8993,-2.818,-2.681,-2.6708,-2.6708,-2.664,-2.5947,-2.5456,-2.5015,-2.4043,-2.3147,-2.2556,-2.2487,-2.2487,-2.2474,-2.2419,-2.2377,-2.2352,-2.2282,-2.1689,-2.0616,-1.9823,-1.8806,-1.749,-1.6855,-1.6396,-1.6038,-1.5982,-1.5926,-1.5828,-1.5814,-1.5814,-1.5814,-1.5814,-1.5712,-1.5522,-1.5448,-1.5358,-1.5283,-1.5283,-1.5283,-1.5283,-1.5283,-1.5283,-1.5283,-1.5283,-1.5253,-1.5162,-1.5178,-1.5208,-1.5267,-1.5297,-1.5283,-1.5283,-1.5283,-1.5283,-1.5283,-1.5177,-1.5087,-1.5028,-1.5103,-1.5178,-1.5295,-1.5601,-1.5892,-1.6227,-1.624,-1.6356,-1.6445,-1.7055,-1.682,-1.5644,-1.5055,-1.4871,-1.4777,-1.4932,-1.4918,-1.4749,-1.4782,-1.4844,-1.4796,-1.5088,-1.5522,-1.5755,-1.5507,-1.5298,-1.5254,-1.5254,-1.4993,-1.4152,-1.3541,-1.3292,-1.3018,-1.2202,-1.1809,-3.516,-3.4506,-3.4303,-3.3575,-3.2615,-3.2378,-3.2005,-3.1481,-3.1089,-3.0581,-3.0089,-2.9888,-2.9803,-2.9905,-3.0565,-3.0987,-3.1173,-3.119,-3.0514,-2.9364,-2.9111,-2.8282,-2.7063,-2.6759,-2.6708,-2.6623,-2.6184,-2.5812,-2.5473,-2.4164,-2.3209,-2.2762,-2.2552,-2.2419,-2.2405,-2.2377,-2.2352,-2.2327,-2.2313,-2.204,-2.1437,-2.0458,-1.9285,-1.8036,-1.7101,-1.6448,-1.601,-1.5982,-1.5941,-1.5813,-1.5814,-1.5814,-1.5814,-1.5814,-1.5697,-1.5492,-1.5359,-1.5283,-1.5283,-1.5283,-1.5283,-1.5283,-1.5283,-1.5283,-1.5283,-1.5283,-1.5385,-1.5573,-1.5689,-1.5805,-1.5559,-1.5704,-1.582,-1.582,-1.5573,-1.5298,-1.5283,-1.5283,-1.5397,-1.5551,-1.5468,-1.5399,-1.5644,-1.6108,-1.6576,-1.682,-1.7009,-1.7432,-1.7708,-1.8404,-1.8332,-1.6663,-1.64,-1.5974,-1.5332,-1.5162,-1.5162,-1.5071,-1.5027,-1.5042,-1.4965,-1.5299,-1.5477,-1.5551,-1.5388,-1.5313,-1.5283,-1.524,-1.5211,-1.4718,-1.4224,-1.383,-1.3672,-1.2916,-1.2871,-3.516,-3.4455,-3.3761,-3.3491,-3.3322,-3.2632,-3.2276,-3.209,-3.0818,-3.0176,-3.0023,-2.9364,-2.9061,-2.9127,-2.9785,-3.0514,-3.1106,-3.1154,-3.0748,-2.9937,-2.9296,-2.8552,-2.7739,-2.7046,-2.6708,-2.6691,-2.6607,-2.6234,-2.5525,-2.4169,-2.342,-2.3393,-2.2691,-2.2352,-2.238,-2.2338,-2.231,-2.2313,-2.2313,-2.2279,-2.2113,-2.1348,-1.9986,-1.8293,-1.7277,-1.6588,-1.6066,-1.5996,-1.5941,-1.5813,-1.5814,-1.5814,-1.5814,-1.5784,-1.5668,-1.5433,-1.5329,-1.5283,-1.5283,-1.5283,-1.5283,-1.5283,-1.5283,-1.5283,-1.5283,-1.5283,-1.5501,-1.6052,-1.6692,-1.6895,-1.6356,-1.6634,-1.6936,-1.6907,-1.6039,-1.5501,-1.537,-1.5646,-1.5921,-1.6601,-1.6139,-1.5849,-1.6445,-1.6895,-1.7388,-1.7708,-1.7592,-1.7635,-1.8579,-1.9029,-1.8883,-1.8782,-1.8506,-1.8067,-1.5949,-1.5485,-1.5428,-1.5324,-1.5322,-1.5268,-1.5328,-1.5388,-1.5388,-1.5403,-1.5343,-1.5283,-1.5283,-1.5283,-1.5269,-1.5095,-1.5051,-1.479,-1.434,-1.4834,-1.4674,-3.5447,-3.516,-3.4906,-3.4556,-3.4032,-3.3305,-3.275,-3.2226,-3.1241,-3.0531,-3.0023,-2.9313,-2.8938,-2.8866,-2.8647,-2.922,-3.035,-3.0796,-3.0589,-2.983,-2.9127,-2.8387,-2.7596,-2.6926,-2.664,-2.664,-2.6674,-2.6319,-2.5575,-2.4577,-2.3864,-2.3354,-2.268,-2.2324,-2.2324,-2.231,-2.2313,-2.2313,-2.2313,-2.2313,-2.2245,-2.1487,-2.0418,-1.9125,-1.8081,-1.7103,-1.6166,-1.6095,-1.5983,-1.5814,-1.5814,-1.5814,-1.5799,-1.5668,-1.5536,-1.5344,-1.5298,-1.5283,-1.5283,-1.5283,-1.5283,-1.5283,-1.5283,-1.5312,-1.5283,-1.5298,-1.5399,-1.5878,-1.7429,-1.7995,-1.7415,-1.7226,-1.7214,-1.7171,-1.7038,-1.6777,-1.6748,-1.7214,-1.794,-1.8129,-1.733,-1.6777,-1.7226,-1.7647,-1.7925,-1.8158,-1.8303,-1.8608,-1.8912,-1.9116,-1.9116,-1.9116,-1.9087,-1.8825,-1.8082,-1.6721,-1.6082,-1.5821,-1.566,-1.5428,-1.5371,-1.5357,-1.5357,-1.5358,-1.5298,-1.5283,-1.5283,-1.5283,-1.5283,-1.5283,-1.5283,-1.5211,-1.4979,-1.5153,-1.5066,-3.5616,-3.5616,-3.5616,-3.5334,-3.4759,-3.3791,-3.3119,-3.2564,-3.1633,-3.092,-3.0345,-2.9413,-2.8866,-2.8658,-2.7964,-2.8097,-2.9154,-3.0074,-3.0372,-3.0031,-2.9348,-2.8628,-2.7875,-2.7243,-2.6808,-2.664,-2.6657,-2.642,-2.5896,-2.4982,-2.4254,-2.3731,-2.2803,-2.2313,-2.2313,-2.2313,-2.2313,-2.2313,-2.2313,-2.2313,-2.2229,-2.1751,-2.1015,-2.0103,-1.9244,-1.7994,-1.6366,-1.6179,-1.6041,-1.5857,-1.5814,-1.5814,-1.5799,-1.561,-1.5448,-1.5313,-1.5283,-1.5283,-1.5283,-1.5283,-1.5283,-1.5283,-1.5298,-1.5429,-1.5821,-1.5806,-1.585,-1.6458,-1.7763,-1.8792,-1.8357,-1.798,-1.7806,-1.7835,-1.8053,-1.8111,-1.7893,-1.8564,-1.897,-1.8912,-1.8346,-1.7995,-1.8169,-1.839,-1.8477,-1.8491,-1.8854,-1.9087,-1.9116,-1.9116,-1.9116,-1.9116,-1.9116,-1.9101,-1.8651,-1.7722,-1.6781,-1.6401,-1.63,-1.5936,-1.5559,-1.5486,-1.5312,-1.5298,-1.5312,-1.5298,-1.5283,-1.5283,-1.5298,-1.5298,-1.5283,-1.524,-1.5196,-1.524,-1.5153,-3.5616,-3.5616,-3.5616,-3.5566,-3.5312,-3.4061,-3.344,-3.3102,-3.1867,-3.1224,-3.0866,-2.9505,-2.8792,-2.8587,-2.7754,-2.7411,-2.7846,-2.9039,-3.0031,-3.0483,-2.9911,-2.9226,-2.8542,-2.7847,-2.7194,-2.6623,-2.6657,-2.6691,-2.6505,-2.5287,-2.4541,-2.422,-2.3054,-2.2398,-2.2313,-2.2313,-2.2313,-2.2313,-2.2313,-2.2313,-2.2282,-2.2172,-2.1712,-2.0988,-2.0583,-1.9209,-1.6682,-1.6413,-1.6294,-1.5991,-1.5888,-1.5829,-1.58,-1.5624,-1.5433,-1.5328,-1.5312,-1.5312,-1.5312,-1.5385,-1.5515,-1.5515,-1.5399,-1.5966,-1.6777,-1.6779,-1.6837,-1.7444,-1.8386,-1.9058,-1.9029,-1.8941,-1.8898,-1.9072,-1.8941,-1.8927,-1.8985,-1.9058,-1.9116,-1.9087,-1.8927,-1.9058,-1.9072,-1.8999,-1.897,-1.8985,-1.9058,-1.9116,-1.9116,-1.9116,-1.9116,-1.9116,-1.9116,-1.9116,-1.8898,-1.855,-1.7711,-1.7028,-1.6967,-1.6779,-1.6226,-1.5979,-1.5414,-1.5327,-1.5805,-1.5791,-1.5356,-1.5356,-1.5385,-1.5385,-1.5341,-1.5312,-1.5283,-1.5283,-1.5283,-3.5616,-3.5616,-3.5616,-3.5616,-3.5481,-3.4573,-3.3897,-3.3339,-3.2341,-3.1644,-3.0853,-2.9467,-2.8718,-2.8304,-2.7246,-2.6892,-2.7371,-2.7904,-2.8705,-2.9649,-2.9616,-2.9134,-2.8474,-2.7871,-2.7225,-2.669,-2.6623,-2.6623,-2.6472,-2.5646,-2.4986,-2.4374,-2.3543,-2.2801,-2.2347,-2.2313,-2.2313,-2.2313,-2.2313,-2.2313,-2.2313,-2.2282,-2.1913,-2.1225,-2.0957,-2.0064,-1.8586,-1.8072,-1.7681,-1.7319,-1.6819,-1.6323,-1.5874,-1.561,-1.5448,-1.5371,-1.5734,-1.5689,-1.5472,-1.6095,-1.6545,-1.659,-1.6576,-1.6907,-1.7487,-1.7502,-1.7415,-1.7574,-1.8404,-1.9116,-1.9116,-1.9116,-1.9116,-1.9116,-1.9116,-1.9116,-1.9116,-1.9116,-1.9116,-1.9116,-1.9116,-1.9116,-1.9116,-1.9116,-1.9116,-1.9116,-1.9116,-1.9116,-1.9116,-1.9116,-1.9116,-1.9116,-1.9116,-1.9116,-1.897,-1.8883,-1.8448,-1.7838,-1.7693,-1.7606,-1.7084,-1.6648,-1.5979,-1.5849,-1.6284,-1.6313,-1.585,-1.5516,-1.5589,-1.5501,-1.5457,-1.5399,-1.5312,-1.5298,-1.5312,-3.5616,-3.5616,-3.5616,-3.5616,-3.5515,-3.4766,-3.417,-3.3613,-3.263,-3.1857,-3.1106,-2.9453,-2.8624,-2.821,-2.6942,-2.6522,-2.6917,-2.7166,-2.7912,-2.8953,-2.9334,-2.9036,-2.8329,-2.7463,-2.6937,-2.6655,-2.6571,-2.6589,-2.6572,-2.5866,-2.5292,-2.4815,-2.39,-2.319,-2.2685,-2.2415,-2.2313,-2.2313,-2.2313,-2.2313,-2.2313,-2.2313,-2.206,-2.1671,-2.1504,-2.1055,-2.0327,-1.9829,-1.9138,-1.8176,-1.7303,-1.6518,-1.5874,-1.5832,-1.5902,-1.607,-1.63,-1.6358,-1.595,-1.6634,-1.6938,-1.6661,-1.6924,-1.7548,-1.8038,-1.8154,-1.7879,-1.8067,-1.8622,-1.9116,-1.9116,-1.9116,-1.9116,-1.9116,-1.9116,-1.9116,-1.9116,-1.9116,-1.9116,-1.9116,-1.9116,-1.9116,-1.9116,-1.9116,-1.9116,-1.9116,-1.9116,-1.9116,-1.9116,-1.9116,-1.9116,-1.9116,-1.9116,-1.9116,-1.9116,-1.9087,-1.9101,-1.8738,-1.8419,-1.8303,-1.8013,-1.7751,-1.7287,-1.7403,-1.7737,-1.7809,-1.7403,-1.6356,-1.6008,-1.582,-1.5777,-1.5892,-1.5936,-1.5443,-1.5443,-3.5616,-3.5616,-3.5616,-3.5616,-3.5493,-3.4767,-3.4386,-3.4028,-3.276,-3.2064,-3.147,-2.9635,-2.8593,-2.8189,-2.7002,-2.6402,-2.6336,-2.6849,-2.7613,-2.8426,-2.8953,-2.892,-2.8315,-2.7193,-2.665,-2.6554,-2.6503,-2.6503,-2.6521,-2.5933,-2.5545,-2.5357,-2.4308,-2.346,-2.3257,-2.2682,-2.2398,-2.2313,-2.2313,-2.2313,-2.2313,-2.2313,-2.2296,-2.2229,-2.2155,-2.1946,-2.1597,-2.1142,-2.0162,-1.8517,-1.7469,-1.6682,-1.6069,-1.6261,-1.6737,-1.7217,-1.7287,-1.6996,-1.6793,-1.7185,-1.7081,-1.6313,-1.704,-1.778,-1.8724,-1.8579,-1.8462,-1.8825,-1.9043,-1.9116,-1.9116,-1.9116,-1.9116,-1.9116,-1.9116,-1.9116,-1.9116,-1.9116,-1.9116,-1.9116,-1.9116,-1.9116,-1.9116,-1.9116,-1.9116,-1.9116,-1.9116,-1.9116,-1.9116,-1.9116,-1.9116,-1.9116,-1.9116,-1.9116,-1.9116,-1.9116,-1.9116,-1.9029,-1.8778,-1.8738,-1.8695,-1.8506,-1.8404,-1.8593,-1.868,-1.884,-1.8593,-1.7461,-1.6692,-1.6474,-1.6532,-1.6692,-1.6487,-1.6052,-1.5965,-3.5616,-3.5616,-3.5616,-3.5616,-3.5583,-3.5284,-3.4835,-3.4207,-3.3242,-3.2398,-3.1604,-3.0079,-2.8938,-2.8365,-2.7431,-2.6717,-2.6385,-2.6452,-2.723,-2.8293,-2.8558,-2.863,-2.8336,-2.7559,-2.6829,-2.6449,-2.6365,-2.6382,-2.6365,-2.6166,-2.5899,-2.5544,-2.5123,-2.4361,-2.3513,-2.3224,-2.2818,-2.2381,-2.2313,-2.2313,-2.2313,-2.2313,-2.2313,-2.2296,-2.2299,-2.2149,-2.1897,-2.1276,-2.0318,-1.9036,-1.8465,-1.7416,-1.6219,-1.6781,-1.7604,-1.8298,-1.8143,-1.7661,-1.7403,-1.7998,-1.8317,-1.8172,-1.823,-1.8724,-1.9029,-1.897,-1.8941,-1.9116,-1.9116,-1.9116,-1.9116,-1.9116,-1.9116,-1.9116,-1.9116,-1.9116,-1.9116,-1.9116,-1.9116,-1.9116,-1.9116,-1.9174,-1.9232,-1.9217,-1.9217,-1.9217,-1.9203,-1.913,-1.9145,-1.9116,-1.9116,-1.9116,-1.9116,-1.9116,-1.9116,-1.9116,-1.9116,-1.9116,-1.9029,-1.8999,-1.897,-1.8898,-1.8912,-1.9014,-1.8912,-1.9014,-1.8854,-1.8245,-1.7751,-1.726,-1.7098,-1.7142,-1.7113,-1.6849,-1.6864,-3.5616,-3.5616,-3.5616,-3.5616,-3.5577,-3.5475,-3.5115,-3.4538,-3.345,-3.2673,-3.1843,-3.0281,-2.9131,-2.8359,-2.7613,-2.6882,-2.6303,-2.6535,-2.7332,-2.8326,-2.9072,-2.9028,-2.8472,-2.7724,-2.6975,-2.6362,-2.6277,-2.6294,-2.6295,-2.6312,-2.6166,-2.5967,-2.5646,-2.5072,-2.4425,-2.363,-2.3207,-2.2784,-2.2499,-2.2313,-2.2313,-2.2313,-2.2313,-2.2313,-2.2268,-2.2106,-2.172,-2.1135,-2.0408,-1.9651,-1.9025,-1.8283,-1.761,-1.7703,-1.8364,-1.9159,-1.8859,-1.8459,-1.823,-1.8738,-1.9058,-1.9087,-1.9116,-1.9116,-1.9116,-1.9116,-1.9116,-1.9116,-1.9116,-1.9116,-1.9116,-1.9116,-1.9116,-1.9116,-1.9116,-1.9116,-1.9116,-1.9116,-1.9116,-1.9159,-1.9348,-1.9653,-1.9841,-1.9885,-1.9885,-1.9899,-1.9827,-1.9522,-1.9198,-1.9188,-1.9275,-1.9449,-1.9783,-2.003,-1.9798,-1.9682,-1.959,-1.9532,-1.9116,-1.9116,-1.9116,-1.9116,-1.9116,-1.9116,-1.9116,-1.9072,-1.8927,-1.8811,-1.8564,-1.8114,-1.7809,-1.7708,-1.7795,-1.7737,-1.7748,-3.5616,-3.5616,-3.5616,-3.5616,-3.5577,-3.5383,-3.5297,-3.4944,-3.3445,-3.2707,-3.2205,-3.046,-2.9221,-2.8359,-2.7796,-2.7,-2.6252,-2.6866,-2.7746,-2.8724,-2.9549,-2.9722,-2.8469,-2.7867,-2.7088,-2.641,-2.6239,-2.624,-2.6259,-2.6294,-2.6399,-2.6336,-2.5899,-2.5612,-2.5204,-2.4306,-2.3646,-2.3257,-2.2801,-2.2448,-2.2333,-2.2268,-2.2268,-2.2223,-2.2166,-2.1903,-2.1479,-2.1007,-2.0614,-2.0273,-1.9314,-1.9126,-1.9405,-1.8974,-1.8942,-1.9266,-1.9262,-1.9111,-1.9062,-1.9014,-1.9116,-1.9116,-1.9116,-1.9116,-1.9116,-1.9116,-1.9116,-1.9116,-1.9116,-1.9116,-1.9116,-1.9116,-1.9116,-1.9116,-1.9116,-1.9116,-1.913,-1.9217,-1.9261,-1.9174,-1.9711,-2.0436,-2.0944,-2.1061,-2.093,-2.048,-2.0407,-2.0161,-2.0074,-2.0271,-2.0277,-2.0248,-2.0669,-2.117,-2.0785,-2.032,-2.0204,-2.0054,-1.9362,-1.9116,-1.9116,-1.9116,-1.9116,-1.9116,-1.9116,-1.9116,-1.9072,-1.8999,-1.8941,-1.884,-1.8419,-1.8593,-1.8792,-1.8622,-1.8564,-3.5616,-3.5616,-3.5616,-3.5616,-3.5577,-3.5406,-3.5308,-3.5151,-3.3439,-3.2685,-3.2299,-3.0957,-2.9566,-2.8392,-2.8144,-2.7481,-2.6419,-2.705,-2.7945,-2.9234,-3.0042,-2.9665,-2.8661,-2.818,-2.7415,-2.6519,-2.6221,-2.6203,-2.6222,-2.624,-2.6328,-2.6452,-2.6319,-2.6034,-2.5592,-2.5236,-2.4475,-2.3613,-2.3224,-2.2806,-2.2343,-2.2242,-2.218,-2.2089,-2.2017,-2.1781,-2.1417,-2.1007,-2.0661,-2.0258,-1.9818,-1.9513,-1.96,-1.9483,-1.9411,-1.9394,-1.9376,-1.9246,-1.9139,-1.912,-1.9116,-1.9116,-1.9116,-1.9116,-1.9116,-1.9116,-1.9116,-1.9116,-1.9116,-1.9116,-1.9116,-1.9116,-1.9174,-1.9203,-1.9145,-1.9145,-1.929,-2.0016,-2.0175,-1.9769,-2.0204,-2.1235,-2.2193,-2.1475,-2.1264,-2.1075,-2.0959,-2.0814,-2.1017,-2.1315,-2.133,-2.1243,-2.1547,-2.2011,-2.1794,-2.1278,-2.0901,-2.0648,-1.9986,-1.9174,-1.9174,-1.9348,-1.9435,-1.9304,-1.9116,-1.9116,-1.9116,-1.9101,-1.9029,-1.9014,-1.8999,-1.9014,-1.9043,-1.9101,-1.9116,-3.5616,-3.5616,-3.5616,-3.5616,-3.5577,-3.5406,-3.5308,-3.4961,-3.3439,-3.2685,-3.2365,-3.1135,-2.9711,-2.8442,-2.8343,-2.7578,-2.675,-2.7365,-2.8572,-2.9728,-3.0307,-2.9715,-2.8658,-2.8276,-2.7663,-2.6384,-2.6185,-2.6185,-2.6185,-2.6203,-2.6309,-2.6485,-2.6485,-2.637,-2.6066,-2.5812,-2.5204,-2.4475,-2.3697,-2.3144,-2.2784,-2.2365,-2.2109,-2.1986,-2.1913,-2.1736,-2.1355,-2.1006,-2.0661,-2.0304,-1.9937,-1.9723,-1.9723,-1.9654,-1.9632,-1.9578,-1.9501,-1.9409,-1.9321,-1.9213,-1.9157,-1.9101,-1.9101,-1.9116,-1.9116,-1.9116,-1.9116,-1.9116,-1.9116,-1.9116,-1.913,-1.9478,-1.9537,-1.9508,-1.929,-1.9333,-2.0016,-2.1104,-2.1707,-2.1054,-2.1286,-2.191,-2.2185,-2.1939,-2.1982,-2.1997,-2.2026,-2.1895,-2.1968,-2.2243,-2.2381,-2.2424,-2.2584,-2.2728,-2.2671,-2.2272,-2.1634,-2.1293,-2.0785,-1.9885,-1.9304,-1.958,-1.987,-1.974,-1.9624,-1.9145,-1.9116,-1.9116,-1.9145,-1.9116,-1.9101,-1.9116,-1.9145,-1.9203,-1.9174,-3.5616,-3.5616,-3.5616,-3.5616,-3.5577,-3.5389,-3.5308,-3.505,-3.3439,-3.2685,-3.2348,-3.1073,-2.9533,-2.8591,-2.8227,-2.7462,-2.7197,-2.7711,-2.9036,-3.0257,-3.0208,-2.9516,-2.8608,-2.8127,-2.7514,-2.6285,-2.6185,-2.6185,-2.6185,-2.6203,-2.6292,-2.6416,-2.6468,-2.6453,-2.6438,-2.61,-2.5611,-2.5222,-2.4411,-2.3587,-2.3224,-2.2673,-2.2314,-2.1913,-2.1884,-2.1691,-2.1324,-2.099,-2.0628,-2.0304,-1.9904,-1.9744,-1.9723,-1.9723,-1.9723,-1.969,-1.9614,-1.9538,-1.9465,-1.9358,-1.9246,-1.9139,-1.9101,-1.9101,-1.9116,-1.9116,-1.9116,-1.9116,-1.9116,-1.9116,-1.9145,-1.9638,-1.9986,-2.0016,-1.9609,-1.9957,-2.0901,-2.2098,-2.2555,-2.2627,-2.2229,-2.2432,-2.2656,-2.2613,-2.2772,-2.2888,-2.2888,-2.2888,-2.2888,-2.2888,-2.2888,-2.2888,-2.2888,-2.2888,-2.2844,-2.2772,-2.2214,-2.1786,-2.138,-2.0712,-1.9943,-2.0576,-2.0938,-2.0431,-2.0155,-1.9894,-1.9508,-1.929,-1.929,-1.9232,-1.942,-1.9653,-1.9566,-1.9362,-1.9319,-3.5616,-3.5616,-3.5616,-3.5616,-3.5577,-3.5406,-3.5308,-3.5017,-3.3461,-3.2702,-3.2387,-3.0526,-2.9201,-2.8392,-2.7713,-2.7613,-2.7879,-2.8359,-2.9118,-3.0125,-2.9926,-2.9135,-2.8376,-2.7812,-2.7066,-2.6435,-2.6185,-2.6185,-2.6185,-2.6203,-2.6258,-2.6329,-2.6347,-2.6417,-2.6503,-2.6352,-2.6034,-2.5697,-2.5124,-2.4436,-2.3617,-2.3051,-2.2523,-2.194,-2.1842,-2.1631,-2.1324,-2.0974,-2.0628,-2.0321,-1.9922,-1.9744,-1.9723,-1.9723,-1.9723,-1.969,-1.965,-1.9593,-1.9574,-1.9413,-1.9321,-1.9246,-1.9249,-1.9134,-1.9116,-1.9145,-1.9236,-1.912,-1.912,-1.9101,-1.913,-1.9822,-2.0093,-2.0175,-2.0553,-2.0785,-2.1278,-2.2069,-2.2859,-2.2859,-2.2757,-2.2707,-2.2801,-2.2888,-2.2888,-2.2888,-2.2888,-2.2888,-2.2888,-2.2888,-2.2888,-2.2888,-2.2888,-2.2888,-2.2873,-2.283,-2.2591,-2.2156,-2.1801,-2.1583,-2.1293,-2.1997,-2.2106,-2.1547,-2.1431,-2.1504,-2.0895,-2.0059,-1.9957,-2.0291,-2.032,-2.0291,-2.019,-2.0059,-1.9754,-3.5616,-3.5616,-3.5616,-3.5616,-3.5554,-3.5406,-3.5308,-3.505,-3.3494,-3.2503,-3.1686,-3.0245,-2.8787,-2.7978,-2.7514,-2.7715,-2.8243,-2.8426,-2.9003,-2.9661,-2.9529,-2.8787,-2.7926,-2.7415,-2.6882,-2.6385,-2.6185,-2.6185,-2.6185,-2.6185,-2.624,-2.6294,-2.6295,-2.6365,-2.6468,-2.6469,-2.6336,-2.6017,-2.5614,-2.5095,-2.4225,-2.3626,-2.2603,-2.2058,-2.1783,-2.1617,-2.1309,-2.0974,-2.0645,-2.0289,-1.9922,-1.9744,-1.9723,-1.9723,-1.9723,-1.969,-1.9654,-1.965,-1.9647,-1.9523,-1.9468,-1.9509,-1.9604,-1.9558,-1.9461,-1.9549,-1.9685,-1.9359,-1.9232,-1.9232,-1.928,-2.0172,-2.0689,-2.0912,-2.1464,-2.1873,-2.2084,-2.2577,-2.2772,-2.2888,-2.283,-2.2801,-2.283,-2.2888,-2.2888,-2.2888,-2.2888,-2.2888,-2.2888,-2.2888,-2.2888,-2.2888,-2.2888,-2.2888,-2.2888,-2.2859,-2.2844,-2.249,-2.2243,-2.2048,-2.2098,-2.2555,-2.2743,-2.2526,-2.2627,-2.2526,-2.2352,-2.1562,-2.146,-2.1264,-2.1177,-2.1075,-2.093,-2.0727,-2.0509,-3.5616,-3.5616,-3.5616,-3.5616,-3.5594,-3.5367,-3.5191,-3.4777,-3.3411,-3.2282,-3.1432,-2.991,-2.8555,-2.768,-2.7332,-2.7514,-2.8326,-2.8409,-2.8804,-2.9264,-2.9161,-2.8437,-2.754,-2.6995,-2.6662,-2.6196,-2.6133,-2.6168,-2.6185,-2.6185,-2.6222,-2.6258,-2.6294,-2.6329,-2.6381,-2.6398,-2.6485,-2.6301,-2.5933,-2.5531,-2.4996,-2.3798,-2.2642,-2.2044,-2.188,-2.1648,-2.1309,-2.0974,-2.0645,-2.0289,-1.994,-1.9723,-1.9723,-1.9723,-1.9723,-1.9723,-1.9723,-1.9723,-1.9687,-1.9632,-1.9574,-1.9571,-1.9941,-1.991,-2.0127,-2.0362,-2.0529,-1.9902,-1.9818,-1.9822,-1.9969,-2.0843,-2.1412,-2.173,-2.2337,-2.2934,-2.2832,-2.2912,-2.2852,-2.2888,-2.2888,-2.291,-2.291,-2.2888,-2.2888,-2.2888,-2.2888,-2.2888,-2.2888,-2.2888,-2.2888,-2.2888,-2.2888,-2.2888,-2.2888,-2.2888,-2.2873,-2.2743,-2.2649,-2.2548,-2.2635,-2.283,-2.2888,-2.2888,-2.2859,-2.2757,-2.2859,-2.2873,-2.2388,-2.204,-2.1975,-2.1902,-2.1815,-2.1721,-2.1562,-3.5616,-3.5616,-3.5616,-3.5616,-3.5594,-3.535,-3.4889,-3.4253,-3.3156,-3.2299,-3.1383,-2.9516,-2.8442,-2.7862,-2.6816,-2.7197,-2.8061,-2.8442,-2.8707,-2.9115,-2.8708,-2.7934,-2.6986,-2.6311,-2.6163,-2.5936,-2.599,-2.6097,-2.6168,-2.6185,-2.6203,-2.6205,-2.6222,-2.6221,-2.6257,-2.6274,-2.6276,-2.6296,-2.6214,-2.583,-2.5096,-2.3767,-2.3072,-2.2659,-2.2263,-2.1794,-2.1487,-2.115,-2.0757,-2.0321,-1.9922,-1.9726,-1.9723,-1.9723,-1.9723,-1.9723,-1.9723,-1.9723,-1.9705,-1.965,-1.9611,-1.9608,-1.9671,-2.0087,-2.0868,-2.1268,-2.1377,-2.1252,-2.1089,-2.0932,-2.0833,-2.1562,-2.2037,-2.2368,-2.2744,-2.315,-2.3231,-2.2955,-2.291,-2.2933,-2.2955,-2.2933,-2.2933,-2.291,-2.2888,-2.2888,-2.2888,-2.2888,-2.2888,-2.2888,-2.2888,-2.2888,-2.2888,-2.2888,-2.2888,-2.2888,-2.2888,-2.2888,-2.2888,-2.2888,-2.2888,-2.2888,-2.2888,-2.2888,-2.2888,-2.2888,-2.2888,-2.2859,-2.2801,-2.2693,-2.2461,-2.2562,-2.2728,-2.2627,-2.2403,-3.5616,-3.5616,-3.5616,-3.5616,-3.5526,-3.4953,-3.451,-3.3963,-3.2691,-3.1669,-3.0754,-2.9185,-2.7978,-2.7263,-2.6384,-2.7031,-2.8144,-2.8409,-2.8525,-2.8695,-2.8267,-2.7437,-2.6357,-2.588,-2.5717,-2.5701,-2.5846,-2.6061,-2.6133,-2.6185,-2.6185,-2.6185,-2.6185,-2.6203,-2.6185,-2.6185,-2.624,-2.6294,-2.6229,-2.5895,-2.5178,-2.4514,-2.3934,-2.3553,-2.3172,-2.2651,-2.2069,-2.1697,-2.1126,-2.0565,-2.0045,-1.9833,-1.9762,-1.9726,-1.9723,-1.9738,-2.0112,-2.0097,-1.9783,-1.9698,-1.968,-1.9829,-2.0083,-2.102,-2.2116,-2.2247,-2.1899,-2.158,-2.156,-2.158,-2.1714,-2.217,-2.2304,-2.2581,-2.305,-2.3258,-2.337,-2.3053,-2.291,-2.2955,-2.3023,-2.3068,-2.3068,-2.2978,-2.2955,-2.2955,-2.2933,-2.2888,-2.2888,-2.2888,-2.2888,-2.2888,-2.2888,-2.2888,-2.2888,-2.2888,-2.2888,-2.2888,-2.2888,-2.2888,-2.2888,-2.2888,-2.2888,-2.2888,-2.2888,-2.2888,-2.2888,-2.2873,-2.2844,-2.2859,-2.2873,-2.2888,-2.2888,-2.2859,-2.2671,-3.543,-3.56,-3.5616,-3.5616,-3.5543,-3.4785,-3.4259,-3.3734,-3.2525,-3.1383,-3.0377,-2.9218,-2.7959,-2.6914,-2.673,-2.7156,-2.8282,-2.8295,-2.8124,-2.7997,-2.7761,-2.6922,-2.5889,-2.54,-2.5384,-2.5351,-2.5586,-2.5789,-2.5952,-2.6041,-2.6059,-2.6185,-2.6185,-2.6185,-2.6185,-2.6203,-2.6239,-2.6259,-2.6259,-2.5958,-2.5492,-2.5193,-2.4746,-2.4381,-2.4034,-2.3621,-2.29,-2.2328,-2.1627,-2.1051,-2.0299,-1.9993,-1.9869,-1.9762,-1.9872,-2.0004,-2.0423,-2.0572,-2.0337,-2.0198,-2.0007,-2.0232,-2.0846,-2.1884,-2.3065,-2.2921,-2.2562,-2.2317,-2.2303,-2.2443,-2.2577,-2.2832,-2.2856,-2.299,-2.3229,-2.3445,-2.3551,-2.3282,-2.3142,-2.3216,-2.3297,-2.3297,-2.3253,-2.3098,-2.3045,-2.3023,-2.2955,-2.291,-2.2888,-2.2888,-2.2888,-2.2888,-2.2888,-2.2888,-2.2888,-2.2888,-2.2888,-2.2888,-2.2888,-2.2888,-2.2888,-2.2888,-2.2888,-2.2888,-2.2888,-2.2888,-2.2888,-2.2888,-2.2888,-2.2888,-2.2888,-2.2888,-2.2888,-2.2888,-2.2888,-3.4979,-3.5616,-3.5616,-3.5616,-3.556,-3.5333,-3.4426,-3.3349,-3.2796,-3.1686,-3.0373,-2.9648,-2.882,-2.8089,-2.7316,-2.7356,-2.8115,-2.7996,-2.7508,-2.721,-2.7046,-2.6342,-2.5433,-2.4993,-2.4993,-2.4997,-2.5188,-2.5416,-2.5586,-2.5624,-2.5844,-2.6115,-2.6043,-2.6133,-2.615,-2.6096,-2.6114,-2.6133,-2.6133,-2.6133,-2.5801,-2.5487,-2.5075,-2.491,-2.4398,-2.3869,-2.3587,-2.293,-2.2274,-2.1739,-2.0951,-2.0421,-2.0318,-2.0125,-2.0262,-2.0587,-2.0887,-2.1096,-2.1096,-2.0872,-2.0677,-2.0912,-2.1545,-2.2493,-2.343,-2.358,-2.343,-2.3266,-2.3101,-2.3221,-2.337,-2.349,-2.3325,-2.3355,-2.3415,-2.3475,-2.3595,-2.3573,-2.3465,-2.353,-2.353,-2.348,-2.3451,-2.3319,-2.3209,-2.3164,-2.3053,-2.3008,-2.291,-2.2888,-2.2888,-2.2888,-2.2888,-2.2888,-2.2888,-2.2888,-2.2888,-2.2888,-2.2888,-2.2888,-2.2888,-2.2888,-2.2888,-2.2888,-2.2888,-2.2888,-2.2888,-2.2888,-2.2888,-2.2888,-2.2888,-2.2888,-2.2888,-2.2888,-2.2888,-3.4945,-3.56,-3.5616,-3.5616,-3.5566,-3.4902,-3.4292,-3.3612,-3.2525,-3.1168,-2.9843,-2.9496,-2.9036,-2.8337,-2.7523,-2.7336,-2.77,-2.7146,-2.668,-2.6386,-2.6186,-2.5612,-2.4869,-2.46,-2.4569,-2.4609,-2.4791,-2.4974,-2.5169,-2.5153,-2.5211,-2.5419,-2.5659,-2.5805,-2.5842,-2.5826,-2.5826,-2.5826,-2.5826,-2.5826,-2.5777,-2.5646,-2.5401,-2.5352,-2.5254,-2.466,-2.4193,-2.3763,-2.3113,-2.2447,-2.1776,-2.1366,-2.1083,-2.0896,-2.0996,-2.1321,-2.159,-2.1799,-2.1724,-2.1515,-2.1335,-2.147,-2.2069,-2.2868,-2.352,-2.3595,-2.3595,-2.358,-2.3595,-2.3595,-2.358,-2.358,-2.355,-2.358,-2.3595,-2.3595,-2.3595,-2.3595,-2.3595,-2.3573,-2.3573,-2.3551,-2.3545,-2.3501,-2.3392,-2.3319,-2.3209,-2.3075,-2.2963,-2.291,-2.291,-2.291,-2.291,-2.2888,-2.2888,-2.2888,-2.2888,-2.2888,-2.2888,-2.2888,-2.2888,-2.2888,-2.2888,-2.2888,-2.2888,-2.2888,-2.2888,-2.2888,-2.2888,-2.2888,-2.2888,-2.2888,-2.2888,-2.2888,-2.2888,-3.4742,-3.5566,-3.5616,-3.5616,-3.5509,-3.4818,-3.441,-3.3946,-3.2624,-3.1101,-2.9744,-2.9694,-2.9499,-2.8811,-2.781,-2.7362,-2.7336,-2.6686,-2.5975,-2.5754,-2.5638,-2.5224,-2.4789,-2.4556,-2.4639,-2.4501,-2.44,-2.4542,-2.4735,-2.4719,-2.4739,-2.4855,-2.5029,-2.5204,-2.5397,-2.5381,-2.54,-2.54,-2.5381,-2.5381,-2.5381,-2.5349,-2.5349,-2.5332,-2.5252,-2.5053,-2.4545,-2.41,-2.3618,-2.3011,-2.2499,-2.2179,-2.1983,-2.1868,-2.1819,-2.2069,-2.2328,-2.2493,-2.2338,-2.2069,-2.1924,-2.1754,-2.2517,-2.3101,-2.346,-2.3595,-2.3595,-2.3595,-2.3595,-2.3595,-2.3595,-2.3595,-2.3595,-2.3595,-2.3595,-2.3595,-2.3595,-2.3595,-2.3595,-2.3595,-2.3595,-2.3595,-2.3573,-2.3551,-2.3523,-2.3458,-2.3414,-2.3216,-2.2941,-2.291,-2.2963,-2.2978,-2.2955,-2.2933,-2.2888,-2.2946,-2.2975,-2.2888,-2.2888,-2.2888,-2.2888,-2.2888,-2.2888,-2.2888,-2.2888,-2.2888,-2.2888,-2.2888,-2.2888,-2.2888,-2.2888,-2.2888,-2.2888,-2.2888,-2.2888,-3.4264,-3.5549,-3.56,-3.5616,-3.5577,-3.5373,-3.4879,-3.422,-3.3101,-3.1774,-3.0477,-3.0394,-3.0373,-2.9898,-2.8538,-2.7778,-2.716,-2.6298,-2.5347,-2.4821,-2.5201,-2.5345,-2.5157,-2.4854,-2.4741,-2.4785,-2.4567,-2.4351,-2.4302,-2.4287,-2.4323,-2.4302,-2.439,-2.4594,-2.4879,-2.4902,-2.4902,-2.4922,-2.4902,-2.4918,-2.4938,-2.4922,-2.4938,-2.4954,-2.4938,-2.4788,-2.4611,-2.4244,-2.3826,-2.3491,-2.2879,-2.2531,-2.2293,-2.2114,-2.2209,-2.2658,-2.2703,-2.2987,-2.337,-2.2957,-2.2493,-2.2179,-2.2966,-2.3445,-2.3565,-2.3595,-2.3595,-2.3595,-2.3595,-2.3595,-2.3595,-2.3595,-2.3595,-2.3595,-2.3595,-2.3595,-2.3595,-2.3595,-2.3595,-2.3595,-2.3595,-2.3595,-2.3595,-2.3595,-2.3573,-2.3573,-2.3573,-2.3392,-2.3075,-2.3155,-2.3274,-2.3756,-2.38,-2.331,-2.3302,-2.312,-2.3062,-2.296,-2.3018,-2.3178,-2.3033,-2.2888,-2.2888,-2.2917,-2.2888,-2.2888,-2.2888,-2.2888,-2.2888,-2.2888,-2.2888,-2.2888,-2.2888,-2.2888,-2.2888,-3.3981,-3.4912,-3.538,-3.5616,-3.5577,-3.5475,-3.5255,-3.4852,-3.3573,-3.2095,-3.0883,-3.0647,-3.0589,-3.0075,-2.9156,-2.8022,-2.7095,-2.5973,-2.4896,-2.407,-2.4571,-2.4611,-2.4672,-2.4867,-2.4807,-2.4694,-2.4468,-2.415,-2.3824,-2.3888,-2.3867,-2.3831,-2.3931,-2.4078,-2.439,-2.4492,-2.4492,-2.4492,-2.4513,-2.4513,-2.4492,-2.4492,-2.4492,-2.4513,-2.4513,-2.4497,-2.4497,-2.41,-2.3957,-2.3856,-2.3305,-2.3183,-2.3045,-2.2894,-2.2981,-2.3236,-2.3266,-2.3377,-2.355,-2.334,-2.3221,-2.3161,-2.3251,-2.3595,-2.3595,-2.3595,-2.3595,-2.3595,-2.3595,-2.3595,-2.3595,-2.3595,-2.3595,-2.3595,-2.3595,-2.3595,-2.3595,-2.3595,-2.3595,-2.3595,-2.3595,-2.3655,-2.3648,-2.3984,-2.4044,-2.3789,-2.3759,-2.364,-2.3348,-2.3659,-2.3919,-2.476,-2.4976,-2.4212,-2.3795,-2.3992,-2.4056,-2.4099,-2.3954,-2.3829,-2.3569,-2.3207,-2.3221,-2.3447,-2.3149,-2.2888,-2.2917,-2.2931,-2.2888,-2.2888,-2.2888,-2.2888,-2.2888,-2.2888,-2.2888,-3.3613,-3.4523,-3.5013,-3.538,-3.556,-3.552,-3.5233,-3.4533,-3.327,-3.193,-3.0895,-3.0692,-3.063,-3.0191,-2.9352,-2.8437,-2.7353,-2.6255,-2.5329,-2.435,-2.4328,-2.4889,-2.5181,-2.5023,-2.5061,-2.4889,-2.4619,-2.4283,-2.3668,-2.3595,-2.3616,-2.3638,-2.3595,-2.3803,-2.3994,-2.4057,-2.4057,-2.4057,-2.4057,-2.4042,-2.4057,-2.4057,-2.4073,-2.4057,-2.4057,-2.4057,-2.4057,-2.4036,-2.4021,-2.3952,-2.3867,-2.3818,-2.3717,-2.3653,-2.3595,-2.3595,-2.3595,-2.3595,-2.358,-2.358,-2.3475,-2.3505,-2.3595,-2.3595,-2.3595,-2.3595,-2.3595,-2.3595,-2.3595,-2.3595,-2.3595,-2.3595,-2.3595,-2.3595,-2.3595,-2.3595,-2.3595,-2.3595,-2.3595,-2.3595,-2.367,-2.3693,-2.3947,-2.4283,-2.4582,-2.4253,-2.3939,-2.3819,-2.3759,-2.4118,-2.4702,-2.5685,-2.61,-2.5432,-2.5121,-2.5247,-2.5266,-2.5241,-2.4926,-2.4578,-2.4273,-2.3969,-2.3954,-2.3853,-2.3534,-2.3244,-2.3055,-2.3012,-2.3186,-2.3076,-2.2888,-2.2888,-2.2888,-2.2888,-2.2888,-3.3156,-3.437,-3.4489,-3.4962,-3.5509,-3.5391,-3.4488,-3.3103,-3.2366,-3.1571,-3.0729,-3.0733,-3.0671,-3.0357,-2.9505,-2.8705,-2.7977,-2.696,-2.6115,-2.5499,-2.5106,-2.5734,-2.5929,-2.5794,-2.5457,-2.5277,-2.4993,-2.444,-2.3699,-2.3595,-2.3595,-2.3595,-2.3595,-2.3674,-2.3696,-2.3717,-2.3702,-2.3724,-2.3724,-2.3745,-2.3745,-2.3681,-2.3739,-2.3724,-2.3724,-2.3702,-2.3702,-2.3702,-2.3681,-2.3638,-2.3616,-2.3616,-2.3595,-2.3595,-2.3595,-2.3595,-2.3595,-2.3595,-2.3595,-2.3595,-2.3595,-2.3595,-2.3595,-2.3595,-2.3595,-2.3595,-2.3595,-2.3595,-2.3595,-2.3595,-2.3595,-2.3595,-2.3595,-2.3595,-2.3595,-2.3595,-2.3595,-2.3595,-2.3595,-2.364,-2.3744,-2.3947,-2.456,-2.4918,-2.5121,-2.4911,-2.4612,-2.4358,-2.4373,-2.4702,-2.5458,-2.6746,-2.6937,-2.6624,-2.6425,-2.6177,-2.6017,-2.5821,-2.5575,-2.5241,-2.4965,-2.4936,-2.5154,-2.4965,-2.4056,-2.378,-2.4172,-2.4012,-2.3664,-2.3519,-2.3461,-2.3047,-2.3091,-2.2917,-2.2888,-3.2869,-3.3744,-3.4269,-3.4928,-3.5397,-3.4479,-3.3406,-3.2546,-3.2259,-3.1726,-3.0915,-3.0915,-3.0834,-3.0703,-3.0128,-2.9194,-2.8325,-2.7482,-2.6558,-2.5938,-2.5407,-2.5809,-2.6004,-2.5982,-2.5689,-2.557,-2.5285,-2.4829,-2.3901,-2.3655,-2.3706,-2.3595,-2.3833,-2.3766,-2.3714,-2.3625,-2.3699,-2.367,-2.3699,-2.3595,-2.3595,-2.3595,-2.3595,-2.3595,-2.3595,-2.3595,-2.3595,-2.3595,-2.3595,-2.3595,-2.3595,-2.3595,-2.3595,-2.3595,-2.3595,-2.3595,-2.3595,-2.3595,-2.3595,-2.3595,-2.3595,-2.3595,-2.3595,-2.3595,-2.3595,-2.3595,-2.361,-2.3699,-2.364,-2.3625,-2.367,-2.3684,-2.3729,-2.3752,-2.3714,-2.3595,-2.3595,-2.3595,-2.364,-2.4059,-2.4133,-2.4687,-2.5247,-2.5531,-2.5689,-2.5525,-2.5337,-2.5151,-2.5136,-2.5533,-2.5967,-2.724,-2.7475,-2.7086,-2.6882,-2.6645,-2.6523,-2.6358,-2.6148,-2.6032,-2.5995,-2.6068,-2.6413,-2.6123,-2.5363,-2.5425,-2.5865,-2.5396,-2.4466,-2.4457,-2.437,-2.3766,-2.3287,-2.3091,-2.2917,-3.2459,-3.3406,-3.388,-3.4336,-3.4518,-3.3774,-3.2848,-3.2005,-3.1887,-3.1503,-3.1029,-3.1012,-3.0972,-3.0851,-3.0435,-2.9761,-2.883,-2.8406,-2.7674,-2.6829,-2.5537,-2.6019,-2.626,-2.6101,-2.5823,-2.58,-2.5883,-2.5704,-2.4709,-2.4513,-2.4611,-2.4656,-2.4543,-2.4484,-2.4537,-2.4605,-2.4537,-2.4275,-2.3984,-2.3699,-2.364,-2.3655,-2.3595,-2.364,-2.3625,-2.3625,-2.3595,-2.3595,-2.3595,-2.3595,-2.3595,-2.3595,-2.3595,-2.3595,-2.3595,-2.3595,-2.3595,-2.3595,-2.3595,-2.3595,-2.3595,-2.3595,-2.3595,-2.3595,-2.3595,-2.3595,-2.3804,-2.3984,-2.3789,-2.3655,-2.3744,-2.3819,-2.3887,-2.3977,-2.3782,-2.361,-2.3595,-2.3595,-2.3969,-2.4462,-2.4956,-2.5495,-2.5899,-2.6153,-2.6393,-2.6497,-2.6557,-2.6492,-2.6477,-2.6686,-2.6836,-2.745,-2.7575,-2.7409,-2.7218,-2.7026,-2.6912,-2.6813,-2.6795,-2.674,-2.6858,-2.6777,-2.6715,-2.6756,-2.675,-2.6724,-2.6578,-2.5941,-2.5228,-2.5218,-2.5038,-2.452,-2.3853,-2.3235,-2.3076,-3.2019,-3.3288,-3.3389,-3.3491,-3.3406,-3.3322,-3.2493,-3.1275,-3.1258,-3.1151,-3.1052,-3.1052,-3.1012,-3.0915,-3.0651,-3.022,-2.9594,-2.9173,-2.8513,-2.8084,-2.6535,-2.6328,-2.6387,-2.632,-2.5985,-2.6198,-2.6365,-2.6303,-2.6046,-2.569,-2.5599,-2.5994,-2.5834,-2.5614,-2.547,-2.547,-2.5326,-2.513,-2.456,-2.4103,-2.3984,-2.3849,-2.3714,-2.3744,-2.3729,-2.3699,-2.3625,-2.3595,-2.3595,-2.3595,-2.3595,-2.3595,-2.3595,-2.3595,-2.3595,-2.3595,-2.3595,-2.3595,-2.3595,-2.3595,-2.3595,-2.3595,-2.3595,-2.3819,-2.3954,-2.3684,-2.3819,-2.4455,-2.4462,-2.4388,-2.4448,-2.4418,-2.4448,-2.45,-2.4448,-2.4328,-2.4313,-2.4597,-2.5255,-2.563,-2.5779,-2.6303,-2.6602,-2.6866,-2.6941,-2.7315,-2.7375,-2.7345,-2.7375,-2.7495,-2.754,-2.7585,-2.7575,-2.7524,-2.7412,-2.7258,-2.7207,-2.7167,-2.7181,-2.7104,-2.6974,-2.6937,-2.6884,-2.7,-2.7155,-2.7026,-2.681,-2.6276,-2.5864,-2.5585,-2.5375,-2.5143,-2.4592,-2.4032,-2.3699,-3.1715,-3.2615,-3.3152,-3.3389,-3.3305,-3.2818,-3.2073,-3.1207,-3.119,-3.1171,-3.1151,-3.1151,-3.1131,-3.1072,-3.0892,-3.051,-3.014,-2.9582,-2.8869,-2.7943,-2.6784,-2.6243,-2.6313,-2.6214,-2.6047,-2.6206,-2.6464,-2.6792,-2.6405,-2.6168,-2.6077,-2.6054,-2.6153,-2.6206,-2.6145,-2.6075,-2.5967,-2.5935,-2.5526,-2.5121,-2.5121,-2.5046,-2.4971,-2.4575,-2.4335,-2.4096,-2.3939,-2.3655,-2.3625,-2.3595,-2.3595,-2.3595,-2.3595,-2.3595,-2.3595,-2.3595,-2.3573,-2.3588,-2.3551,-2.3551,-2.3588,-2.361,-2.3744,-2.4328,-2.4433,-2.3924,-2.4029,-2.4822,-2.5277,-2.5232,-2.5113,-2.5061,-2.5001,-2.5061,-2.5151,-2.5121,-2.5106,-2.5809,-2.6581,-2.6686,-2.6746,-2.6956,-2.724,-2.7405,-2.754,-2.757,-2.7555,-2.7525,-2.751,-2.7555,-2.7555,-2.7585,-2.7585,-2.7549,-2.7488,-2.7437,-2.7361,-2.7284,-2.7258,-2.7181,-2.7104,-2.7141,-2.7218,-2.7346,-2.7448,-2.7284,-2.7104,-2.6927,-2.6528,-2.6119,-2.5995,-2.5865,-2.5995,-2.5633,-2.5114,-3.1633,-3.2361,-3.3102,-3.3203,-3.2865,-3.2462,-3.1887,-3.1275,-3.119,-3.119,-3.119,-3.119,-3.119,-3.1171,-3.1012,-3.0781,-3.0369,-2.9737,-2.9033,-2.8059,-2.6954,-2.6299,-2.6125,-2.6193,-2.6341,-2.6511,-2.7216,-2.7437,-2.6986,-2.7101,-2.7147,-2.7009,-2.7009,-2.6947,-2.6915,-2.6812,-2.6687,-2.6714,-2.648,-2.6417,-2.6288,-2.5959,-2.5555,-2.5083,-2.4948,-2.4739,-2.456,-2.4268,-2.4036,-2.3887,-2.3782,-2.3625,-2.3595,-2.3595,-2.3545,-2.3501,-2.3501,-2.3538,-2.3546,-2.3576,-2.3612,-2.3671,-2.3948,-2.4566,-2.5166,-2.4792,-2.4941,-2.5689,-2.6482,-2.6557,-2.6087,-2.5908,-2.5719,-2.5704,-2.5863,-2.5937,-2.6252,-2.6836,-2.718,-2.721,-2.7225,-2.7255,-2.7465,-2.7495,-2.7585,-2.7585,-2.7585,-2.7585,-2.7585,-2.7585,-2.7585,-2.7585,-2.7585,-2.7585,-2.7549,-2.7499,-2.7473,-2.7397,-2.7361,-2.7346,-2.7372,-2.7473,-2.7575,-2.7575,-2.7524,-2.7423,-2.7284,-2.7144,-2.6963,-2.6556,-2.6588,-2.6649,-2.6794,-2.6794,-2.6228,-3.165,-3.2361,-3.2865,-3.2814,-3.231,-3.2192,-3.1785,-3.1258,-3.119,-3.119,-3.119,-3.119,-3.119,-3.1151,-3.1075,-3.0848,-3.0466,-2.9794,-2.9111,-2.8036,-2.694,-2.6288,-2.6192,-2.6404,-2.6626,-2.7107,-2.7805,-2.8119,-2.8102,-2.8102,-2.8086,-2.8365,-2.8387,-2.8317,-2.8226,-2.8048,-2.7758,-2.7584,-2.743,-2.7475,-2.7076,-2.6512,-2.6048,-2.5839,-2.5734,-2.5704,-2.545,-2.5143,-2.4769,-2.459,-2.4276,-2.3939,-2.3857,-2.388,-2.3941,-2.3926,-2.3948,-2.3918,-2.3799,-2.3844,-2.3815,-2.3881,-2.4335,-2.4908,-2.5538,-2.5741,-2.5914,-2.6492,-2.7285,-2.7405,-2.6911,-2.6641,-2.6477,-2.6297,-2.6462,-2.6671,-2.7151,-2.757,-2.757,-2.7585,-2.7585,-2.757,-2.757,-2.7585,-2.7585,-2.7585,-2.7585,-2.7585,-2.7585,-2.7585,-2.7585,-2.7585,-2.7585,-2.7585,-2.7585,-2.756,-2.7524,-2.7524,-2.7473,-2.7549,-2.7585,-2.7585,-2.7585,-2.7585,-2.7549,-2.7448,-2.7321,-2.7181,-2.7026,-2.6858,-2.6806,-2.6794,-2.6794,-2.6794,-2.6794,-3.1633,-3.2259,-3.1833,-3.185,-3.2141,-3.1701,-3.1345,-3.1207,-3.119,-3.119,-3.119,-3.119,-3.119,-3.119,-3.1171,-3.094,-3.044,-2.9831,-2.8638,-2.7429,-2.7231,-2.6506,-2.6192,-2.6732,-2.7005,-2.7565,-2.8116,-2.8312,-2.8411,-2.8411,-2.8411,-2.8411,-2.8411,-2.8387,-2.8339,-2.8168,-2.798,-2.7905,-2.774,-2.7625,-2.7585,-2.718,-2.6916,-2.6662,-2.6393,-2.6048,-2.5719,-2.5486,-2.5427,-2.5352,-2.5173,-2.4582,-2.4365,-2.4477,-2.4712,-2.4749,-2.474,-2.4505,-2.4423,-2.4443,-2.4448,-2.4103,-2.4718,-2.5732,-2.6102,-2.6075,-2.6428,-2.7046,-2.7585,-2.756,-2.7245,-2.727,-2.7151,-2.6836,-2.6806,-2.7106,-2.7495,-2.7585,-2.7585,-2.7585,-2.7585,-2.7585,-2.7585,-2.7585,-2.7585,-2.7585,-2.7585,-2.7585,-2.7585,-2.7585,-2.7585,-2.7585,-2.7585,-2.7585,-2.7585,-2.7585,-2.7575,-2.7585,-2.7585,-2.7585,-2.7585,-2.7585,-2.7585,-2.7585,-2.7549,-2.7499,-2.7346,-2.7269,-2.7104,-2.6963,-2.6832,-2.6794,-2.6806,-2.6806,-2.6832]},{"header":{"parameterUnit":"m.s-1","parameterCategory":1,"la1":31.0,"la2":29.5877,"lo1":-88.7671,"lo2":-86.6584,"dy":0.0162,"dx":0.0185,"nx":115,"ny":88,"refTime":"2026-05-24T12:00:00:Z","depth":0,"parameterNumber":3,"parameterNumberName":"V-component_of_WINDS"},"data":[0.0,0.0,0.0,0.0,0.0,0.0,0.0,0.0,0.0,0.0,0.0,0.0,0.0,0.0,0.0,0.0,0.0,0.0,0.0,0.0,0.0,0.0,0.0,0.0,0.0,0.0,0.0,0.0,0.0,0.0,0.0,0.0,0.0,0.0,0.0,0.0,0.0,0.0,0.0,0.0,0.0,0.0,0.0,0.0,0.0,0.0,0.0,0.0,0.0,0.0,0.0,0.0,0.0,0.0,0.0,0.0,0.0,0.0,0.0,0.0,0.0,0.0,0.0,0.0,0.0,0.0,0.0,0.0,0.0,0.0,0.0,0.0,0.0,0.0,0.0,0.0,0.0,0.0,0.0,0.0,0.0,0.0,0.0,0.0,0.0,0.0,0.0,0.0,0.0,0.0,0.0,0.0,0.0,0.0,0.0,0.0,0.0,0.0,0.0,0.0,0.0,0.0,0.0,0.0,0.0,0.0,0.0,0.0,0.0,0.0,0.0,0.0,0.0,0.0,0.0,0.0,0.0,0.0,0.0,0.0,0.0,0.0,0.0,0.0,0.0,0.0,0.0,0.0,0.0,0.0,0.0,0.0,0.0,0.0,0.0,0.0,0.0,0.0,0.0,0.0,0.0,0.0,0.0,0.0,0.0,0.0,0.0,0.0,0.0,0.0,0.0,0.0,0.0,0.0,0.0,0.0,0.0,0.0,0.0,0.0,0.0,0.0,0.0,0.0,0.0,0.0,0.0,0.0,0.0,0.0,0.0,0.0,0.0,0.0,0.0,0.0,0.0,0.0,0.0,0.0,0.0,0.0,0.0,0.0,0.0,0.0,0.0,0.0,0.0,0.0,0.0,0.0,0.0,0.0,0.0,0.0,0.0,0.0,0.0,0.0,0.0,0.0,0.0,0.0,0.0,0.0,0.0,0.0,0.0,0.0,0.0,0.0,0.0,0.0,0.0,0.0,0.0,0.0,0.0,0.0,0.0,0.0,0.0,0.0,0.0,0.0,0.0,0.0,0.0,0.0,0.0,0.0,0.0,0.0,0.0,0.0,0.0,0.0,0.0,0.0,0.0,0.0,0.0,0.0,0.0,0.0,0.0,0.0,0.0,0.0,0.0,0.0,0.0,0.0,0.0,0.0,0.0,0.0,0.0,0.0,0.0,0.0,0.0,0.0,0.0,0.0,0.0,0.0,0.0,0.0,0.0,0.0,0.0,0.0,0.0,0.0,0.0,0.0,0.0,0.0,0.0,0.0,0.0,0.0,0.0,0.0,0.0,0.0,0.0,0.0,0.0,0.0,0.0,0.0,0.0,0.0,0.0,0.0,0.0,0.0,0.0,0.0,0.0,0.0,0.0,0.0,0.0,0.0,0.0,0.0,0.0,0.0,0.0,0.0,0.0,0.0,0.0,0.0,0.0,0.0,0.0,0.0,0.0,0.0,0.0,0.0,0.0,0.0,0.0,0.0,0.0,0.0,0.0,0.0,0.0,0.0,0.0,0.0,0.0,0.0,0.0,0.0,0.0,0.0,0.0,0.0,0.0,0.0,0.0,0.0,0.0,0.0,0.0,0.0,0.0,0.0,0.0,0.0,0.0,0.0,0.0,0.0,0.0,0.0,0.0,0.0,0.0,0.0,0.0,0.0,0.0,0.0,0.0,0.0,0.0,0.0,0.0,0.0,0.0,0.0,0.0,0.0,0.0,0.0,0.0,0.0,0.0,0.0,0.0,0.0,0.0,0.0,0.0,0.0,0.0,0.0,0.0,0.0,0.0,0.0,0.0,0.0,0.0,0.0,0.0,0.0,0.0,0.0,0.0,0.0,0.0,0.0,0.0,0.0,0.0,0.0,0.0,0.0,0.0,0.0,0.0,0.0,0.0,0.0,0.0,0.0,0.0,0.0,0.0,0.0,0.0,0.0,0.0,0.0,0.0,0.0,0.0,0.0,0.0,0.0,0.0,0.0,0.0,0.0,0.0,0.0,0.0,0.0,0.0,0.0,0.0,0.0,0.0,0.0,0.0,0.0,0.0,0.0,0.0,0.0,0.0,0.0,0.0,0.0,0.0,0.0,0.0,0.0,0.0,0.0,0.0,0.0,0.0,0.0,0.0,0.0,0.0,0.0,0.0,0.0,0.0,0.0,0.0,0.0,0.0,0.0,0.0,0.0,0.0,0.0,0.0,0.0,0.0,0.0,0.0,0.0,0.0,0.0,0.0,0.0,0.0,0.0,0.0,0.0,0.0,0.0,0.0,0.0,0.0,0.0,0.0,0.0,0.0,0.0,0.0,0.0,0.0,0.0,0.0,0.0,0.0,0.0,0.0,0.0,0.0,0.0,0.0,0.0,0.0,0.0,0.0,0.0,0.0,0.0,0.0,0.0,0.0,0.0,0.0,0.0,0.0,0.0,0.0,0.0,0.0,0.0,0.0,0.0,0.0,0.0,0.0,0.0,0.0,0.0,0.0,0.0,0.0,0.0,0.0,0.0,0.0,0.0,0.0,0.0,0.0,0.0,0.0,0.0,0.0,0.0,0.0,0.0,0.0,0.0,0.0,0.0,0.0,0.0,0.0,0.0,0.0,0.0,0.0,0.0,0.0,0.0,0.0,0.0,0.0,0.0,0.0,0.0,0.0,0.0,0.0,0.0,0.0,0.0,0.0,0.0,0.0,0.0,0.0,0.0,0.0,0.0,0.0,0.0,0.0,0.0,0.0,0.0,0.0,0.0,0.0,0.0,0.0,0.0,0.0,0.0,0.0,0.0,0.0,0.0,0.0,0.0,0.0,0.0,0.0,0.0,0.0,0.0,0.0,0.0,0.0,0.0,0.0,0.0,0.0,0.0,0.0,0.0,0.0,0.0,0.0,0.0,0.0,0.0,0.0,0.0,0.0,0.0,0.0,0.0,0.0,0.0,0.0,0.0,0.0,0.0,0.0,0.0,0.0,0.0,0.0,0.0,0.0,0.0,0.0,0.0,0.0,0.0,0.0,0.0,0.0,0.0,0.0,0.0,0.0,0.0,0.0,0.0,0.0,0.0,0.0,0.0,0.0,0.0,0.0,0.0,0.0,0.0,0.0,0.0,0.0,0.0,0.0,0.0,0.0,0.0,0.0,0.0,0.0,0.0,0.0,0.0,0.0,0.0,0.0,0.0,0.0,0.0,0.0,0.0,0.0,0.0,0.0,0.0,0.0,0.0,0.0,0.0,0.0,0.0,0.0,0.0,0.0,0.0,0.0,0.0,0.0,0.0,0.0,0.0,0.0,0.0,0.0,0.0,0.0,0.0,0.0,0.0,0.0,0.0,0.0,0.0,0.0,0.0,0.0,0.0,0.0,0.0,0.0,0.0,0.0,0.0,0.0,0.0,0.0,0.0,0.0,0.0,0.0,0.0,0.0,0.0,0.0,0.0,0.0,0.0,0.0,0.0,0.0,0.0,0.0,0.0,0.0,0.0,0.0,0.0,0.0,0.0,0.0,0.0,0.0,0.0,0.0,0.0,0.0,0.0,0.0,0.0,0.0,0.0,0.0,0.0,0.0,0.0,0.0,0.0,0.0,0.0,0.0,0.0,0.0,0.0,0.0,0.0,0.0,0.0,0.0,0.0,0.0,0.0,0.0,0.0,0.0,0.0,0.0,0.0,0.0,0.0,0.0,0.0,0.0,0.0,0.0,0.0,0.0,0.0,0.0,0.0,0.0,0.0,0.0,0.0,0.0,0.0,0.0,0.0,0.0,0.0,0.0,0.0,0.0,0.0,0.0,0.0,0.0,0.0,0.0,0.0,0.0,0.0,0.0,0.0,0.0,0.0,0.0,0.0,0.0,0.0,0.0,0.0,0.0,0.0,0.0,0.0,0.0,0.0,0.0,0.0,0.0,0.0,0.0,0.0,0.0,0.0,0.0,0.0,0.0,0.0,0.0,0.0,0.0,0.0,0.0,0.0,0.0,0.0,0.0,0.0,0.0,0.0,0.0,0.0,0.0,0.0,0.0,0.0,0.0,0.0,0.0,0.0,0.0,0.0,0.0,0.0,0.0,0.0,0.0,0.0,0.0,0.0,0.0,0.0,0.0,0.0,0.0,0.0,0.0,0.0,0.0,0.0,0.0,0.0,0.0,0.0,0.0,0.0,0.0,0.0,0.0,0.0,0.0,0.0,0.0,0.0,0.0,0.0,0.0,0.0,0.0,0.0,0.0,0.0,0.0,0.0,0.0,0.0,0.0,0.0,0.0,0.0,0.0,0.0,0.0,0.0,0.0,0.0,0.0,0.0,0.0,0.0,0.0,0.0,0.7609,0.0,0.0,0.0,0.0,0.0,0.0,0.0,0.0,0.0,0.0,0.0,0.0,0.0,0.0,0.0,0.0,0.0,0.0,0.0,0.0,0.0,0.0,0.0,0.0,0.0,0.0,0.0,0.0,0.0,0.0,0.0,0.0,0.0,0.0,0.0,0.0,0.0,0.0,0.0,0.0,0.0,0.0,0.0,0.0,0.0,0.0,0.0,0.0,0.0,0.0,0.0,0.0,0.0,0.0,0.0,0.0,0.0,0.0,0.0,0.0,0.0,0.0,0.0,0.0,0.0,0.0,0.0,0.0,0.0,0.0,0.0,0.0,0.0,0.0,0.0,0.0,0.0,0.0,0.0,0.0,0.0,0.0,0.0,0.0,0.0,0.0,0.0,0.0,0.0,0.0,0.0,0.0,0.0,0.0,0.0,0.0,0.0,0.0,0.0,0.0,0.0,0.0,0.0,0.0,0.0,0.0,0.0,0.0,0.0,0.0,0.8016,0.8744,0.8415,0.8159,0.8091,0.0,0.0,0.0,0.0,0.0,0.0,0.0,0.0,0.0,0.0,0.0,0.0,0.0,0.0,0.0,0.0,0.0,0.0,0.0,0.0,0.0,0.0,0.0,0.0,0.0,0.0,0.0,0.0,0.0,0.0,0.0,0.0,0.0,0.0,0.0,0.0,0.0,0.0,0.0,0.0,0.0,0.0,0.0,0.0,0.0,0.0,0.0,0.0,0.0,0.0,0.0,0.0,0.0,0.0,0.0,0.0,0.0,0.0,0.0,0.0,0.0,0.0,0.0,0.0,0.0,0.0,0.0,0.0,0.0,0.0,0.0,0.0,0.0,0.0,0.0,0.0,0.0,0.0,0.0,0.0,0.0,0.0,0.0,0.0,0.0,0.0,0.0,0.0,0.0,0.0,0.0,0.0,0.0,0.0,0.0,0.0,0.0,0.0,0.0,0.0,0.0,0.0,0.0,0.0,0.0,0.0,0.0,0.0,0.0,0.0,0.0,0.0,0.86,0.8532,0.8457,0.0,0.0,0.0,0.0,0.0,0.0,0.0,0.0,0.0,0.0,0.0,0.0,0.0,0.0,0.0,0.0,0.0,0.0,0.0,0.0,0.0,0.0,0.0,0.0,0.0,0.0,0.0,0.0,0.0,0.0,0.0,0.0,0.0,0.0,0.0,0.0,0.0,0.0,0.0,0.0,0.0,0.0,0.0,0.0,0.0,0.0,0.0,0.0,0.0,0.0,0.0,0.0,0.0,0.0,0.0,0.0,0.0,0.0,0.0,0.0,0.0,0.0,0.0,0.0,0.0,0.0,0.0,0.0,0.0,0.0,0.0,0.0,0.0,0.0,0.0,0.0,0.0,0.0,0.0,0.0,0.0,0.0,0.0,0.0,0.0,0.0,0.0,0.0,0.0,0.0,0.0,0.0,0.0,0.0,0.0,0.0,0.0,0.0,0.0,0.0,0.0,0.0,0.0,0.0,0.0,0.0,0.0,0.0,0.0,0.0,0.7082,0.8473,0.8517,0.0,0.8327,0.0,0.0,0.0,0.0,0.0,0.0,0.0,0.0,0.0,0.0,0.0,0.0,0.0,0.0,0.0,0.0,0.0,0.0,0.0,0.0,0.0,0.0,0.0,0.0,0.0,0.0,0.0,0.0,0.0,0.0,0.0,0.0,0.0,0.0,0.0,0.0,0.0,0.0,0.0,0.0,0.0,0.0,0.0,0.0,0.0,0.0,0.0,0.0,0.0,0.0,0.0,0.0,0.0,0.0,0.0,0.0,0.0,0.0,0.0,0.0,0.0,0.0,0.0,0.0,0.0,0.0,0.0,0.0,0.0,0.0,0.0,0.0,0.0,0.0,0.0,0.0,0.0,0.0,0.0,0.0,0.0,0.0,0.0,0.0,0.0,0.0,0.0,0.0,0.0,0.0,0.0,0.0,0.0,0.0,0.0,0.0,0.0,0.0,0.0,0.0,0.0,0.0,0.0,0.0,0.0,0.0,0.0,0.0,0.0,0.0,0.7107,0.8948,0.8982,0.8743,0.0,0.0,0.0,0.0,0.0,0.0,0.0,0.0,0.0,0.0,0.0,0.0,0.0,0.0,0.0,0.0,0.0,0.0,0.0,0.0,0.0,0.0,0.0,0.0,0.0,0.0,0.0,0.0,0.0,0.0,0.0,0.0,0.0,0.0,0.0,0.0,0.0,0.0,0.0,0.0,0.0,0.0,0.0,0.0,0.0,0.0,0.0,0.0,0.0,0.0,0.0,0.0,0.0,0.0,0.0,0.0,0.0,0.0,0.0,0.0,0.0,0.0,0.0,0.0,0.0,0.0,0.0,0.0,0.0,0.0,0.0,0.0,0.0,0.0,0.0,0.0,0.0,0.0,0.0,0.0,0.0,0.0,0.0,0.0,0.0,0.0,0.0,0.0,0.0,0.0,0.0,0.0,0.0,0.0,0.0,0.0,0.0,0.0,0.0,0.0,0.0,0.0,0.0,0.0,0.0,0.0,0.0,0.0,0.0,0.0,0.6043,0.7085,0.8862,0.9011,0.8747,0.8231,0.0,0.0,0.0,0.0,0.0,0.0,0.0,0.0,0.0,0.0,0.0,0.0,0.0,0.0,0.0,0.0,0.0,0.0,0.0,0.0,0.0,0.0,0.0,0.0,0.0,0.0,0.0,0.0,0.0,0.0,0.0,0.0,0.0,0.0,0.0,0.0,0.0,0.0,0.0,0.0,0.0,0.0,0.0,0.0,0.0,0.0,0.0,0.0,0.0,0.0,0.0,0.0,0.0,0.0,0.0,0.0,0.0,0.0,0.0,0.0,0.0,0.0,0.0,0.0,0.0,0.0,0.0,0.0,0.0,0.0,0.0,0.0,0.0,0.0,0.0,0.0,0.0,0.0,0.0,0.0,0.0,0.0,0.0,0.0,0.0,0.0,0.0,0.0,0.0,0.0,0.0,0.0,0.0,0.0,0.0,0.0,0.0,0.0,0.0,0.0,0.0,0.0,0.0,0.0,0.0,0.0,0.0,0.0,0.5132,0.5796,0.6798,0.816,0.8267,0.8238,0.0,0.0,0.0,0.0,0.0,0.0,0.0,0.0,0.0,0.0,0.0,0.0,0.0,0.0,0.0,0.0,0.0,0.0,0.0,0.0,0.0,0.0,0.0,0.0,0.0,0.0,0.0,0.0,0.0,0.0,0.0,0.0,0.0,0.0,0.0,0.0,0.0,0.0,0.0,0.0,0.0,0.0,0.0,0.0,0.0,0.0,0.0,0.0,0.0,0.0,0.0,0.0,0.0,0.0,0.0,0.0,0.0,0.0,0.0,0.0,0.0,0.0,0.0,0.0,0.0,0.0,0.0,0.0,0.0,0.0,0.0,0.0,0.0,0.0,0.0,0.0,0.0,0.0,0.0,0.0,0.0,0.0,0.0,0.0,0.0,0.0,0.0,0.0,0.0,0.0,0.0,0.0,0.0,0.0,0.0,0.0,0.0,0.0,0.0,0.0,0.0,0.0,0.0,0.0,0.0,0.0,0.0,0.0,0.0,0.5125,0.6598,0.7196,0.6903,0.8099,0.8384,0.0,0.0,0.0,0.0,0.0,0.0,0.0,0.0,0.0,0.0,0.0,0.0,0.0,0.0,0.0,0.0,0.0,0.0,0.0,0.0,0.0,0.0,0.0,0.0,0.0,0.0,0.0,0.0,0.0,0.0,0.0,0.0,0.0,0.0,0.0,0.0,0.0,0.0,0.0,0.0,0.0,0.0,0.0,0.0,0.0,0.0,0.0,0.0,0.0,0.0,0.0,0.0,0.0,0.0,0.0,0.0,0.0,0.0,0.0,0.0,0.0,0.0,0.0,0.0,0.0,0.0,0.0,0.0,0.0,0.0,0.0,0.0,0.0,0.0,0.0,0.0,0.0,0.0,0.0,0.0,0.0,0.0,0.0,0.0,0.0,0.0,0.0,0.0,0.0,0.0,0.0,0.0,0.0,0.0,0.0,0.0,0.0,0.0,0.0,0.0,0.0,0.0,0.0,0.0,0.0,0.0,0.0,0.0,0.0,0.5746,0.0,0.744,0.6828,0.8049,0.8356,0.0,0.0,0.0,0.0,0.0,0.0,0.0,0.0,0.0,0.0,0.0,0.0,0.0,0.0,0.0,0.0,0.0,0.0,0.0,0.0,0.0,0.0,0.0,0.0,0.0,0.0,0.0,0.0,0.0,0.0,0.0,0.0,0.0,0.0,0.0,0.0,0.0,0.0,0.0,0.0,0.0,0.0,0.0,0.0,0.0,0.0,0.0,0.0,0.0,0.0,0.0,0.0,0.0,0.0,0.0,0.0,0.0,0.0,0.0,0.0,0.0,0.0,0.0,0.0,0.0,0.0,0.0,0.0,0.0,0.0,0.0,0.0,0.0,0.0,0.0,0.0,0.0,0.0,0.0,0.0,0.0,0.0,0.0,0.0,0.0,0.0,0.0,0.0,0.0,0.0,0.0,0.0,0.0,0.0,0.0,0.0,0.0,0.0,0.0,0.0,0.0,0.0,0.0,0.0,0.0,0.0,0.0,0.0,0.5751,0.7011,0.7123,0.7474,0.8048,0.8125,0.8109,0.0,0.0,0.0,0.0,0.0,0.0,0.0,0.0,0.0,0.0,0.0,0.0,0.0,0.0,0.0,0.0,0.0,0.0,0.0,0.0,0.0,0.0,0.0,0.0,0.0,0.0,0.0,0.0,0.0,0.0,0.0,0.0,0.0,0.0,0.0,0.0,0.0,0.0,0.0,0.0,0.0,0.0,0.0,0.0,0.0,0.0,0.0,0.0,0.0,0.0,0.0,0.0,0.0,0.0,0.0,0.0,0.0,0.0,0.0,0.0,0.0,0.0,0.0,0.0,0.0,0.0,0.0,0.0,0.0,0.0,0.0,0.0,0.0,0.0,0.0,0.0,0.0,0.0,0.0,0.0,0.0,0.0,0.0,0.0,0.0,0.0,0.0,0.0,0.0,0.0,0.0,0.0,0.0,0.0,0.0,0.0,0.0,0.0,0.0,0.0,0.0,0.0,0.0,0.0,0.0,0.0,0.0,0.0,0.0,0.7098,0.8001,0.814,0.7484,0.831,0.8349,0.0,0.0,0.0,0.0,0.0,0.0,0.0,0.0,0.0,0.0,0.0,0.0,0.0,0.0,0.0,0.0,0.0,0.0,0.0,0.0,0.0,0.0,0.0,0.0,0.0,0.0,0.0,0.0,0.0,0.0,0.0,0.0,0.0,0.0,0.0,0.0,0.0,0.0,0.0,0.0,0.0,0.0,0.0,0.0,0.0,0.0,0.0,0.0,0.0,0.0,0.0,0.0,0.0,0.0,0.0,0.0,0.0,0.0,0.0,0.0,0.0,0.0,0.0,0.0,0.0,0.0,0.0,0.0,0.0,0.0,0.0,0.0,0.0,0.0,0.0,0.0,0.0,0.0,0.0,0.0,0.0,0.0,0.0,0.0,0.0,0.0,0.0,0.0,0.0,0.0,0.0,0.0,0.0,0.0,0.0,0.0,0.0,0.0,0.0,0.0,0.0,0.0,0.0,0.0,0.0,0.0,0.0,0.0,0.0,0.8763,0.924,0.9065,0.8198,0.8765,0.8711,0.7894,0.0,0.0,0.0,0.0,0.0,0.0,0.0,0.0,0.0,0.0,0.0,0.0,0.0,0.0,0.0,0.0,0.0,0.0,0.0,0.0,0.0,0.0,0.0,0.0,0.0,0.0,0.0,0.0,0.0,0.0,0.0,0.0,0.0,0.0,0.0,0.0,0.0,0.0,0.0,0.0,0.0,0.0,0.0,0.0,0.0,0.0,0.0,0.0,0.0,0.0,0.0,0.0,0.0,0.0,0.0,0.0,0.0,0.0,0.0,0.0,0.0,0.0,0.0,0.0,0.0,0.0,0.0,0.0,0.0,0.0,0.0,0.0,0.0,0.0,0.0,0.0,0.0,0.0,0.0,0.0,0.0,0.0,0.0,0.0,0.0,0.0,0.0,0.0,0.0,0.0,0.0,0.0,0.0,0.0,0.0,0.0,0.0,0.0,0.0,0.0,0.0,0.0,0.0,0.0,0.0,0.0,0.0,0.0,1.1564,1.0731,1.0239,1.0084,0.954,0.9165,0.0,0.0,0.0,0.0,0.0,0.0,0.0,0.0,0.0,0.0,0.0,0.0,0.0,0.0,0.0,0.0,0.0,0.0,0.0,0.0,0.0,0.0,0.0,0.0,0.0,0.0,0.0,0.0,0.0,0.0,0.0,0.0,0.0,0.0,0.0,0.0,0.0,0.0,0.0,0.0,0.0,0.0,0.0,0.0,0.0,0.0,0.0,0.0,0.0,0.0,0.0,0.0,0.0,0.0,0.0,0.0,0.0,0.0,0.0,0.0,0.0,0.0,0.0,0.0,0.0,0.0,0.0,0.0,0.0,0.0,0.0,0.0,0.0,0.0,0.0,0.0,0.0,0.0,0.0,0.0,0.0,0.0,0.0,0.0,0.0,0.0,0.0,0.0,0.0,0.0,0.0,0.0,0.0,0.0,0.0,0.0,0.0,0.0,0.0,0.0,0.0,0.0,0.0,0.0,0.0,0.0,0.0,0.0,0.0,1.1333,1.2191,1.2227,1.1429,1.0874,1.0112,0.0,0.0,0.0,0.0,0.0,0.0,0.0,0.0,0.0,0.0,0.0,0.0,0.0,0.0,0.0,0.0,0.0,0.0,0.0,0.0,0.0,0.0,0.0,0.0,0.0,0.0,0.0,0.0,0.0,0.0,0.0,0.0,0.0,0.0,0.0,0.0,0.0,0.0,0.0,0.0,0.0,0.0,0.0,0.0,0.0,0.0,0.0,0.0,0.0,0.0,0.0,0.0,0.0,0.0,0.0,0.0,0.0,0.0,0.0,0.0,0.0,0.0,0.0,0.0,0.0,0.0,0.0,0.0,0.0,0.0,0.0,0.0,0.0,0.0,0.0,0.0,0.0,0.0,0.0,0.0,0.0,0.0,0.0,0.0,0.0,0.0,0.0,0.0,0.0,0.0,0.0,0.0,0.0,0.0,0.0,0.0,0.0,0.0,0.0,0.0,0.0,0.0,0.0,0.0,0.0,0.0,0.0,0.0,1.0532,1.1895,1.3326,1.3558,1.2521,1.1828,1.0865,0.0,0.0,0.0,0.0,0.0,0.0,0.0,0.0,0.0,0.0,0.0,0.0,0.0,0.0,0.0,0.0,0.0,0.0,0.0,0.0,0.0,0.0,0.0,0.0,0.0,0.0,0.0,0.0,0.0,0.0,0.0,0.0,0.0,0.0,0.0,0.0,0.0,0.0,0.0,0.0,0.0,0.0,0.0,0.0,0.0,0.0,0.0,0.0,0.0,0.0,0.0,0.0,0.0,0.0,0.0,0.0,0.0,0.0,0.0,0.0,0.0,0.0,0.0,0.0,0.0,0.0,0.0,0.0,0.0,0.0,0.0,0.0,0.0,0.0,0.0,0.0,0.0,0.0,0.0,0.0,0.0,0.0,0.0,0.0,0.0,0.0,0.0,0.0,0.0,0.0,0.0,0.0,0.0,0.0,0.0,0.0,0.0,0.0,0.0,0.0,0.0,0.0,0.0,0.0,0.0,0.0,0.0,0.0,1.1446,1.2761,1.4116,1.4323,1.3291,1.2492,1.1485,0.0,0.0,0.0,0.0,0.0,0.0,0.0,0.0,0.0,0.0,0.0,0.0,0.0,0.0,0.0,0.0,0.0,0.0,0.0,0.0,0.0,0.0,0.0,0.0,0.0,0.0,0.0,0.0,0.0,0.0,0.0,0.0,0.0,0.0,0.0,0.0,0.0,0.0,0.0,0.0,0.0,0.0,0.0,0.0,0.0,0.0,0.0,0.0,0.0,0.0,0.0,0.0,0.0,0.0,0.0,0.0,0.0,0.0,0.0,0.0,0.0,0.0,0.0,0.0,0.0,0.0,0.0,0.0,0.0,0.0,0.0,0.0,0.0,0.0,0.0,0.0,0.0,0.0,0.0,0.0,0.0,0.0,0.0,0.0,0.0,0.0,0.0,0.0,0.0,0.0,0.0,0.0,0.0,0.0,0.0,0.0,0.0,0.0,0.0,0.0,0.0,0.0,0.0,0.0,0.0,0.0,0.0,0.0,1.1789,1.2636,1.3998,1.4189,1.3089,1.2731,1.2009,0.0,0.0,0.0,0.0,0.0,0.0,0.0,0.0,0.0,0.0,0.0,0.0,0.0,0.0,0.0,0.0,0.0,0.0,0.0,0.0,0.0,0.0,0.0,0.0,0.0,0.0,0.0,0.0,0.0,0.0,0.0,0.0,0.0,0.0,0.0,0.0,0.0,0.0,0.0,0.0,0.0,0.0,0.0,0.0,0.0,0.0,0.0,0.0,0.6943,0.0,0.0,0.0,0.0,0.0,0.0,0.0,0.0,0.0,0.0,0.0,0.0,0.0,0.0,0.0,0.0,0.0,0.0,0.0,0.0,0.0,0.0,0.0,0.0,0.0,0.0,0.0,0.0,0.0,0.0,0.0,0.0,0.0,0.0,0.0,0.0,0.0,0.0,0.0,0.0,0.0,0.0,0.0,0.0,0.0,0.0,0.0,0.0,0.0,0.0,0.0,0.0,0.0,0.0,0.0,0.0,0.0,0.0,0.0,1.1926,1.2566,1.383,1.4116,1.3318,1.2971,1.2033,0.0,0.0,0.0,0.0,0.0,0.0,0.0,0.0,0.0,0.0,0.0,0.0,0.0,0.0,0.0,0.0,0.0,0.0,0.0,0.0,0.0,0.0,0.0,0.0,0.0,0.0,0.0,0.0,0.0,0.0,0.0,0.0,0.0,0.0,0.0,0.0,0.0,0.0,0.0,0.0,0.0,0.0,0.0,0.0,0.0,0.0,0.0,0.0,0.0,0.0,0.0,0.0,0.0,0.0,0.0,0.0,0.0,0.0,0.0,0.0,0.0,0.0,0.0,0.0,0.0,0.0,0.0,0.0,0.0,0.0,0.0,0.0,0.0,0.0,0.0,0.0,0.0,0.0,0.0,0.0,0.0,0.0,0.0,0.0,0.0,0.0,0.0,0.0,0.0,0.0,0.0,0.0,0.0,0.0,0.0,0.0,0.0,0.0,0.0,0.0,0.0,0.0,0.0,0.0,0.0,0.0,0.0,1.0774,1.198,1.2508,1.369,1.4024,1.346,1.308,1.1862,0.9737,0.0,0.0,0.0,0.0,0.0,0.0,0.0,0.0,0.0,0.0,0.0,0.0,0.0,0.0,0.0,0.0,0.0,0.0,0.0,0.0,0.0,0.0,0.0,0.0,0.0,0.0,0.0,0.0,0.0,0.0,0.0,0.0,0.0,0.0,0.0,0.0,0.0,0.0,0.5875,0.5318,0.0,0.0,0.0,0.0,0.0,0.0,0.0,0.0,0.4511,0.0,0.0,0.0,0.0,0.0,0.0,0.0,0.0,0.0,0.0,0.0,0.0,0.0,0.0,0.0,0.0,0.0,0.0,0.0,0.0,0.0,0.0,0.0,0.0,0.0,0.0,0.0,0.0,0.0,0.0,0.0,0.0,0.0,0.0,0.0,0.0,0.0,0.0,0.0,0.0,0.0,0.0,0.0,0.0,0.0,0.0,0.0,0.0,0.0,0.0,0.0,0.0,0.0,0.0,0.0,0.0,0.8901,1.1181,1.2386,1.2508,1.369,1.3816,1.2812,1.2802,1.1713,0.9536,0.0,0.0,0.0,0.0,0.0,0.0,0.0,0.0,0.0,0.0,0.0,0.0,0.0,0.0,0.0,0.0,0.0,0.0,0.0,0.0,0.0,0.0,0.0,0.0,0.0,0.0,0.0,0.0,0.0,0.0,0.0,0.0,0.0,0.0,0.0,0.0,0.0,0.0,0.0,0.6391,0.6411,0.0,0.0,0.0,0.0,0.0,0.0,0.0,0.0,0.5568,0.0,0.0,0.0,0.0,0.0,0.0,0.0,0.0,0.0,0.0,0.0,0.0,0.0,0.0,0.0,0.0,0.0,0.0,0.0,0.0,0.0,0.0,0.0,0.0,0.0,0.0,0.0,0.0,0.0,0.0,0.0,0.0,0.0,0.0,0.0,0.0,0.0,0.0,0.0,0.0,0.0,0.0,0.0,0.0,0.0,0.0,0.0,0.0,0.0,0.0,0.0,0.0,0.0,0.0,0.0,0.9344,1.1426,1.2643,1.2968,1.3852,1.3895,1.3041,1.2471,1.1396,0.0,0.0,0.0,0.0,0.0,0.0,0.0,0.0,0.0,0.0,0.0,0.0,0.0,0.0,0.0,0.0,0.0,0.0,0.0,0.0,0.0,0.0,0.0,0.0,0.0,0.0,0.0,0.0,0.0,0.0,0.0,0.0,0.0,0.0,0.0,0.0,0.0,0.0,0.0,0.0,0.6846,0.6907,0.7646,0.0,0.0,0.0,0.0,0.0,0.0,0.6174,0.6017,0.0,0.0,0.0,0.0,0.0,0.0,0.0,0.0,0.0,0.0,0.0,0.0,0.0,0.0,0.0,0.0,0.0,0.0,0.0,0.0,0.0,0.0,0.0,0.0,0.0,0.0,0.0,0.0,0.0,0.0,0.0,0.0,0.0,0.0,0.0,0.0,0.0,0.0,0.0,0.0,0.0,0.0,0.0,0.0,0.0,0.0,0.0,0.0,0.0,0.0,0.0,0.0,0.0,0.0,0.0,0.9671,1.1508,1.2763,1.3374,1.3972,1.3945,1.324,1.2292,1.1162,0.0,0.0,0.0,0.0,0.0,0.0,0.0,0.0,0.0,0.0,0.0,0.0,0.0,0.0,0.0,0.0,0.0,0.0,0.0,0.0,0.0,0.0,0.0,0.0,0.0,0.0,0.0,0.0,0.0,0.0,0.0,0.0,0.0,0.0,0.0,0.0,0.0,0.0,0.0,0.0,0.0,0.7141,0.8456,0.8652,0.0,0.0,0.0,0.0,0.8335,0.7229,0.0,0.0,0.0,0.0,0.0,0.0,0.0,0.0,0.0,0.0,0.0,0.0,0.0,0.0,0.0,0.0,0.0,0.0,0.0,0.0,0.0,0.0,0.0,0.0,0.0,0.0,0.0,0.0,0.0,0.0,0.0,0.0,0.0,0.0,0.0,0.0,0.0,0.0,0.0,0.0,0.0,0.0,0.0,0.0,0.0,0.0,0.0,0.0,0.0,0.0,0.0,0.0,0.0,0.0,0.0,0.0,0.9534,1.1362,1.266,1.3312,1.3893,1.3693,1.2643,1.2467,1.1355,0.0,0.0,0.0,0.0,0.0,0.0,0.0,0.0,0.0,0.0,0.0,0.0,0.0,0.0,0.0,0.0,0.0,0.0,0.0,0.0,0.0,0.0,0.0,0.0,0.0,0.0,0.0,0.0,0.0,0.0,0.0,0.0,0.0,0.0,0.0,0.0,0.0,0.0,0.0,0.0,0.0,0.7313,0.8281,0.8486,0.8489,0.0,0.0,0.8263,0.8232,0.748,0.0,0.0,0.0,0.0,0.0,0.0,0.0,0.0,0.0,0.0,0.0,0.0,0.0,0.0,0.0,0.0,0.0,0.0,0.0,0.0,0.0,0.0,0.0,0.0,0.0,0.0,0.0,0.0,0.0,0.0,0.0,0.0,0.0,0.0,0.0,0.0,0.0,0.0,0.0,0.0,0.0,0.0,0.0,0.0,0.0,0.0,0.0,0.0,0.0,0.0,0.0,0.0,0.0,0.0,0.0,0.8888,0.9802,1.1557,1.2805,1.345,1.3825,1.3483,1.2365,1.2101,1.1031,0.0,0.0,0.0,0.0,0.0,0.0,0.0,0.0,0.0,0.0,0.0,0.0,0.0,0.0,0.0,0.0,0.0,0.0,0.0,0.0,0.0,0.0,0.0,0.0,0.0,0.0,0.0,0.0,0.0,0.0,0.0,0.0,0.0,0.0,0.0,0.0,0.0,0.0,0.0,0.0,0.0,0.0,0.8386,0.8367,0.0,0.0,0.0,0.9086,0.8266,0.0,0.0,0.0,0.0,0.0,0.0,0.0,0.0,0.0,0.0,0.0,0.0,0.0,0.0,0.0,0.0,0.0,0.0,0.0,0.0,0.0,0.0,0.0,0.0,0.0,0.0,0.0,0.0,0.0,0.0,0.0,0.0,0.0,0.0,0.0,0.0,0.0,0.0,0.0,0.0,0.0,0.0,0.0,0.0,0.0,0.0,0.0,0.0,0.0,0.0,0.0,0.0,0.0,0.0,0.0,0.0,0.0,0.9969,1.1667,1.2867,1.3535,1.3728,1.3293,1.2208,1.1925,0.0,0.0,0.0,0.0,0.0,0.0,0.0,0.0,0.0,0.0,0.0,0.0,0.0,0.0,0.0,0.0,0.0,0.0,0.0,0.0,0.0,0.0,0.0,0.0,0.0,0.0,0.0,0.1761,0.0,0.0,0.0,0.0,0.0,0.0,0.0,0.0,0.0,0.0,0.0,0.0,0.0,0.0,0.9455,0.8859,0.8752,0.8915,0.0,0.0,1.0225,0.8803,0.8369,0.8211,0.0,0.0,0.0,0.0,0.0,0.0,0.0,0.0,0.0,0.0,0.0,0.0,0.0,0.0,0.0,0.0,0.0,0.0,0.0,0.0,0.0,0.0,0.0,0.0,0.0,0.0,0.0,0.0,0.0,0.0,0.0,0.0,0.0,0.0,0.0,0.0,0.0,0.0,0.0,0.0,0.0,0.0,0.0,0.0,0.0,0.0,0.0,0.0,0.0,0.0,0.0,0.0,0.0,0.0,0.9206,0.9839,1.1533,1.2746,1.3399,1.3547,1.3136,1.2162,1.2269,1.1266,0.0,0.0,0.0,0.0,0.0,0.0,0.0,0.0,0.0,0.0,0.0,0.0,0.0,0.0,0.0,0.0,0.0,0.0,0.0,0.0,0.0,0.0,0.0,0.0,0.0,0.0,0.0,0.0,0.0,0.0,0.0,0.0,0.0,0.0,0.0,0.0,0.0,0.0,0.0,0.0,0.0,0.9499,1.0004,1.0016,1.0437,0.0,1.2005,1.1568,1.0189,0.8911,0.815,0.8281,0.0,0.0,0.0,0.0,0.0,0.0,0.0,0.0,0.0,0.0,0.0,0.0,0.0,0.0,0.0,0.0,0.0,0.0,0.0,0.0,0.0,0.0,0.0,0.0,0.0,0.0,0.0,0.0,0.0,0.0,0.0,0.0,0.0,0.0,0.0,0.0,0.0,0.0,0.0,0.0,0.0,0.0,0.0,0.0,0.0,0.0,0.0,0.0,0.0,0.0,0.0,0.0,0.0,0.9556,1.0104,1.176,1.2729,1.3017,1.3203,1.3002,1.2355,1.2262,1.1309,0.0,0.0,0.0,0.0,0.0,0.0,0.0,0.0,0.0,0.0,0.0,0.0,0.0,0.0,0.0,0.0,0.0,0.0,0.0,0.0,0.0,0.0,0.0,0.0,0.0,0.0,0.0,0.0,0.4033,0.4385,0.4626,0.0,0.0,0.0,0.0,0.0,0.0,0.0,0.0,0.0,0.0,0.9926,1.0124,1.0869,0.0,0.0,1.221,1.1707,1.0327,0.9665,0.9081,0.8304,0.8144,0.0,0.0,0.0,0.0,0.0,0.0,0.0,0.0,0.0,0.0,0.0,0.0,0.0,0.0,0.0,0.0,0.0,0.0,0.0,0.0,0.0,0.0,0.0,0.0,0.0,0.0,0.0,0.0,0.0,0.0,0.0,0.0,0.0,0.0,0.0,0.0,0.0,0.0,0.0,0.0,0.0,0.0,0.0,0.0,0.0,0.0,0.0,0.0,0.0,0.0,0.0,0.0,0.9749,1.0279,1.1885,1.2727,1.275,1.2943,1.285,1.242,1.2172,1.1332,0.0,0.0,0.0,0.0,0.0,0.0,0.0,0.0,0.0,0.0,0.0,0.0,0.0,0.0,0.0,0.0,0.0,0.0,0.0,0.0,0.0,0.0,0.0,0.0,0.0,0.0,0.0,0.0,0.4423,0.4417,0.4378,0.0,0.0,0.0,0.0,0.0,0.0,0.0,0.0,0.0,0.0,1.0627,1.0173,1.1291,1.2477,1.3278,1.273,1.1731,1.0312,1.0103,0.965,0.8303,0.0,0.0,0.0,0.0,0.0,0.0,0.0,0.0,0.0,0.0,0.0,0.0,0.0,0.0,0.0,0.0,0.0,0.0,0.0,0.0,0.0,0.0,0.0,0.0,0.0,0.0,0.0,0.6975,0.0,0.0,0.5846,0.0,0.0,0.0,0.0,0.0,0.0,0.0,0.0,0.0,0.0,0.0,0.0,0.0,0.0,0.0,0.0,0.0,0.0,0.0,0.0,0.0,0.0,0.9761,1.0317,1.1897,1.2692,1.2709,1.2838,1.2672,1.2238,1.2017,1.1389,1.0286,0.0,0.0,0.0,0.0,0.0,0.0,0.0,0.0,0.0,0.0,0.0,0.0,0.0,0.0,0.0,0.0,0.0,0.0,0.0,0.0,0.0,0.0,0.0,0.0,0.0,0.0,0.5477,0.4805,0.4258,0.0,0.0,0.0,0.0,0.0,0.0,0.0,0.0,0.0,0.9374,1.0921,1.1644,1.0367,1.1312,1.3078,1.5564,1.3891,1.179,1.0321,1.0103,0.9642,0.0,0.0,0.0,0.0,0.0,0.0,0.0,0.0,0.0,0.0,0.0,0.0,0.0,0.0,0.0,0.0,0.0,0.0,0.0,0.0,0.0,0.0,0.0,0.0,0.0,0.0,0.0,0.8645,0.8463,0.0,0.0,0.0,0.0,0.0,0.0,0.0,0.0,0.0,0.0,0.0,0.9052,0.8834,0.0,0.0,0.0,0.0,0.0,0.0,0.0,0.0,0.0,0.0,0.0,0.0,0.993,1.0861,1.2053,1.2692,1.2692,1.2733,1.27,1.2587,1.2291,1.1338,0.9741,0.0,0.0,0.0,0.0,0.0,0.0,0.0,0.0,0.0,0.0,0.0,0.0,0.0,0.0,0.0,0.0,0.0,0.0,0.0,0.0,0.0,0.0,0.0,0.0,0.0,0.5986,0.0,0.0,0.0,0.0,0.0,0.0,0.0,0.0,0.0,0.0,0.9825,0.9916,1.1455,1.1398,1.1606,1.2673,1.2457,1.2481,0.0,0.0,0.0,0.0,0.0,0.0,0.0,0.0,0.0,0.0,0.0,0.0,0.0,0.0,1.0932,1.1075,1.0763,1.0367,0.9945,0.0,0.0,0.0,0.0,0.0,0.0,0.0,0.0,0.0,0.0,0.0,0.0,0.0,0.0,1.0196,1.0058,0.9236,0.0,0.0,0.0,0.0,0.0,0.0,0.0,0.0,1.0464,1.0507,1.0273,0.9896,0.962,0.9431,0.9254,0.9021,0.0,0.0,0.0,0.0,0.0,0.0,0.0,0.0,1.0317,1.1351,1.2246,1.2692,1.2692,1.2692,1.2727,1.2756,1.223,1.1222,0.9693,0.8456,0.769,0.0,0.0,0.0,0.0,0.0,0.0,0.0,0.0,0.0,0.0,0.0,0.0,0.0,0.0,0.0,0.0,0.0,0.0,0.0,0.0,0.0,0.0,0.0,0.7088,0.0,0.0,0.0,0.0,0.0,0.0,0.0,0.0,0.0,1.0755,1.0356,1.047,1.1975,1.1953,1.2173,1.321,0.0,0.0,0.0,0.0,0.0,0.0,0.0,0.9791,0.8614,0.9172,0.9674,0.9419,0.8944,0.9317,1.156,0.0,0.0,1.3275,1.2827,1.1968,1.0979,1.1887,1.2467,1.1379,1.206,1.3052,0.0,0.0,0.0,0.0,1.215,0.0,0.0,0.0,1.2185,1.1931,0.0,1.0719,0.0,0.0,0.0,0.0,0.9732,1.0313,0.0,0.0,1.1539,1.1767,1.1584,1.1358,1.1233,1.1167,1.0636,1.0265,0.9981,0.8896,0.0,0.0,0.0,0.0,0.0,0.0,1.0846,1.1873,1.2432,1.2692,1.2692,1.2692,1.2692,1.2685,1.1866,1.1003,1.0187,0.9701,0.902,0.8103,0.7496,0.0,0.0,0.0,0.0,0.0,0.0,0.0,0.0,0.0,0.0,0.0,0.0,0.0,0.0,0.0,0.0,0.0,0.0,0.0,0.0,0.8576,0.0,0.0,0.0,0.0,0.0,0.0,0.0,0.0,0.0,0.9642,0.9758,1.086,1.154,1.0967,0.0,0.0,0.0,0.0,1.1504,1.15,1.1776,1.2039,1.2241,1.127,1.0208,0.9443,0.0,0.0,0.9774,0.975,1.0127,1.1282,1.1526,1.2274,1.4616,1.3575,1.2529,1.2811,1.2482,1.229,1.2796,1.3126,1.3952,1.5052,0.0,0.0,0.0,0.0,1.4425,1.471,1.4902,1.4675,1.4574,1.4502,1.3366,0.0,0.0,0.0,0.0,0.0,0.0,1.2171,1.2326,1.2161,1.1973,1.179,1.1395,1.1132,1.0999,1.0835,1.0801,1.0814,0.9983,0.9293,0.8728,0.0,0.0,0.0,0.0,1.1235,1.1868,1.2427,1.2692,1.2692,1.2692,1.2692,1.2692,1.1769,1.1188,1.1015,0.9906,0.9281,0.9196,0.7923,0.0,0.0,0.0,0.0,0.0,0.0,0.0,0.0,0.0,0.0,0.0,0.0,0.0,0.0,0.0,0.0,0.0,0.0,0.0,0.773,0.8079,0.7786,0.0,0.0,0.0,0.0,0.0,0.0,0.0,0.0,0.0,1.0878,1.0891,1.1157,0.0,0.0,1.2038,1.1645,1.1534,1.1504,1.1504,1.1578,0.0,1.2174,1.1956,1.1621,1.1198,1.0708,1.0478,1.091,1.0983,1.1103,1.1457,1.1504,1.1765,1.2449,1.3677,1.4037,1.3515,1.3441,1.3414,1.3063,1.316,1.3614,1.7042,1.6444,1.582,1.556,1.567,1.5852,1.6151,1.6439,1.6393,1.637,1.6299,1.5429,1.5038,1.4991,1.4169,0.0,0.0,0.0,1.3426,1.324,1.2886,1.2628,1.2435,1.2,1.1723,1.161,1.1297,1.1254,1.1425,1.0912,1.0459,1.0032,0.0,0.9611,1.0385,1.0994,1.1566,1.213,1.2518,1.2692,1.2692,1.2692,1.2692,1.2685,1.1689,1.1225,1.1341,1.0156,0.9518,0.9606,0.8507,0.776,0.0,0.0,0.0,0.0,0.0,0.0,0.0,0.0,0.0,0.0,0.0,0.4276,0.5227,0.0,0.0,0.0,0.7101,0.7717,0.779,0.8295,0.0,0.0,0.0,0.0,0.0,0.0,0.0,1.3586,1.2723,1.2059,1.2299,1.1969,1.1902,1.234,1.1873,1.1693,1.2172,0.0,1.1504,1.1504,1.1504,1.1615,1.1878,1.2002,1.1996,1.1784,1.1318,1.107,1.1402,1.1504,1.1504,1.1504,1.1504,1.1504,1.1504,1.2785,1.3716,1.3221,1.3136,1.307,1.2802,1.2897,1.3064,1.8456,1.8697,1.7866,1.7242,1.686,1.7339,1.7579,1.7604,1.7604,1.758,1.7496,1.6967,1.6703,1.6608,1.614,0.0,1.5188,1.4943,1.4474,1.3835,1.363,1.3432,1.3304,1.2919,1.2716,1.2696,1.2009,1.1733,1.1837,1.1602,1.1621,1.179,1.0635,1.0417,1.1123,1.148,1.1912,1.2449,1.2615,1.2692,1.2692,1.2692,1.2692,1.268,1.1668,1.1149,1.1235,1.0386,0.9767,0.9566,0.9175,0.8522,0.7594,0.0,0.0,0.0,0.0,0.0,0.0,0.0,0.0,0.0,0.0,0.0,0.0,0.0,0.0,0.779,0.8869,0.0,0.8131,0.9047,0.0,0.0,0.0,0.7451,0.6163,1.0421,1.2959,1.1668,0.0,0.0,1.3808,1.372,1.3405,1.2681,1.203,1.2071,1.3247,1.2522,1.1762,1.1562,1.1617,1.1631,1.1589,1.1638,1.1719,1.1694,1.1547,1.1474,1.15,1.1504,1.1504,1.1504,1.1504,1.1504,1.1504,1.1605,1.1725,1.2485,1.2059,1.1741,1.2329,1.25,1.2399,1.816,1.8569,1.8491,1.8537,1.8672,1.8925,1.9069,1.9215,1.9215,1.8987,1.8578,1.8036,1.7542,1.7038,1.6799,1.6438,1.591,1.5372,1.4862,1.4379,1.3781,1.3486,1.345,1.3249,1.3001,1.2689,1.2521,1.2348,1.2173,1.1879,1.1819,1.1917,1.1446,1.1378,1.1688,1.1785,1.1987,1.2264,1.2556,1.2692,1.2692,1.2692,1.2692,1.2692,1.1668,1.1114,1.1136,1.0246,0.9804,0.9942,0.9578,0.9175,0.879,0.8202,0.0,0.0,0.0,0.0,0.0,0.0,0.0,0.0,0.0,0.4226,0.5197,0.0,0.6743,0.0,0.8086,0.8722,0.9885,0.9821,0.0,0.0,0.9342,0.9127,0.8798,1.0802,1.2104,1.1773,1.2648,1.3801,1.5114,1.4748,1.431,1.4078,1.3414,1.306,1.3378,1.4035,1.3673,1.2056,1.2362,1.258,1.1736,1.1537,1.1782,1.2311,1.1914,1.1518,1.1504,1.1504,1.1504,1.1504,1.1504,1.1504,1.1504,1.1504,1.1562,1.1739,1.162,1.1552,1.1803,1.184,1.1841,1.8458,1.8775,1.9038,1.9342,1.964,1.9634,1.9847,2.0153,2.0141,1.9985,1.9696,1.9381,1.8985,1.8487,1.8235,1.7781,1.7208,1.6386,1.5766,1.5329,1.458,1.4232,1.4157,1.3905,1.3635,1.333,1.2952,1.2681,1.2459,1.21,1.1953,1.2039,1.1727,1.1662,1.1863,1.2112,1.2273,1.2287,1.2489,1.2627,1.2692,1.2692,1.2692,1.2685,1.1668,1.1114,1.1087,1.0191,0.9789,0.9983,0.9657,0.9466,0.945,0.8683,0.7798,0.0,0.0,0.0,0.0,0.0,0.0,0.0,0.0,0.0,0.0,0.0,0.8811,0.9502,0.9576,1.0023,1.1094,1.1119,1.1115,1.1198,1.1234,1.106,1.0688,1.1325,1.2265,1.3448,1.3966,1.4637,1.5649,1.5427,1.5104,1.5062,1.4708,1.4404,1.4324,1.4877,1.4776,1.3469,1.3788,1.3802,1.2551,1.2347,1.2391,1.2456,1.1974,1.1504,1.1504,1.1504,1.1504,1.1504,1.1504,1.1504,1.1504,1.1504,1.1504,1.1515,1.1523,1.1564,1.1593,1.159,1.1637,1.8808,1.8965,1.9308,1.9616,1.9944,1.9786,2.004,2.0562,2.0573,2.0526,2.0466,2.0478,2.028,1.9954,1.9572,1.9056,1.8451,1.7485,1.6768,1.6257,1.5604,1.5175,1.502,1.4649,1.4355,1.411,1.3354,1.2874,1.2706,1.2328,1.2076,1.2092,1.1761,1.1681,1.1888,1.2428,1.2613,1.2424,1.2505,1.2597,1.2692,1.2692,1.2692,1.2643,1.1656,1.1114,1.109,1.0191,0.9749,0.9867,0.96,0.9565,0.9709,0.8877,0.8314,0.0,0.7237,0.0,0.0,0.0,0.0,0.0,0.0,0.0,0.0,1.0609,1.163,1.1645,1.1723,1.1817,1.1881,1.2477,1.2951,1.3118,1.3172,1.287,1.2149,1.2194,1.3172,1.5415,1.5712,1.5726,1.5682,1.5726,1.5697,1.5521,1.5565,1.5505,1.5404,1.5314,1.5225,1.5283,1.5283,1.4761,1.3903,1.3641,1.3423,1.2746,1.2233,1.1693,1.1529,1.1504,1.1504,1.1504,1.1504,1.1504,1.1504,1.1504,1.15,1.1526,1.1564,1.1604,1.159,1.1615,1.1659,1.8178,1.8236,1.8438,1.8787,1.9222,1.9338,1.9794,2.0426,2.0456,2.0195,1.9783,1.9783,1.9625,1.9276,1.8925,1.8503,1.7996,1.741,1.6838,1.6286,1.5865,1.5503,1.5166,1.4982,1.4686,1.4317,1.3689,1.3188,1.2835,1.2344,1.2076,1.2076,1.2027,1.2073,1.2235,0.0,0.0,0.0,1.2709,1.2789,1.2698,1.2692,1.2692,1.2668,1.164,0.0,1.1143,1.0177,0.9671,0.9815,0.9805,0.0,0.0,0.0,0.0,0.0,0.0,0.0,0.0,0.0,0.0,0.0,0.9288,0.9108,1.0006,1.0504,1.0798,1.0891,1.1357,1.1832,1.2335,1.2864,1.322,1.3263,1.3509,1.3588,1.3453,1.4348,1.5092,1.4956,1.5223,1.5358,1.5254,1.5329,1.5388,1.5373,1.5448,1.5536,1.5683,1.5433,1.5283,1.5283,1.5283,1.5211,1.4979,1.4892,1.4529,1.3876,1.3352,1.2665,1.1791,1.1547,1.1518,1.1504,1.1504,1.1504,1.1504,1.1504,1.15,1.1556,1.1597,1.159,1.159,1.1648,1.1703,1.8008,1.8008,1.8212,1.8462,0.0,1.8954,1.9314,1.9789,2.0096,2.01,1.9854,1.9834,1.9667,1.9334,1.8966,1.8585,1.8189,1.7558,1.7007,1.6489,1.6141,1.571,1.5303,1.5225,1.5061,1.4754,1.4079,1.3563,1.3159,1.2521,1.215,1.2076,1.2076,1.215,1.22,1.248,1.2702,1.294,1.2768,1.2735,1.2876,1.2717,1.2627,1.2668,1.1921,0.0,0.0,0.0,0.0,0.0,0.0,0.0,0.0,0.0,0.0,0.909,0.8785,0.8793,0.9054,0.9113,0.9586,1.0611,1.0982,1.1402,1.2026,1.2112,1.2257,1.2553,1.2507,1.2644,1.3176,1.3413,1.3671,1.3998,1.434,1.448,1.4398,1.4877,1.5027,1.4479,1.459,1.4794,1.4766,1.4934,1.504,1.5056,1.5101,1.5224,1.5477,1.5403,1.5283,1.5283,1.5283,1.5283,1.5283,1.5283,1.5052,1.4297,1.3704,1.3152,1.2551,1.2446,1.226,1.1693,1.1504,1.1481,1.1399,1.1353,1.1342,1.1421,1.1455,1.146,1.1508,1.1604,1.1714,1.8193,1.8115,1.8286,1.8373,1.8414,1.8617,1.8741,1.8942,1.9616,0.0,0.0,1.9911,1.9748,1.944,1.9088,1.8731,1.8418,1.778,1.7227,1.6697,1.6348,1.5908,1.542,1.542,1.5342,1.5196,1.4395,1.3855,1.3548,1.2725,1.2234,1.215,1.211,1.2076,1.2101,1.2372,1.2757,1.3235,1.2783,1.267,1.3008,1.2718,1.2621,1.2692,1.2174,1.1947,1.2017,1.1553,1.1363,1.1512,1.115,1.0971,1.0989,1.0187,0.9955,1.0457,0.963,0.9282,0.9782,1.0401,1.0728,1.0728,1.2116,1.3289,1.3981,1.3855,1.3864,1.4232,1.372,1.3541,1.3884,1.3921,1.4113,1.4674,1.4948,1.4995,1.4747,1.4651,1.4413,1.3937,1.4072,1.4254,1.4388,1.459,1.47,1.47,1.4716,1.4824,1.5132,1.5268,1.5298,1.5358,1.5328,1.5298,1.5313,1.5313,1.5081,1.463,1.4039,1.3637,1.3661,1.3661,1.3042,1.1545,1.1402,1.1353,1.1213,1.1052,1.1038,1.1201,1.1227,1.1239,1.1327,1.1486,1.1615,1.8887,1.851,1.8545,1.8374,1.8086,1.811,1.81,1.8212,1.8931,1.9231,1.9241,1.9231,1.9108,1.8875,1.8684,1.8482,1.8313,1.8051,1.749,1.6707,1.6629,1.6171,1.543,1.542,1.5381,1.5293,1.4413,1.399,1.3813,1.2827,1.2283,1.2249,1.2141,1.2076,1.2101,1.2382,1.2613,1.2874,1.2921,1.286,1.2758,1.2812,1.2805,1.2674,1.2186,1.1963,1.207,1.1596,1.1394,1.1573,1.1527,1.1492,1.1479,1.133,1.1362,1.1483,1.1343,1.1307,1.1457,1.1561,1.1614,1.1682,1.2672,1.3833,1.4921,1.4034,1.3359,1.3311,1.3587,1.371,1.3702,1.3993,1.4228,1.4337,1.4415,1.4429,1.4365,1.4138,1.3941,1.3854,1.3838,1.4003,1.4254,1.4349,1.4365,1.4381,1.4381,1.4479,1.4794,1.5131,1.5328,1.5448,1.5373,1.5343,1.5329,1.5328,1.5241,1.5257,1.4905,1.4598,1.4613,1.4494,1.3613,1.1304,1.1246,1.1196,1.0935,1.0571,1.0671,1.0976,1.1011,1.0944,1.1111,1.1167,1.1316,1.9033,1.8607,1.8598,1.8364,1.8008,1.8008,1.8008,1.8008,1.8347,1.8506,1.8516,1.8506,1.8438,1.8371,1.8279,1.8178,1.8144,1.8042,1.7516,1.6726,1.6697,1.6239,1.5469,1.542,1.542,1.5352,1.4496,1.4043,1.3912,1.3014,1.2455,1.2308,1.215,1.2024,1.1903,1.222,1.2391,1.2439,1.2777,1.2902,1.2818,1.2766,1.2669,1.2532,1.2323,1.2323,1.2511,1.2312,1.2255,1.2463,1.219,1.204,1.2027,1.1751,1.1633,1.168,1.168,1.1725,1.1784,1.2142,1.2497,1.287,1.3406,1.3914,1.4449,1.4259,1.404,1.3879,1.3993,1.3989,1.3848,1.3945,1.4023,1.4023,1.4023,1.4023,1.4007,1.3921,1.3871,1.4007,1.3908,1.3888,1.4056,1.4056,1.4023,1.4023,1.4023,1.4108,1.4353,1.4747,1.5131,1.5343,1.5358,1.5268,1.5209,1.5268,1.5254,1.5195,1.4996,1.4873,1.4858,1.4639,1.3738,1.247,1.2301,1.2205,1.1614,1.0781,1.0699,1.114,1.0994,1.0856,1.0861,1.0873,1.1062,1.9258,1.8754,1.8754,1.8451,1.8018,1.8008,1.8008,1.7998,1.791,1.7871,1.7881,1.7969,1.8008,1.8008,1.8008,1.8008,1.8008,1.8008,1.7559,1.6755,1.6697,1.6239,1.5478,1.542,1.542,1.5332,1.4611,1.4184,1.3966,1.3227,1.2664,1.2317,1.2224,1.2067,1.185,1.2198,1.2334,1.2266,1.2709,1.2889,1.2732,1.263,1.2506,1.234,1.2389,1.2585,1.2878,1.2913,1.2995,1.3156,1.2797,1.2576,1.2563,1.2203,1.2014,1.2078,1.2106,1.214,1.227,1.2724,1.3243,1.3735,1.3881,1.3927,1.3841,1.4254,1.4529,1.442,1.4264,1.4146,1.3986,1.3878,1.3791,1.3791,1.3791,1.3808,1.3804,1.3858,1.3974,1.4173,1.4007,1.3874,1.3858,1.3825,1.3857,1.3991,1.3883,1.3841,1.398,1.4321,1.4667,1.4902,1.5085,1.5117,1.4981,1.4995,1.4995,1.4905,1.4733,1.4669,1.4608,1.4308,1.3802,1.3242,1.3441,1.332,1.252,1.1786,1.1425,1.1682,1.1362,1.1026,1.089,1.0703,1.0767,1.9971,1.9277,1.9228,1.876,1.8057,1.8018,1.8018,1.7959,1.7617,1.7441,1.75,1.7842,1.7988,1.8008,1.7998,1.8008,1.8008,1.8008,1.7516,1.6755,1.6697,1.6239,1.5439,1.542,1.542,1.5352,1.4922,1.4502,1.4107,1.3507,1.2906,1.2395,1.2406,1.2378,1.2276,1.2525,1.2647,1.2643,1.2943,1.2822,1.2317,1.2425,1.2376,1.2148,1.2204,1.2443,1.2878,1.2913,1.2995,1.3163,1.3148,1.3123,1.3098,1.3077,1.3137,1.3284,1.3313,1.3406,1.3572,1.3654,1.3709,1.3791,1.3808,1.3808,1.3791,1.3858,1.399,1.4141,1.4111,1.401,1.3908,1.3854,1.3791,1.3791,1.3791,1.3791,1.3825,1.4072,1.4206,1.4032,1.3983,1.3931,1.3854,1.3844,1.401,1.4376,1.421,1.4001,1.4051,1.4238,1.4179,1.4172,1.4429,1.4793,1.4777,1.4558,1.4513,1.458,1.4481,1.4431,1.4401,1.4157,1.3674,1.3369,1.3522,1.364,1.3618,1.3464,1.2991,1.2159,1.1886,1.1713,1.1254,1.0742,1.0578,2.0253,1.9668,1.9648,1.917,1.8403,1.8344,1.8208,1.7998,1.7832,1.7617,1.7412,1.7568,1.7637,1.7646,1.7891,1.8008,1.8008,1.8008,1.7516,1.6746,1.6697,1.6269,1.5478,1.542,1.542,1.5381,1.498,1.4697,1.4406,1.3707,1.303,1.2567,1.2529,1.2529,1.2554,1.2652,1.2725,1.2808,1.2929,1.2744,1.2295,1.2357,1.2388,1.2275,1.219,1.2383,1.2843,1.2913,1.3012,1.3193,1.321,1.321,1.321,1.321,1.3301,1.3493,1.3607,1.3708,1.3791,1.3791,1.3791,1.3791,1.3791,1.3791,1.3791,1.3791,1.3854,1.3924,1.3908,1.3874,1.3868,1.3834,1.3791,1.3791,1.3791,1.3791,1.3791,1.3937,1.3977,1.3983,1.3931,1.3878,1.3924,1.4109,1.4341,1.4611,1.4655,1.476,1.4807,1.5356,1.5178,1.4179,1.4069,1.4235,1.4332,1.417,1.4157,1.4305,1.4243,1.4179,1.4257,1.3947,1.3522,1.325,1.3539,1.3775,1.3765,1.3765,1.35,1.2742,1.2165,1.1916,1.1696,1.0938,1.0703,2.0351,1.9922,1.9805,1.9385,1.8783,1.8646,1.8432,1.813,1.7949,1.7656,1.7416,1.7256,1.7207,1.7266,1.7646,1.7891,1.7998,1.8008,1.7617,1.6953,1.6765,1.6287,1.5625,1.5449,1.542,1.5371,1.5117,1.4902,1.4707,1.3811,1.3198,1.2878,1.2694,1.2652,1.2676,1.2725,1.2808,1.2891,1.2915,1.2725,1.2439,1.2444,1.2404,1.2309,1.2114,1.2282,1.2878,1.2913,1.2995,1.3181,1.321,1.321,1.321,1.321,1.3288,1.3527,1.3678,1.3791,1.3791,1.3791,1.3791,1.3791,1.3791,1.3791,1.3791,1.3791,1.3883,1.4053,1.4158,1.4262,1.404,1.4171,1.4275,1.4275,1.4053,1.3804,1.3791,1.3791,1.3986,1.4281,1.4111,1.3926,1.4179,1.4568,1.4925,1.5178,1.5348,1.5696,1.5944,1.6571,1.6506,1.5003,1.4799,1.4542,1.4173,1.3924,1.3954,1.4023,1.4013,1.3997,1.4108,1.3745,1.3573,1.3489,1.3674,1.3758,1.3791,1.3752,1.3726,1.3252,1.2779,1.2398,1.2283,1.1604,1.1538,2.0351,1.9893,1.9492,1.9336,1.9238,1.8792,1.8588,1.8481,1.7793,1.7422,1.7334,1.6953,1.6736,1.6816,1.7239,1.7617,1.7959,1.8032,1.7797,1.7328,1.6914,1.6484,1.6056,1.5615,1.542,1.541,1.5361,1.5146,1.4774,1.3919,1.3419,1.3269,1.3002,1.2808,1.2759,1.2832,1.2881,1.2915,1.2915,1.2895,1.2831,1.2669,1.2428,1.2137,1.193,1.2191,1.2808,1.2896,1.2995,1.3181,1.321,1.321,1.321,1.3215,1.3323,1.3564,1.3711,1.3791,1.3791,1.3791,1.3791,1.3791,1.3791,1.3791,1.3791,1.3791,1.3988,1.4485,1.5029,1.5212,1.476,1.4977,1.5283,1.5257,1.4441,1.3988,1.387,1.4118,1.4367,1.5013,1.4563,1.4302,1.4807,1.5212,1.5657,1.5944,1.584,1.5879,1.6728,1.7133,1.7003,1.6911,1.6663,1.6304,1.4424,1.4004,1.3952,1.395,1.401,1.3838,1.3741,1.3674,1.3674,1.3687,1.3754,1.3791,1.3791,1.3791,1.3778,1.3621,1.3582,1.3317,1.2912,1.3356,1.3213,2.0517,2.0351,2.0204,1.9951,1.9648,1.9228,1.8861,1.8559,1.8037,1.7627,1.7334,1.6924,1.6792,1.6876,1.6748,1.7083,1.7744,1.814,1.8108,1.7703,1.7243,1.6805,1.6377,1.5861,1.5575,1.5575,1.5478,1.5195,1.4766,1.4189,1.3743,1.3416,1.3061,1.2856,1.2856,1.2881,1.2915,1.2915,1.2915,1.2915,1.2876,1.2625,1.2359,1.2184,1.2138,1.2313,1.2745,1.2803,1.2943,1.321,1.321,1.321,1.3228,1.3323,1.3506,1.3695,1.3775,1.3791,1.3791,1.3791,1.3791,1.3791,1.3791,1.3817,1.3791,1.3804,1.3896,1.4328,1.5728,1.6238,1.5715,1.5545,1.55,1.5461,1.5375,1.5139,1.5113,1.55,1.6153,1.6323,1.5604,1.5139,1.5545,1.5924,1.614,1.6349,1.648,1.6754,1.7029,1.7212,1.7212,1.7212,1.7186,1.695,1.6317,1.5055,1.448,1.4245,1.4132,1.3952,1.381,1.3767,1.3767,1.3738,1.3775,1.3791,1.3791,1.3791,1.3791,1.3791,1.3791,1.3726,1.3517,1.3674,1.3566,2.0615,2.0615,2.0615,2.04,2.0068,1.9558,1.9121,1.8754,1.8217,1.7852,1.7519,1.7024,1.6876,1.6923,1.6637,1.6757,1.7388,1.7981,1.8204,1.8089,1.7634,1.7201,1.6749,1.6168,1.583,1.5692,1.5507,1.5254,1.4951,1.4387,1.3968,1.3701,1.3199,1.2915,1.2915,1.2915,1.2915,1.2915,1.2915,1.2915,1.2866,1.2716,1.2503,1.235,1.2467,1.2541,1.2615,1.2697,1.2903,1.3159,1.321,1.321,1.3228,1.3391,1.3577,1.3758,1.3791,1.3791,1.3791,1.3791,1.3791,1.3791,1.3804,1.3892,1.4245,1.4232,1.4271,1.4851,1.6029,1.6958,1.6565,1.6225,1.6068,1.6094,1.6291,1.6343,1.6147,1.6715,1.7081,1.7029,1.6519,1.6238,1.6395,1.6558,1.6637,1.665,1.6977,1.7186,1.7212,1.7212,1.7212,1.7212,1.7212,1.7199,1.6794,1.5957,1.5076,1.4768,1.4676,1.438,1.404,1.3975,1.3817,1.3804,1.3817,1.3804,1.3791,1.3791,1.3804,1.3804,1.3791,1.3752,1.3713,1.3752,1.3644,2.0615,2.0615,2.0615,2.0586,2.0439,1.9715,1.9307,1.9111,1.8398,1.8027,1.7866,1.7293,1.7002,1.6965,1.6759,1.6797,1.7022,1.7578,1.8089,1.8361,1.8061,1.7647,1.7192,1.6567,1.6059,1.5721,1.5507,1.541,1.5341,1.46,1.4133,1.3948,1.3311,1.2964,1.2915,1.2915,1.2915,1.2915,1.2915,1.2915,1.2929,1.2963,1.2821,1.2549,1.2799,1.2805,1.2457,1.2651,1.2961,1.3241,1.3273,1.3223,1.3257,1.3404,1.3594,1.3771,1.3817,1.3817,1.3817,1.3883,1.4001,1.4001,1.3896,1.4376,1.5139,1.5108,1.516,1.5741,1.6591,1.716,1.7133,1.7055,1.7016,1.7173,1.7055,1.7042,1.7094,1.716,1.7212,1.7186,1.7042,1.716,1.7173,1.7107,1.7081,1.7094,1.716,1.7212,1.7212,1.7212,1.7212,1.7212,1.7212,1.7212,1.7016,1.6702,1.5912,1.5298,1.5278,1.5108,1.4642,1.4419,1.3909,1.3831,1.4262,1.4249,1.3857,1.3857,1.3883,1.3883,1.3844,1.3817,1.3791,1.3791,1.3791,2.0615,2.0615,2.0615,2.0615,2.0537,1.9961,1.957,1.9248,1.8672,1.8316,1.8083,1.7357,1.7128,1.7133,1.6656,1.656,1.6937,1.7226,1.7677,1.8303,1.8282,1.7985,1.7492,1.683,1.6237,1.5761,1.5643,1.5604,1.5477,1.4994,1.4535,1.4072,1.3558,1.3164,1.2935,1.2915,1.2915,1.2915,1.2915,1.2915,1.2915,1.2929,1.2748,1.2378,1.2561,1.2598,1.2507,1.304,1.3597,1.4024,1.3834,1.3545,1.332,1.3391,1.3607,1.381,1.4167,1.4158,1.3961,1.4524,1.493,1.4938,1.4925,1.5257,1.578,1.5793,1.5715,1.5859,1.6571,1.7212,1.7212,1.7212,1.7212,1.7212,1.7212,1.7212,1.7212,1.7212,1.7212,1.7212,1.7212,1.7212,1.7212,1.7212,1.7212,1.7212,1.7212,1.7212,1.7212,1.7212,1.7212,1.7212,1.7212,1.7212,1.7081,1.7003,1.6611,1.6062,1.5931,1.5853,1.5382,1.499,1.4419,1.4302,1.4694,1.472,1.4271,1.3971,1.4036,1.3988,1.3948,1.3896,1.3817,1.3804,1.3817,2.0615,2.0615,2.0615,2.0615,2.0556,2.0174,1.9878,1.9553,1.9029,1.8765,1.846,1.761,1.7284,1.7287,1.6591,1.6453,1.6779,1.6934,1.7399,1.8092,1.833,1.8143,1.7616,1.6788,1.6185,1.5819,1.5769,1.574,1.5652,1.5236,1.4787,1.4363,1.3799,1.3389,1.313,1.2974,1.2915,1.2915,1.2915,1.2915,1.2915,1.2915,1.2768,1.2543,1.2635,1.2777,1.295,1.3596,1.4097,1.4297,1.4106,1.3738,1.329,1.3582,1.4007,1.4406,1.4676,1.4729,1.4393,1.4977,1.5251,1.5034,1.5238,1.58,1.6277,1.6382,1.6133,1.6304,1.6767,1.7212,1.7212,1.7212,1.7212,1.7212,1.7212,1.7212,1.7212,1.7212,1.7212,1.7212,1.7212,1.7212,1.7212,1.7212,1.7212,1.7212,1.7212,1.7212,1.7212,1.7212,1.7212,1.7212,1.7212,1.7212,1.7212,1.7186,1.7199,1.6872,1.6584,1.648,1.6219,1.5983,1.5565,1.567,1.597,1.6036,1.567,1.476,1.4446,1.4275,1.4206,1.4341,1.438,1.3935,1.3935,2.0615,2.0615,2.0615,2.0615,2.0595,2.0327,2.0205,2.0044,1.9539,1.9219,1.8956,1.8027,1.7522,1.7359,1.6791,1.6498,1.6456,1.6777,1.7213,1.7719,1.8092,1.8071,1.7564,1.6705,1.6132,1.5837,1.5846,1.5846,1.5739,1.539,1.4972,1.4714,1.4069,1.3545,1.3428,1.3096,1.2964,1.2915,1.2915,1.2915,1.2915,1.2915,1.2905,1.2866,1.2953,1.3154,1.3462,1.406,1.4381,1.4273,1.4304,1.3998,1.3514,1.3981,1.4743,1.5468,1.5565,1.5304,1.5121,1.5474,1.5414,1.472,1.5343,1.6009,1.6859,1.6728,1.6624,1.695,1.7146,1.7212,1.7212,1.7212,1.7212,1.7212,1.7212,1.7212,1.7212,1.7212,1.7212,1.7212,1.7212,1.7212,1.7212,1.7212,1.7212,1.7212,1.7212,1.7212,1.7212,1.7212,1.7212,1.7212,1.7212,1.7212,1.7212,1.7212,1.7212,1.7133,1.6945,1.6872,1.6833,1.6663,1.6571,1.6741,1.682,1.6963,1.6741,1.5722,1.5029,1.4833,1.4886,1.5029,1.4877,1.4485,1.4406,2.0615,2.0615,2.0615,2.0615,2.0595,2.0681,2.052,2.02,1.9875,1.9611,1.9225,1.8387,1.782,1.7595,1.7099,1.6694,1.6487,1.6529,1.7015,1.7637,1.7802,1.776,1.7492,1.693,1.6401,1.605,1.5999,1.6009,1.5999,1.5839,1.5485,1.4934,1.4688,1.4172,1.361,1.3408,1.3174,1.2954,1.2915,1.2915,1.2915,1.2915,1.2915,1.2905,1.2939,1.3079,1.3386,1.4351,1.4932,1.4973,1.5154,1.4613,1.3609,1.4396,1.5473,1.6368,1.6336,1.5937,1.567,1.6205,1.6493,1.6362,1.6415,1.6859,1.7133,1.7081,1.7055,1.7212,1.7212,1.7212,1.7212,1.7212,1.7212,1.7212,1.7212,1.7212,1.7212,1.7212,1.7212,1.7212,1.7212,1.7264,1.7316,1.7303,1.7303,1.7303,1.729,1.7225,1.7238,1.7212,1.7212,1.7212,1.7212,1.7212,1.7212,1.7212,1.7212,1.7212,1.7133,1.7107,1.7081,1.7016,1.7029,1.712,1.7029,1.712,1.6977,1.6428,1.5983,1.5507,1.5395,1.5434,1.5408,1.5204,1.5218,2.0615,2.0615,2.0615,2.0615,2.0644,2.0896,2.0891,2.0599,2.0248,2.0022,1.9657,1.8693,1.8027,1.7678,1.7213,1.6798,1.6436,1.6581,1.7037,1.7657,1.8122,1.8007,1.7533,1.7072,1.6611,1.6155,1.6181,1.6153,1.6114,1.6124,1.58,1.5334,1.5069,1.4658,1.4102,1.3643,1.3398,1.3154,1.3023,1.2915,1.2915,1.2915,1.2915,1.2915,1.2954,1.3152,1.3671,1.4593,1.5205,1.5422,1.5579,1.5341,1.4777,1.512,1.5999,1.6988,1.6796,1.6511,1.6415,1.6872,1.716,1.7186,1.7212,1.7212,1.7212,1.7212,1.7212,1.7212,1.7212,1.7212,1.7212,1.7212,1.7212,1.7212,1.7212,1.7212,1.7212,1.7212,1.7212,1.7251,1.7421,1.7695,1.7865,1.7904,1.7904,1.7917,1.7852,1.7578,1.7324,1.7277,1.7356,1.7512,1.7813,1.8035,1.7826,1.7721,1.7678,1.7625,1.7212,1.7212,1.7212,1.7212,1.7212,1.7212,1.7212,1.7173,1.7042,1.6937,1.6715,1.631,1.6036,1.5944,1.6023,1.597,1.6016,2.0615,2.0615,2.0615,2.0615,2.0644,2.1051,2.1156,2.11,2.0595,2.0339,2.0075,1.9034,1.8215,1.7678,1.7327,1.6831,1.6444,1.6788,1.7296,1.7905,1.8464,1.8482,1.7574,1.7286,1.6763,1.6263,1.6316,1.6278,1.621,1.6153,1.598,1.5668,1.5294,1.5012,1.4588,1.4033,1.3652,1.3428,1.3164,1.2993,1.2959,1.2954,1.2954,1.2992,1.3089,1.3488,1.4082,1.4777,1.5288,1.5768,1.5781,1.5978,1.6283,1.6098,1.6286,1.6747,1.693,1.6983,1.7126,1.712,1.7212,1.7212,1.7212,1.7212,1.7212,1.7212,1.7212,1.7212,1.7212,1.7212,1.7212,1.7212,1.7212,1.7212,1.7212,1.7212,1.7225,1.7303,1.7342,1.7264,1.7748,1.8401,1.8858,1.8963,1.8845,1.844,1.8375,1.8153,1.8074,1.8292,1.8257,1.8231,1.861,1.9104,1.8715,1.8296,1.8192,1.8096,1.7434,1.7212,1.7212,1.7212,1.7212,1.7212,1.7212,1.7212,1.7173,1.7107,1.7055,1.6963,1.6584,1.6741,1.6958,1.6767,1.6715,2.0615,2.0615,2.0615,2.0615,2.0644,2.1012,2.1215,2.1173,2.0642,2.0374,2.0182,1.9344,1.8475,1.7699,1.7544,1.713,1.6508,1.6862,1.742,1.8268,1.8818,1.8537,1.7822,1.7523,1.7089,1.6531,1.6345,1.6374,1.6306,1.6278,1.6173,1.5855,1.5697,1.5412,1.4813,1.457,1.4131,1.3633,1.3408,1.3233,1.3096,1.3036,1.3065,1.3142,1.3262,1.361,1.4176,1.4777,1.5323,1.5756,1.612,1.6337,1.6446,1.6494,1.6579,1.6748,1.6918,1.7065,1.7157,1.7178,1.7212,1.7212,1.7212,1.7212,1.7212,1.7212,1.7212,1.7212,1.7212,1.7212,1.7212,1.7212,1.7264,1.729,1.7238,1.7238,1.7369,1.8022,1.8166,1.78,1.8192,1.912,2.007,1.9379,1.9146,1.8976,1.8872,1.8741,1.8924,1.9235,1.9248,1.9169,1.9444,1.9863,1.9666,1.9159,1.8819,1.8633,1.7996,1.7264,1.7264,1.7421,1.7499,1.7382,1.7212,1.7212,1.7212,1.7199,1.7133,1.712,1.7107,1.712,1.7146,1.7199,1.7212,2.0615,2.0615,2.0615,2.0615,2.0644,2.1012,2.1215,2.111,2.0642,2.0374,2.0224,1.9502,1.8611,1.773,1.7668,1.7233,1.6715,1.7058,1.7854,1.8621,1.8984,1.8568,1.7864,1.7626,1.7244,1.6527,1.6402,1.6402,1.6402,1.6374,1.6241,1.5914,1.5914,1.5611,1.5087,1.4902,1.4588,1.4131,1.3682,1.3429,1.3387,1.3174,1.3186,1.3276,1.3396,1.3681,1.4269,1.4811,1.5323,1.5792,1.6253,1.6513,1.6513,1.6565,1.662,1.6684,1.6803,1.691,1.6981,1.7073,1.7136,1.7199,1.7199,1.7212,1.7212,1.7212,1.7212,1.7212,1.7212,1.7212,1.7225,1.7539,1.7591,1.7565,1.7369,1.7408,1.8022,1.9002,1.9588,1.8999,1.9208,1.9771,2.002,1.9797,1.9836,1.985,1.9876,1.9758,1.9823,2.0072,2.024,2.028,2.0424,2.0555,2.0502,2.0098,1.9522,1.9172,1.8715,1.7904,1.7382,1.763,1.7891,1.7774,1.7669,1.7238,1.7212,1.7212,1.7238,1.7212,1.7199,1.7212,1.7238,1.729,1.7264,2.0615,2.0615,2.0615,2.0615,2.0644,2.1002,2.1215,2.1113,2.0642,2.0374,2.0213,1.9417,1.8454,1.7823,1.7595,1.716,1.6995,1.7315,1.8143,1.8953,1.8922,1.8444,1.7833,1.7533,1.7151,1.6464,1.6402,1.6402,1.6402,1.6374,1.623,1.599,1.5943,1.5777,1.5457,1.5183,1.4936,1.4672,1.4165,1.3755,1.368,1.3422,1.3375,1.3396,1.3443,1.3752,1.4316,1.4834,1.5334,1.5792,1.6262,1.6457,1.6513,1.6513,1.6513,1.6522,1.6641,1.6761,1.6846,1.6939,1.7065,1.7157,1.7199,1.7199,1.7212,1.7212,1.7212,1.7212,1.7212,1.7212,1.7238,1.7682,1.7996,1.8022,1.7656,1.797,1.8819,1.9941,2.0398,2.0463,2.0059,2.0242,2.0489,2.045,2.0594,2.0699,2.0699,2.0699,2.0699,2.0699,2.0699,2.0699,2.0699,2.0699,2.066,2.0594,2.0046,1.9616,1.9251,1.8649,1.7957,1.8567,1.8894,1.8436,1.8188,1.7952,1.7565,1.7369,1.7369,1.7316,1.7486,1.7695,1.7617,1.7434,1.7395,2.0615,2.0615,2.0615,2.0615,2.0644,2.1012,2.1215,2.1092,2.0606,2.0385,2.0189,1.9075,1.8247,1.7699,1.7275,1.7213,1.7378,1.7678,1.8195,1.887,1.8745,1.8206,1.7688,1.7337,1.6872,1.6519,1.6402,1.6402,1.6402,1.6374,1.6249,1.6095,1.6066,1.5951,1.5807,1.5717,1.5373,1.5099,1.4725,1.443,1.4051,1.3816,1.3634,1.3577,1.3549,1.3847,1.435,1.4857,1.5334,1.577,1.6241,1.6457,1.6513,1.6513,1.6513,1.6522,1.6599,1.6697,1.6718,1.6876,1.6981,1.7065,1.718,1.7191,1.7212,1.7238,1.7282,1.7178,1.7178,1.7199,1.7225,1.777,1.8052,1.8166,1.8506,1.8715,1.9159,1.9915,2.0673,2.0673,2.0581,2.0491,2.062,2.0699,2.0699,2.0699,2.0699,2.0699,2.0699,2.0699,2.0699,2.0699,2.0699,2.0699,2.0686,2.0646,2.0386,1.9993,1.963,1.9433,1.9172,1.985,1.9991,1.9444,1.9339,1.9405,1.8855,1.8061,1.797,1.827,1.8296,1.827,1.8179,1.8061,1.7787,2.0615,2.0615,2.0615,2.0615,2.0683,2.1012,2.1215,2.1113,2.0626,2.0261,1.9799,1.8899,1.7988,1.744,1.7151,1.7234,1.7606,1.7719,1.8123,1.8579,1.8497,1.7988,1.745,1.7089,1.6798,1.6487,1.6402,1.6402,1.6402,1.6402,1.6278,1.6153,1.6114,1.6038,1.5904,1.5865,1.5707,1.5402,1.5239,1.5004,1.4556,1.4301,1.3953,1.3683,1.3644,1.3905,1.4373,1.4857,1.5311,1.578,1.6241,1.6457,1.6513,1.6513,1.6513,1.6522,1.6565,1.6599,1.6633,1.6748,1.6812,1.6884,1.7192,1.7303,1.7294,1.7372,1.7454,1.7203,1.7052,1.7052,1.7057,1.7847,1.8264,1.8542,1.9157,1.9695,1.9928,2.0373,2.0594,2.0699,2.0646,2.062,2.0646,2.0699,2.0699,2.0699,2.0699,2.0699,2.0699,2.0699,2.0699,2.0699,2.0699,2.0699,2.0699,2.0673,2.066,2.0294,2.0072,1.9852,1.9941,2.0398,2.0568,2.0371,2.0463,2.0371,2.0214,1.9457,1.9365,1.9146,1.9068,1.8976,1.8845,1.8662,1.8466,2.0615,2.0615,2.0615,2.0615,2.0654,2.1041,2.1145,2.0999,2.0575,2.0172,1.9689,1.8735,1.7843,1.7254,1.7037,1.7151,1.7657,1.7709,1.7999,1.8331,1.8311,1.7812,1.7293,1.695,1.6782,1.6569,1.6449,1.6431,1.6402,1.6402,1.6306,1.6249,1.6153,1.6095,1.6048,1.6058,1.5914,1.5764,1.5582,1.5416,1.5131,1.4619,1.4148,1.3741,1.3672,1.3858,1.4373,1.4857,1.5311,1.578,1.6219,1.6513,1.6513,1.6513,1.6513,1.6513,1.6513,1.6513,1.6556,1.662,1.6718,1.6752,1.722,1.7346,1.7573,1.7779,1.7885,1.7415,1.7303,1.7269,1.7397,1.8118,1.8654,1.8973,1.9762,2.056,2.0468,2.0585,2.0622,2.0699,2.0699,2.0674,2.0674,2.0699,2.0699,2.0699,2.0699,2.0699,2.0699,2.0699,2.0699,2.0699,2.0699,2.0699,2.0699,2.0699,2.0686,2.0568,2.0438,2.0347,2.0425,2.0646,2.0699,2.0699,2.0673,2.0581,2.0673,2.0686,2.0203,1.9889,1.9786,1.9721,1.9643,1.9601,1.9457,2.0615,2.0615,2.0615,2.0615,2.0654,2.1031,2.0964,2.0581,2.0468,2.0182,1.9658,1.8444,1.773,1.7368,1.6757,1.6995,1.7492,1.773,1.7895,1.8237,1.8114,1.7839,1.74,1.7005,1.691,1.6722,1.6637,1.6506,1.6431,1.6402,1.6374,1.6335,1.6306,1.6345,1.6288,1.6259,1.622,1.6075,1.5985,1.579,1.5341,1.4743,1.4382,1.4159,1.3945,1.3918,1.4459,1.4913,1.5324,1.577,1.6241,1.6479,1.6513,1.6513,1.6513,1.6513,1.6513,1.6513,1.6534,1.6599,1.6675,1.6709,1.7025,1.75,1.806,1.8164,1.8217,1.8392,1.8252,1.8076,1.7951,1.8661,1.9156,1.9401,1.9771,2.0168,2.0283,2.0624,2.0674,2.0649,2.0624,2.0649,2.0649,2.0674,2.0699,2.0699,2.0699,2.0699,2.0699,2.0699,2.0699,2.0699,2.0699,2.0699,2.0699,2.0699,2.0699,2.0699,2.0699,2.0699,2.0699,2.0699,2.0699,2.0699,2.0699,2.0699,2.0699,2.0673,2.062,2.0478,2.0268,2.036,2.0555,2.0463,2.0216,2.0615,2.0615,2.0615,2.0615,2.0615,2.0743,2.0685,2.0457,2.018,1.9789,1.9264,1.8237,1.744,1.7036,1.6527,1.6891,1.7544,1.7709,1.7781,1.8062,1.8008,1.7818,1.7363,1.7129,1.7022,1.7011,1.6825,1.6563,1.6449,1.6402,1.6402,1.6402,1.6402,1.6374,1.6402,1.6402,1.6278,1.6153,1.6073,1.5907,1.5581,1.5244,1.4956,1.4682,1.448,1.45,1.4712,1.5051,1.5349,1.5709,1.6088,1.6349,1.6436,1.6479,1.6513,1.6525,1.6839,1.6826,1.6563,1.6602,1.6624,1.675,1.7115,1.7913,1.8764,1.8792,1.8416,1.8309,1.8333,1.8309,1.8423,1.8852,1.8965,1.9243,1.9686,1.9864,2.0093,2.0485,2.0674,2.0624,2.0549,2.0498,2.0498,2.0599,2.0624,2.0624,2.0649,2.0699,2.0699,2.0699,2.0699,2.0699,2.0699,2.0699,2.0699,2.0699,2.0699,2.0699,2.0699,2.0699,2.0699,2.0699,2.0699,2.0699,2.0699,2.0699,2.0699,2.0686,2.066,2.0673,2.0686,2.0699,2.0699,2.0673,2.0502,2.0507,2.0605,2.0615,2.0615,2.0624,2.0643,2.0534,2.027,2.0078,1.9658,1.8982,1.8257,1.7471,1.6858,1.6784,1.7134,1.7801,1.7853,1.7831,1.7922,1.8071,1.8031,1.771,1.7457,1.7446,1.7424,1.7217,1.6948,1.6733,1.663,1.6602,1.6402,1.6402,1.6402,1.6402,1.6374,1.6316,1.621,1.621,1.6102,1.589,1.5742,1.5463,1.5235,1.5091,1.5012,1.5049,1.5132,1.532,1.5648,1.5895,1.6154,1.6306,1.6436,1.6638,1.6785,1.7137,1.7262,1.7027,1.6948,1.6751,1.6939,1.7453,1.8404,1.9397,1.9233,1.8932,1.8768,1.8756,1.8832,1.8945,1.9158,1.9221,1.9334,1.9535,1.9673,1.985,2.0195,2.0385,2.0271,2.0207,2.0207,2.0258,2.0435,2.0524,2.0549,2.0624,2.0674,2.0699,2.0699,2.0699,2.0699,2.0699,2.0699,2.0699,2.0699,2.0699,2.0699,2.0699,2.0699,2.0699,2.0699,2.0699,2.0699,2.0699,2.0699,2.0699,2.0699,2.0699,2.0699,2.0699,2.0699,2.0699,2.0699,2.0699,2.0195,2.0615,2.0615,2.0615,2.0634,2.1021,2.0634,2.0038,2.0196,1.9799,1.9025,1.8526,1.8009,1.7595,1.7319,1.7511,1.8171,1.8355,1.8207,1.8267,1.8545,1.8531,1.8225,1.8034,1.8034,1.7995,1.776,1.7468,1.7217,1.7162,1.6864,1.6477,1.6591,1.6449,1.6459,1.6545,1.6516,1.6449,1.6449,1.6449,1.6279,1.6081,1.5783,1.5641,1.5319,1.5096,1.5354,1.5357,1.5452,1.5867,1.604,1.6244,1.6527,1.6701,1.6964,1.7275,1.7526,1.7702,1.7702,1.7513,1.735,1.7586,1.8078,1.8832,1.966,1.9786,1.966,1.9522,1.9384,1.9484,1.961,1.971,1.9572,1.9597,1.9648,1.9698,1.9798,1.9824,1.9952,1.9875,1.9875,1.9965,2.0029,2.0182,2.0309,2.0359,2.0485,2.0536,2.0674,2.0699,2.0699,2.0699,2.0699,2.0699,2.0699,2.0699,2.0699,2.0699,2.0699,2.0699,2.0699,2.0699,2.0699,2.0699,2.0699,2.0699,2.0699,2.0699,2.0699,2.0699,2.0699,2.0699,2.0699,2.0699,2.0699,2.0176,2.0605,2.0615,2.0615,2.0586,2.0713,2.0554,2.0246,2.0078,1.9523,1.8694,1.8476,1.8143,1.775,1.7576,1.7794,1.8378,1.8397,1.8422,1.8604,1.8851,1.8909,1.8697,1.8664,1.864,1.8587,1.8344,1.8061,1.7788,1.7776,1.7694,1.7429,1.7145,1.6959,1.6902,1.6892,1.6892,1.6892,1.6892,1.6892,1.686,1.6774,1.6614,1.6582,1.6518,1.6283,1.628,1.6218,1.6297,1.6421,1.6634,1.6844,1.7073,1.7302,1.7578,1.789,1.8116,1.8292,1.8229,1.8053,1.7903,1.8016,1.8518,1.9146,1.9736,1.9798,1.9798,1.9786,1.9798,1.9798,1.9786,1.9786,1.9761,1.9786,1.9798,1.9798,1.9798,1.9798,1.9798,1.9824,1.9824,1.985,1.9888,1.9939,2.0067,2.0182,2.0309,2.046,2.0586,2.0674,2.0674,2.0674,2.0674,2.0699,2.0699,2.0699,2.0699,2.0699,2.0699,2.0699,2.0699,2.0699,2.0699,2.0699,2.0699,2.0699,2.0699,2.0699,2.0699,2.0699,2.0699,2.0699,2.0699,2.0699,2.0699,2.0059,2.0586,2.0615,2.0615,2.0605,2.0663,2.0624,2.0447,2.0139,1.9482,1.8631,1.86,1.8433,1.8134,1.7888,1.811,1.8569,1.8686,1.8743,1.9013,1.9364,1.9487,1.9411,1.9359,1.938,1.9272,1.8893,1.8578,1.8387,1.8375,1.8348,1.8224,1.8018,1.7772,1.7496,1.7484,1.7457,1.7457,1.7484,1.7484,1.7484,1.7462,1.7462,1.7451,1.7396,1.734,1.7147,1.7033,1.7003,1.7105,1.7264,1.7485,1.7762,1.8026,1.8268,1.8518,1.8694,1.8832,1.8744,1.8518,1.8356,1.8254,1.8894,1.9384,1.9685,1.9798,1.9798,1.9798,1.9798,1.9798,1.9798,1.9798,1.9798,1.9798,1.9798,1.9798,1.9798,1.9798,1.9798,1.9798,1.9798,1.9798,1.9824,1.985,1.9914,1.9991,2.0042,2.0271,2.0611,2.0674,2.0586,2.0599,2.0624,2.0649,2.0699,2.0751,2.0777,2.0699,2.0699,2.0699,2.0699,2.0699,2.0699,2.0699,2.0699,2.0699,2.0699,2.0699,2.0699,2.0699,2.0699,2.0699,2.0699,2.0699,2.0699,1.9832,2.0576,2.0605,2.0615,2.0644,2.0992,2.0905,2.0561,2.0334,1.9806,1.9044,1.8992,1.9025,1.8864,1.8489,1.8648,1.8929,1.9063,1.9101,1.9306,1.9867,2.0251,2.0235,2.0082,2.0035,1.9981,1.9629,1.924,1.8987,1.8975,1.896,1.8987,1.8842,1.8575,1.8159,1.8093,1.8093,1.8066,1.8093,1.8104,1.8077,1.8066,1.8077,1.8088,1.8077,1.8051,1.7963,1.7736,1.7711,1.7863,1.7795,1.7922,1.8093,1.8311,1.8594,1.897,1.9008,1.9246,1.961,1.9221,1.8832,1.8569,1.9271,1.9673,1.9773,1.9798,1.9798,1.9798,1.9798,1.9798,1.9798,1.9798,1.9798,1.9798,1.9798,1.9798,1.9798,1.9798,1.9798,1.9798,1.9798,1.9798,1.9798,1.9798,1.9824,1.9824,1.9824,2.0067,2.046,2.0576,2.0501,2.1017,2.1056,2.0989,2.1027,2.0908,2.0856,2.0764,2.0817,2.0961,2.083,2.0699,2.0699,2.0725,2.0699,2.0699,2.0699,2.0699,2.0699,2.0699,2.0699,2.0699,2.0699,2.0699,2.0699,1.9619,2.0156,2.0478,2.0615,2.0644,2.0896,2.0923,2.0683,2.0272,1.962,1.9018,1.8918,1.8975,1.9022,1.9115,1.9124,1.9326,1.9439,1.9495,1.9622,2.012,2.0287,2.0428,2.059,2.054,2.0493,2.0215,1.9863,1.9552,1.9474,1.95,1.9514,1.9422,1.9239,1.8842,1.8709,1.8709,1.8709,1.8682,1.8682,1.8709,1.8709,1.8709,1.8682,1.8682,1.867,1.867,1.8451,1.8508,1.8638,1.8579,1.8731,1.887,1.9083,1.9284,1.9497,1.9522,1.9572,1.9761,1.9585,1.9484,1.9434,1.951,1.9798,1.9798,1.9798,1.9798,1.9798,1.9798,1.9798,1.9798,1.9798,1.9798,1.9798,1.9798,1.9798,1.9798,1.9798,1.9798,1.9798,1.9798,1.9849,1.9887,2.0125,2.0175,1.9962,1.9936,1.9836,2.0118,2.0296,2.0383,2.1382,2.1759,2.1563,2.1472,2.1603,2.1708,2.1747,2.1616,2.155,2.1315,2.0987,2.1,2.1158,2.0935,2.0699,2.0725,2.0738,2.0699,2.0699,2.0699,2.0699,2.0699,2.0699,2.0699,1.9358,1.9932,2.0215,2.0478,2.0634,2.0819,2.0806,2.0494,1.9942,1.9328,1.8886,1.8808,1.8908,1.9095,1.9244,1.959,1.9737,1.9875,2.0238,2.0296,2.0413,2.0838,2.1129,2.1043,2.1029,2.093,2.0704,2.0376,1.9772,1.9798,1.9773,1.9747,1.9798,1.9578,1.9344,1.9265,1.9265,1.9265,1.9265,1.9253,1.9265,1.9265,1.9277,1.9265,1.9265,1.9265,1.9265,1.9291,1.9279,1.9396,1.95,1.9591,1.9682,1.9759,1.9798,1.9798,1.9798,1.9798,1.9786,1.9786,1.9698,1.9723,1.9798,1.9798,1.9798,1.9798,1.9798,1.9798,1.9798,1.9798,1.9798,1.9798,1.9798,1.9798,1.9798,1.9798,1.9798,1.9798,1.9798,1.9798,1.9861,1.9925,2.0138,2.0376,2.0627,2.0351,2.0087,1.9987,1.9936,2.0238,2.0727,2.1744,2.2341,2.2157,2.2274,2.2633,2.2699,2.2727,2.2493,2.2179,2.1904,2.1629,2.1616,2.1524,2.1237,2.0975,2.0805,2.0766,2.0923,2.0869,2.0699,2.0699,2.0699,2.0699,2.0699,1.9095,1.9844,1.9912,2.0185,2.0605,2.0691,2.0416,1.9841,1.9399,1.9016,1.8785,1.8741,1.8841,1.9015,1.9115,1.9544,2.0141,2.027,2.0726,2.1113,2.1066,2.1594,2.1757,2.1644,2.1408,2.1257,2.1018,2.0553,1.9886,1.9798,1.9798,1.9798,1.9798,1.9734,1.9708,1.9682,1.9669,1.9643,1.9643,1.9618,1.9618,1.9695,1.9656,1.9643,1.9643,1.9669,1.9669,1.9669,1.9695,1.9747,1.9773,1.9773,1.9798,1.9798,1.9798,1.9798,1.9798,1.9798,1.9798,1.9798,1.9798,1.9798,1.9798,1.9798,1.9798,1.9798,1.9798,1.9798,1.9798,1.9798,1.9798,1.9798,1.9798,1.9798,1.9798,1.9798,1.9798,1.9798,1.9798,1.9836,1.9924,2.0138,2.0654,2.0955,2.1079,2.0903,2.0652,2.0439,2.0451,2.0727,2.1315,2.2393,2.2804,2.2689,2.292,2.3262,2.3324,2.325,2.3027,2.2727,2.2479,2.2452,2.2648,2.2479,2.1708,2.1459,2.1812,2.1668,2.1354,2.1223,2.1171,2.0843,2.0882,2.0725,2.0699,1.8929,1.9482,1.9785,2.0166,2.0488,2.0007,1.9482,1.898,1.8813,1.8641,1.8438,1.8438,1.8573,1.8677,1.9194,1.9692,2.0158,2.0616,2.1078,2.1287,2.1224,2.1656,2.182,2.1754,2.1556,2.1455,2.1217,2.0788,2.0011,1.9849,1.9848,1.9798,1.991,1.9898,1.9899,1.9823,1.9886,1.9861,1.9886,1.9798,1.9798,1.9798,1.9798,1.9798,1.9798,1.9798,1.9798,1.9798,1.9798,1.9798,1.9798,1.9798,1.9798,1.9798,1.9798,1.9798,1.9798,1.9798,1.9798,1.9798,1.9798,1.9798,1.9798,1.9798,1.9798,1.9798,1.9811,1.9886,1.9836,1.9823,1.9861,1.9874,1.9911,1.9975,1.9899,1.9798,1.9798,1.9798,1.9836,2.0188,2.025,2.0715,2.1232,2.1471,2.1556,2.1418,2.1307,2.1104,2.1091,2.1377,2.1741,2.2807,2.3105,2.293,2.3317,2.3677,2.3725,2.3733,2.3441,2.3337,2.3406,2.3472,2.3731,2.3469,2.2737,2.2843,2.3289,2.2817,2.1981,2.2021,2.1943,2.1446,2.1014,2.0882,2.0725,1.874,1.9287,1.9561,1.9824,1.9979,1.9549,1.8965,1.8432,1.8364,1.8326,1.8323,1.8313,1.8381,1.8583,1.911,1.9652,2.0187,2.078,2.1331,2.1677,2.1098,2.1496,2.1695,2.1612,2.1334,2.1362,2.1384,2.1141,2.0414,2.0252,2.0287,2.0325,2.0277,2.0318,2.0407,2.0509,2.0498,2.0324,2.0125,1.9886,1.9836,1.9849,1.9798,1.9836,1.9823,1.9823,1.9798,1.9798,1.9798,1.9798,1.9798,1.9798,1.9798,1.9798,1.9798,1.9798,1.9798,1.9798,1.9798,1.9798,1.9798,1.9798,1.9798,1.9798,1.9798,1.9798,1.9974,2.0125,1.9962,1.9849,1.9924,1.9987,2.0088,2.0163,2.0,1.9811,1.9798,1.9798,2.0112,2.0526,2.0941,2.1393,2.1732,2.1945,2.2146,2.2234,2.2284,2.218,2.2167,2.2343,2.2468,2.2982,2.3138,2.3152,2.3556,2.3806,2.3758,2.3722,2.3654,2.3658,2.4024,2.4057,2.3949,2.3933,2.3823,2.3852,2.3722,2.3204,2.2566,2.2607,2.2544,2.2126,2.1524,2.1013,2.0869,1.8486,1.9219,1.9277,1.9336,1.9287,1.9238,1.876,1.8057,1.8047,1.8076,1.8245,1.8245,1.8313,1.8438,1.8875,1.9485,2.0008,2.0617,2.1195,2.214,2.1202,2.1178,2.1416,2.1313,2.1136,2.1215,2.135,2.1395,2.1092,2.085,2.0776,2.1002,2.092,2.0881,2.0903,2.0996,2.1016,2.0947,2.0562,2.0225,2.0125,2.0012,1.9899,1.9924,1.9911,1.9886,1.9823,1.9798,1.9798,1.9798,1.9798,1.9798,1.9798,1.9798,1.9798,1.9798,1.9798,1.9798,1.9798,1.9798,1.9798,1.9798,1.9798,1.9987,2.01,1.9874,1.9987,2.0566,2.0526,2.0464,2.0514,2.0489,2.0514,2.0603,2.0514,2.0413,2.0401,2.0639,2.1192,2.1506,2.1631,2.2071,2.2322,2.2493,2.2556,2.2869,2.292,2.2895,2.292,2.302,2.3058,2.3095,2.3138,2.3198,2.336,2.3539,2.3599,2.3616,2.3628,2.3717,2.3865,2.3936,2.3995,2.3835,2.3658,2.3806,2.3667,2.3298,2.3085,2.2986,2.2898,2.2689,2.2192,2.1734,2.1433,1.8311,1.8783,1.9141,1.9277,1.9228,1.89,1.8471,1.8018,1.8008,1.8042,1.8076,1.8076,1.811,1.8212,1.8516,1.9065,1.9573,2.0095,2.064,2.0913,2.0599,2.0595,2.1166,2.0945,2.0905,2.1174,2.1383,2.1599,2.1239,2.1096,2.1023,2.1051,2.1084,2.1174,2.1219,2.1304,2.1405,2.1475,2.1325,2.1079,2.1079,2.1016,2.0953,2.0666,2.0465,2.0264,2.0087,1.9849,1.9823,1.9798,1.9798,1.9798,1.9798,1.9798,1.9798,1.9798,1.9824,1.9837,1.985,1.985,1.9837,1.9811,1.9924,2.0413,2.0501,2.0075,2.0162,2.0828,2.1257,2.1219,2.1119,2.1029,2.0978,2.1029,2.1104,2.1079,2.1066,2.1656,2.2255,2.2343,2.2393,2.2569,2.2807,2.2945,2.3058,2.3083,2.307,2.3045,2.3032,2.307,2.307,2.3095,2.3095,2.3168,2.3271,2.333,2.342,2.3509,2.3539,2.3628,2.3717,2.3645,2.3556,2.3407,2.3288,2.3509,2.3717,2.3771,2.3573,2.3415,2.3406,2.3289,2.3406,2.308,2.2663,1.8217,1.8637,1.9111,1.917,1.8975,1.8695,1.8364,1.8057,1.8008,1.8008,1.8008,1.8008,1.8008,1.8042,1.8313,1.8586,1.9069,1.9404,1.986,2.006,1.9854,1.9818,2.0046,2.0373,2.0533,2.0759,2.16,2.1824,2.1513,2.1557,2.1593,2.1484,2.1484,2.1531,2.1602,2.176,2.1852,2.1973,2.2072,2.2117,2.2058,2.1782,2.1443,2.1094,2.0981,2.0805,2.0654,2.0363,2.0214,2.0088,2.0,1.9823,1.9798,1.9798,1.9888,1.9939,1.9939,1.9926,1.9977,2.0003,1.9989,1.995,2.0228,2.0797,2.1117,2.0803,2.0928,2.1556,2.2221,2.2284,2.1841,2.1691,2.1581,2.1568,2.1653,2.1716,2.1979,2.2468,2.2757,2.2782,2.2794,2.2819,2.2995,2.302,2.3095,2.3095,2.3095,2.3095,2.3095,2.3095,2.3095,2.3095,2.3095,2.3095,2.3168,2.3228,2.3258,2.3348,2.342,2.3407,2.3378,2.3258,2.3138,2.3138,2.3198,2.3318,2.3509,2.37,2.3907,2.3806,2.3887,2.3995,2.4125,2.4125,2.3616,1.8227,1.8637,1.8975,1.8945,1.8607,1.8539,1.8305,1.8047,1.8008,1.8008,1.8008,1.8008,1.8008,1.8076,1.8168,1.8398,1.8578,1.8662,1.9041,1.8999,1.8732,1.8708,1.8943,1.9316,1.9837,2.0659,2.1577,2.1969,2.2054,2.2054,2.2042,2.2161,2.2228,2.2223,2.2402,2.2561,2.2578,2.2637,2.2763,2.2952,2.2669,2.2246,2.1857,2.1681,2.1594,2.1568,2.1355,2.1144,2.083,2.0679,2.0415,2.0087,2.0063,2.0127,2.0447,2.0525,2.0589,2.0564,2.0552,2.059,2.0385,2.0307,2.0738,2.118,2.1524,2.1647,2.1744,2.218,2.2844,2.2945,2.2531,2.2305,2.2167,2.2017,2.2155,2.233,2.2732,2.3083,2.3083,2.3095,2.3095,2.3083,2.3083,2.3095,2.3095,2.3095,2.3095,2.3095,2.3095,2.3095,2.3095,2.3095,2.3095,2.3095,2.3095,2.3125,2.3198,2.3198,2.3258,2.3168,2.3095,2.3095,2.3095,2.3095,2.3168,2.3288,2.3437,2.3628,2.3806,2.4024,2.4083,2.4125,2.4125,2.4125,2.4125,1.8217,1.8578,1.8379,1.8389,1.851,1.8256,1.8052,1.8018,1.8008,1.8008,1.8008,1.8008,1.8008,1.8008,1.8042,1.8089,1.7975,1.7968,1.7636,1.7432,1.7811,1.7669,1.7959,1.8892,1.9485,2.0537,2.1623,2.207,2.2197,2.2197,2.2197,2.2197,2.2197,2.2228,2.229,2.2506,2.2708,2.28,2.2969,2.3078,2.3095,2.2757,2.2585,2.2372,2.2146,2.1857,2.1581,2.1433,2.1383,2.132,2.1169,2.0627,2.049,2.0721,2.1199,2.1514,2.1554,2.1349,2.1324,2.1389,2.1206,2.0768,2.1251,2.1929,2.2097,2.1977,2.2225,2.2644,2.3095,2.3125,2.2862,2.2832,2.2732,2.2468,2.2443,2.2694,2.302,2.3095,2.3095,2.3095,2.3095,2.3095,2.3095,2.3095,2.3095,2.3095,2.3095,2.3095,2.3095,2.3095,2.3095,2.3095,2.3095,2.3095,2.3095,2.3095,2.3138,2.3095,2.3095,2.3095,2.3095,2.3095,2.3095,2.3095,2.3168,2.3228,2.3407,2.3497,2.3717,2.3907,2.4054,2.4125,2.4083,2.4083,2.4054]}]]